GFSGL_500_spd_000.txt.gz
Wind_Speed
12 16 19 24 28 21 8 1 3 4 3 4 5 7 12 17 20 22 21 25 25 24 25 22 23 25 23 19 29 24 25 27 27 25 23 26 27 26 30 27 28 29 29
13 18 16 17 21 24 22 7 4 3 2 3 3 8 9 13 15 17 16 18 24 28 28 26 28 27 26 26 29 30 27 28 30 26 26 28 29 28 31 31 29 29 31
18 20 20 19 18 18 17 14 15 13 5 7 6 5 9 10 9 12 16 21 25 27 28 29 30 31 31 33 22 27 27 27 27 23 25 30 32 32 32 36 34 35 36
16 18 21 20 21 19 17 12 11 10 12 10 4 9 11 14 16 18 20 22 26 23 31 32 32 32 33 32 29 25 21 20 23 26 26 27 31 31 33 33 36 30 28
21 25 28 24 21 20 16 13 10 9 10 8 7 9 10 11 13 18 21 26 30 28 31 31 34 34 30 29 31 29 29 29 31 29 26 25 25 30 29 26 23 21 22
20 24 27 25 22 19 17 14 14 12 9 9 10 10 13 10 10 11 14 19 23 24 28 31 33 34 30 25 29 31 33 36 32 26 24 27 26 27 28 26 24 27 25
23 23 20 24 22 21 16 11 13 13 14 11 12 15 15 16 17 18 17 16 19 21 22 25 26 27 29 32 29 28 28 27 27 29 28 28 29 30 31 32 34 34 32
23 24 19 19 18 14 11 10 14 15 18 20 19 19 20 20 21 22 22 23 23 24 24 26 28 30 30 26 27 27 28 27 25 26 29 33 33 33 34 35 35 36 38
22 20 17 15 11 15 14 15 16 19 23 25 23 22 21 22 24 23 23 25 26 27 29 30 30 29 28 27 27 27 28 29 32 34 35 35 36 39 41 41 42 45 44
21 18 17 19 17 17 17 17 20 22 21 21 22 21 23 25 23 23 24 26 27 30 32 33 33 34 33 31 30 30 32 34 35 35 38 44 41 44 45 46 42 45 47
17 16 17 19 19 22 23 23 24 22 21 24 25 26 23 25 24 27 27 28 30 31 30 32 33 36 38 39 40 40 40 43 44 46 47 47 44 46 45 44 43 41 44
18 17 19 19 22 21 24 24 23 23 24 26 26 24 28 30 31 31 33 36 35 32 30 32 35 35 35 37 40 41 43 39 37 42 48 51 45 49 54 56 53 54 52
22 24 22 19 19 21 23 26 29 27 25 24 23 17 24 28 24 28 35 34 30 29 28 28 25 27 29 31 32 34 39 47 49 46 44 46 47 50 48 49 47 47 46
28 28 26 23 22 23 26 28 26 27 28 32 28 24 21 21 23 27 31 30 34 34 31 30 33 37 38 38 34 34 37 39 40 43 43 45 46 47 47 48 50 50 51
32 33 30 26 23 22 22 25 27 27 26 26 25 24 23 22 22 23 25 27 29 31 31 28 29 32 34 36 38 41 44 45 47 49 51 52 53 55 56 56 56 57 59
31 30 27 24 21 20 19 19 21 22 24 24 23 22 23 24 24 25 23 24 26 28 30 33 36 38 40 42 44 47 49 52 54 56 58 59 60 61 63 64 64 64 64
28 26 24 21 20 19 18 18 19 19 19 19 19 19 20 21 22 24 27 28 31 33 36 38 41 44 47 50 52 54 56 58 60 61 62 62 63 64 65 65 65 64 62
24 23 23 23 21 20 20 18 17 16 17 18 19 20 22 24 26 28 30 33 35 37 41 45 48 51 53 55 57 58 58 58 59 60 61 62 63 64 64 63 61 58 55
23 23 21 20 19 18 14 12 12 14 17 19 21 23 25 28 30 32 34 37 41 44 48 50 53 55 56 57 56 56 56 56 57 58 58 59 60 61 61 60 56 49 45
20 19 17 16 13 13 15 16 18 19 20 21 23 27 30 31 33 36 39 43 47 50 54 56 58 55 55 53 53 53 52 51 49 49 49 49 49 49 48 46 41 37 34
18 17 17 19 18 20 19 19 21 22 23 26 30 32 33 35 38 41 45 49 52 55 54 55 55 53 50 49 49 48 47 46 45 44 44 42 40 37 34 30 28 27 26
20 19 18 20 21 20 20 23 27 27 29 31 32 34 38 41 45 48 51 52 52 50 48 47 47 47 47 47 47 45 44 41 36 38 37 35 32 29 26 22 20 19 18
19 21 19 19 23 22 22 23 26 29 30 33 36 38 42 46 49 49 48 45 44 43 43 43 44 45 45 44 41 38 35 33 34 33 31 29 27 24 19 15 15 14 14
16 19 20 17 20 22 22 25 28 30 33 38 41 45 47 47 45 42 40 40 40 38 37 38 39 40 39 36 31 31 28 29 27 27 26 23 22 20 15 14 13 11 9
15 14 18 21 22 24 25 29 31 35 38 42 45 46 45 40 38 36 36 35 33 33 33 33 34 34 31 28 28 26 24 21 21 21 20 18 14 10 8 6 3 4 4
13 18 21 22 25 26 30 33 36 40 43 46 46 42 37 34 32 32 30 30 30 29 29 29 28 27 26 26 24 22 20 17 16 14 10 6 7 8 9 9 6 3 2

GFSGL_500_spd_003.txt.gz
Wind_Speed
14 18 21 22 23 23 23 14 8 7 5 3 3 8 10 11 13 14 15 18 22 27 28 24 27 30 28 26 24 26 25 22 18 22 26 26 27 22 22 26 29 28 20
17 18 21 23 21 19 17 13 9 5 7 7 2 4 6 7 8 12 13 18 19 20 26 29 27 29 27 26 26 23 21 31 30 28 29 24 26 30 26 24 25 27 25
22 18 20 24 22 16 12 9 8 7 8 4 1 3 5 6 9 10 11 12 15 18 18 19 23 28 29 31 31 31 30 26 25 25 25 24 29 27 28 31 32 31 34
21 21 22 25 22 17 10 8 5 7 7 7 2 6 6 7 10 11 12 12 12 15 19 22 23 29 30 32 33 33 32 28 24 21 23 26 27 29 31 33 33 32 32
17 18 26 24 22 17 13 7 6 5 4 4 4 5 4 5 7 10 15 16 20 23 25 26 24 29 30 34 35 32 30 28 27 29 25 28 31 32 32 34 31 32 26
19 20 21 21 21 15 13 8 4 4 4 6 5 5 5 6 6 7 7 9 14 17 21 28 28 30 30 33 32 32 31 28 30 31 34 35 34 32 30 31 35 31 25
22 18 19 19 16 13 8 5 5 5 6 8 9 11 14 13 13 14 15 16 15 16 16 18 18 24 24 25 25 26 27 30 30 31 31 30 32 35 37 37 32 30 32
21 18 14 15 16 10 8 7 8 11 13 15 18 19 17 16 16 17 17 17 18 19 20 21 21 22 24 26 27 29 30 30 30 30 32 32 36 36 34 36 38 38 39
18 17 17 17 14 14 15 16 17 20 21 21 22 18 16 14 16 18 19 21 22 22 21 22 24 25 26 28 28 27 30 30 30 30 30 32 34 36 39 41 43 46 46
16 13 14 13 13 16 16 18 18 20 24 24 24 20 20 18 19 20 22 22 23 25 25 26 28 28 28 28 29 29 30 30 31 33 35 34 36 39 43 45 48 46 46
16 14 14 13 15 15 18 20 20 22 23 24 24 24 23 22 18 20 22 24 24 27 28 30 30 32 32 30 31 34 35 36 38 39 39 40 38 35 39 41 44 43 45
14 13 16 19 20 20 21 23 23 21 23 24 26 27 21 20 22 20 22 25 26 24 25 23 27 29 30 29 28 27 27 31 33 32 33 36 42 43 37 38 41 39 45
18 17 19 21 22 23 24 24 26 28 28 26 26 27 27 19 23 22 24 24 28 28 30 30 22 25 27 29 27 31 27 28 32 36 37 39 39 41 43 43 44 47 48
22 22 23 25 23 19 21 22 23 24 25 25 24 24 25 27 20 22 22 23 24 25 28 28 27 25 29 30 28 31 33 35 37 39 42 44 45 47 48 49 51 53 54
22 23 23 23 23 22 22 20 20 21 22 22 22 21 19 19 20 20 21 21 20 21 22 24 26 29 31 33 35 37 39 42 45 47 49 51 52 54 56 57 58 59 61
27 27 27 26 24 22 19 18 18 18 18 19 20 20 19 19 18 19 21 23 24 27 28 29 31 33 35 37 40 44 47 50 52 55 57 59 61 62 63 63 63 64 65
27 25 26 24 21 20 20 20 19 19 19 19 19 18 17 18 19 22 24 26 28 30 32 33 36 39 42 45 47 50 52 54 55 57 58 59 60 61 63 64 64 65 66
25 25 24 21 20 19 18 18 17 16 15 15 15 17 19 22 23 25 27 29 31 33 35 38 41 44 47 51 53 55 56 57 57 57 57 57 56 56 55 55 55 55 56
26 25 21 19 18 15 14 14 13 11 15 20 19 20 22 24 26 28 31 33 34 36 39 43 47 51 54 56 58 57 56 54 53 54 53 52 50 50 50 50 50 49 49
22 22 18 16 14 12 12 15 17 18 19 22 21 22 25 28 30 33 35 37 40 43 46 48 49 50 51 52 53 51 50 48 49 51 48 43 42 41 42 41 39 37 35
19 18 17 17 17 18 19 20 21 18 19 23 26 27 28 31 33 36 38 41 44 47 51 54 53 50 47 46 46 47 46 46 45 41 36 35 36 35 35 35 32 29 23
22 20 19 19 19 19 20 23 25 22 22 24 27 30 32 34 37 40 43 47 48 48 49 46 44 41 40 41 42 43 43 38 33 30 31 32 30 32 30 26 22 18 15
28 25 20 18 23 23 21 18 20 22 25 28 31 33 35 38 41 45 48 49 46 41 38 36 35 36 36 36 37 37 35 30 28 26 27 29 28 26 22 18 14 13 13
21 17 14 17 21 18 19 21 23 25 27 29 32 35 38 42 45 47 47 42 35 31 30 32 32 32 31 31 31 32 30 28 23 22 24 24 21 18 15 13 12 13 8
15 16 16 15 17 19 23 24 26 29 31 34 36 39 43 45 44 39 34 30 28 28 29 30 29 27 28 29 29 30 27 24 20 18 18 19 18 13 10 8 3 9 13
15 12 13 15 17 19 22 25 26 30 34 37 40 43 41 36 32 29 28 27 26 28 28 27 26 25 24 26 27 28 26 20 17 14 12 11 10 9 10 9 8 6 4

GFSGL_500_spd_006.txt.gz
Wind_Speed
15 16 18 21 22 17 17 14 8 7 7 8 9 6 8 10 12 14 16 17 20 21 20 21 22 21 22 24 22 22 23 23 22 26 26 29 27 23 23 30 26 25 28
18 16 16 19 22 15 12 11 11 11 4 5 3 3 3 8 11 10 12 14 16 19 21 22 24 26 25 29 30 28 25 24 26 28 30 27 23 22 25 27 29 28 30
17 15 15 19 20 15 10 8 8 8 10 1 2 6 4 5 9 10 12 13 15 19 22 21 28 30 31 31 31 31 29 30 30 28 30 35 32 32 34 36 34 31 32
14 17 18 20 18 15 9 5 6 6 6 6 4 3 4 5 7 8 10 11 12 10 13 15 15 16 18 23 26 30 31 32 36 38 34 31 30 31 31 31 33 35 36
14 16 20 20 19 14 11 7 5 6 6 3 2 2 1 1 5 11 16 18 16 17 15 18 21 22 25 24 28 31 36 39 38 39 38 34 31 29 28 31 34 36 39
15 17 19 18 17 14 14 12 6 7 7 6 6 6 5 5 6 7 6 7 10 13 17 20 25 24 25 25 28 30 31 32 32 32 32 29 32 33 30 31 39 34 39
18 15 16 16 12 10 11 12 10 8 10 9 9 11 13 15 15 12 12 14 16 15 15 16 16 19 20 22 22 25 26 26 28 29 33 32 30 33 33 29 37 38 37
15 13 12 15 14 11 10 11 12 14 16 18 19 18 19 16 15 15 12 13 14 17 16 17 18 21 23 25 25 26 27 28 28 29 30 31 31 28 29 31 38 37 37
14 15 12 14 11 10 13 14 15 15 17 18 19 20 19 17 18 17 16 15 17 17 17 17 19 21 23 25 26 28 29 30 29 28 28 27 28 30 34 36 38 41 43
14 14 13 11 8 10 10 11 13 15 16 18 21 19 18 17 19 21 21 21 22 21 22 22 22 24 26 27 29 29 29 30 30 30 32 33 35 37 38 39 41 46 47
17 16 14 11 11 12 13 14 17 19 19 19 20 22 21 22 25 24 23 21 24 20 19 21 24 26 27 29 30 31 30 31 31 31 31 32 33 38 42 41 42 44 43
19 18 17 17 16 18 18 18 20 21 22 22 23 24 26 27 29 26 27 26 22 23 24 24 24 25 28 28 28 29 30 28 25 25 26 30 33 34 38 39 41 41 43
22 19 20 21 23 23 21 23 19 26 25 25 27 28 25 26 26 27 28 28 29 28 28 28 25 24 23 24 24 27 28 30 31 32 33 36 37 38 41 44 47 50 51
23 23 21 21 20 20 18 21 26 25 26 27 28 27 24 23 21 20 21 22 23 24 24 25 25 24 24 26 27 29 31 33 35 37 39 42 44 47 50 52 54 56 58
22 24 23 21 20 20 22 22 25 26 27 27 25 24 24 21 18 18 18 18 18 19 20 22 25 28 30 32 35 37 39 41 44 46 49 51 53 55 57 59 61 63 64
22 24 22 22 21 23 23 24 24 26 25 24 23 22 20 18 18 16 17 19 21 24 26 28 30 31 33 36 38 41 44 47 49 52 54 57 60 62 63 64 67 69 70
21 22 21 19 21 22 24 25 26 26 25 23 20 18 15 15 15 17 20 23 25 27 29 32 34 36 38 41 44 46 49 52 55 57 59 59 58 58 58 58 58 59 60
25 25 22 21 21 22 24 25 24 23 20 17 15 14 15 18 20 21 23 25 29 31 33 35 38 41 43 46 48 51 53 54 54 54 52 49 49 49 49 49 48 48 49
27 24 23 21 22 22 22 22 19 17 16 15 17 19 20 21 22 24 28 29 32 34 37 40 43 46 48 51 52 52 50 48 47 47 46 47 48 45 42 41 41 41 40
27 26 26 24 22 20 19 18 17 20 20 19 20 21 22 25 27 27 30 33 36 38 41 43 46 49 51 52 49 44 42 43 45 44 45 44 37 33 35 34 34 36 36
29 23 24 24 22 21 20 20 22 23 23 23 23 26 27 26 29 32 35 38 40 42 45 46 47 45 41 39 38 38 38 39 39 39 36 28 26 27 28 32 30 29 24
24 23 25 26 27 28 26 23 22 23 25 26 23 25 27 30 33 35 38 40 43 46 48 48 43 38 34 35 36 35 35 36 36 35 30 24 25 28 26 25 21 19 17
24 25 31 35 32 32 32 26 23 22 22 23 25 28 30 33 35 37 40 42 43 45 42 38 33 31 33 33 32 32 31 31 30 30 22 21 23 22 19 16 15 13 13
26 29 33 34 27 24 19 17 18 22 25 27 29 32 34 36 38 41 42 40 38 36 33 31 29 30 31 30 29 29 28 28 28 25 21 19 20 18 14 12 13 14 12
27 27 28 25 17 18 19 21 26 28 28 30 32 35 37 39 40 42 41 36 32 31 29 28 28 29 29 28 27 26 25 25 25 23 20 17 17 18 15 12 11 10 9
17 18 20 19 16 17 25 28 29 31 33 34 36 37 39 40 40 37 34 30 27 27 27 27 27 27 26 26 25 25 23 22 22 21 18 15 14 12 10 9 8 8 8

GFSGL_500_spd_009.txt.gz
Wind_Speed
17 23 18 18 20 18 16 13 12 10 8 9 6 1 5 7 10 12 13 16 19 22 23 23 22 25 26 24 30 29 27 27 28 28 29 23 19 23 21 29 31 32 38
19 18 14 18 20 17 15 12 10 10 12 7 8 6 0 5 9 11 12 13 17 20 21 21 21 20 22 23 23 24 26 22 27 30 33 29 27 27 31 33 30 32 29
13 16 18 19 20 17 13 11 10 9 9 7 3 7 4 1 4 8 9 8 12 15 17 19 22 21 22 25 26 22 26 28 29 33 30 32 34 33 36 35 37 36 38
14 16 17 20 20 17 13 13 11 11 8 7 6 4 7 4 4 5 9 11 11 11 11 11 20 20 20 27 29 28 25 29 31 35 34 35 34 34 40 44 43 43 42
12 13 19 21 19 17 13 13 11 10 11 9 8 7 6 6 6 9 12 15 17 18 16 15 15 17 17 20 24 25 27 28 30 35 35 38 39 38 40 35 36 35 32
14 14 17 21 19 13 13 12 11 10 11 11 10 9 10 11 12 13 12 11 11 12 14 18 21 23 24 29 29 27 27 28 30 31 32 35 35 31 24 27 29 29 32
14 15 13 17 16 12 12 10 11 12 14 14 13 14 14 13 14 17 17 16 15 15 17 19 20 20 21 23 24 29 28 27 29 30 31 30 30 35 36 34 37 33 37
13 13 13 15 13 10 8 8 10 12 15 17 18 19 19 18 16 13 12 13 14 14 17 20 21 22 23 24 25 27 29 30 30 31 32 32 31 33 33 32 32 34 40
11 10 9 12 12 11 8 6 9 12 14 17 18 19 19 18 18 19 17 18 18 18 16 18 20 22 25 27 27 27 29 29 30 31 32 33 32 32 34 30 32 37 39
14 10 10 12 11 9 9 10 9 13 14 15 17 19 20 20 21 21 21 23 25 23 22 21 22 24 27 27 28 29 31 32 33 34 33 35 35 35 36 38 40 41 45
21 16 13 14 16 15 15 16 15 17 15 15 16 19 23 24 26 28 28 26 25 25 25 27 26 27 28 30 32 33 31 31 29 30 31 32 33 32 32 34 38 40 43
22 20 19 20 19 19 20 21 22 22 21 19 19 20 25 25 28 30 31 28 25 26 27 27 29 31 30 29 31 29 27 28 29 29 30 33 34 37 36 37 39 41 43
23 22 21 20 20 23 24 24 25 27 24 24 27 27 28 30 29 28 27 28 29 29 30 32 29 28 27 25 24 25 26 27 29 31 33 35 37 40 41 43 46 49 51
24 23 21 21 22 22 23 20 34 33 26 31 33 31 34 33 31 28 26 26 25 24 24 24 25 24 25 26 29 31 32 34 36 38 40 43 46 48 50 52 55 57 59
22 21 22 21 22 24 24 26 28 30 30 33 32 34 34 34 30 26 23 21 20 19 18 20 22 25 27 29 32 34 37 39 42 45 47 50 52 54 57 61 64 66 67
20 18 19 21 23 25 27 29 28 34 36 37 36 34 33 31 28 24 20 19 18 19 21 24 26 29 31 34 36 38 41 44 47 51 53 56 58 60 62 63 65 65 66
20 18 20 22 23 25 26 28 30 32 34 35 35 34 32 27 22 20 20 21 22 23 25 28 31 33 35 38 41 43 47 50 53 55 56 56 56 56 55 54 54 53 53
25 22 22 24 24 25 28 28 30 32 33 33 30 27 24 22 21 22 24 24 25 27 30 31 34 37 40 43 45 48 51 53 55 53 51 50 49 48 48 48 47 45 43
27 25 26 26 28 28 28 29 30 31 29 26 24 23 23 23 25 25 25 28 30 30 33 36 39 41 44 47 49 52 53 51 47 45 45 44 43 42 42 37 33 32 32
25 25 27 29 30 30 30 28 27 26 24 24 24 25 25 27 26 28 30 29 32 35 38 41 43 46 48 49 49 47 44 42 41 42 42 41 40 40 33 29 29 33 31
23 26 28 29 27 25 27 29 30 29 29 28 26 26 27 29 31 29 30 32 36 39 41 43 45 46 47 44 40 37 37 38 38 38 39 38 38 28 24 26 26 25 23
24 24 25 27 27 26 29 32 34 32 29 28 30 31 32 30 30 31 33 36 39 41 43 43 43 42 40 35 32 33 34 35 35 34 34 34 31 23 23 23 20 16 16
24 25 26 27 28 31 34 36 36 36 35 34 25 26 29 30 32 34 37 40 42 43 43 42 40 36 31 30 30 31 32 32 30 30 29 28 24 21 20 18 16 15 17
26 29 30 29 31 32 32 32 29 20 18 23 25 28 30 32 36 38 41 42 44 43 41 39 33 30 28 29 30 29 29 28 27 26 25 24 22 21 20 16 13 12 13
26 28 29 31 32 30 27 20 21 19 19 27 28 30 35 38 40 42 42 42 42 41 38 34 30 28 27 27 27 27 28 27 25 24 22 20 18 16 14 13 12 11 9
24 26 28 26 23 23 23 21 19 27 30 31 33 37 39 40 42 43 43 42 40 38 34 30 29 27 26 26 26 26 26 26 24 22 21 19 16 14 11 9 8 8 9

GFSGL_500_spd_012.txt.gz
Wind_Speed
12 15 14 18 21 22 22 16 14 13 14 8 9 5 3 4 8 9 11 14 16 21 25 27 26 25 25 25 25 29 29 33 29 27 31 32 30 34 31 29 30 32 33
10 14 17 17 21 21 20 18 15 13 15 11 9 11 5 4 6 6 8 10 12 14 17 21 23 25 26 24 24 26 25 28 32 31 32 31 35 35 33 34 33 34 36
11 14 17 18 20 18 17 18 15 12 11 12 12 9 8 5 4 2 5 7 11 14 16 19 22 22 23 24 26 28 27 26 28 28 27 33 34 36 41 37 37 39 41
11 14 17 18 18 17 14 14 13 10 10 9 10 11 10 7 5 4 6 8 11 12 15 18 19 25 27 26 26 27 28 25 26 27 27 31 35 38 36 41 40 39 38
11 13 20 22 16 16 11 10 9 8 10 10 10 10 10 9 8 8 8 9 12 15 17 17 16 16 17 18 19 20 22 23 25 28 31 30 32 36 35 37 39 42 40
12 14 18 22 21 17 14 8 5 7 9 9 10 10 10 10 11 13 14 14 13 13 13 13 14 17 20 23 25 28 27 30 28 27 28 30 32 31 33 33 36 34 29
12 14 17 17 20 19 15 11 9 10 11 12 13 15 16 16 13 11 11 14 16 15 16 17 19 21 22 23 23 24 26 28 29 29 30 31 33 33 34 35 38 43 43
14 15 16 16 18 17 14 11 10 10 11 13 13 14 16 15 14 13 12 12 13 15 18 20 21 22 23 23 25 26 28 29 30 31 33 34 34 34 35 36 38 36 34
15 16 19 18 18 16 13 11 10 11 13 14 15 15 15 15 15 17 18 18 19 21 22 23 23 24 25 25 26 27 29 30 31 33 35 36 37 37 37 37 37 35 34
15 15 17 21 20 18 17 16 16 16 16 16 18 19 19 19 19 21 24 26 27 28 29 28 29 28 27 27 25 26 28 29 30 32 35 35 36 36 35 36 39 40 41
17 17 17 18 21 24 22 23 23 22 23 22 22 22 23 21 21 24 27 29 29 31 31 29 28 29 30 30 30 31 32 33 33 31 30 30 30 30 32 33 33 36 38
17 18 21 21 21 23 25 26 26 26 27 28 25 26 26 24 25 29 32 31 31 30 30 28 27 29 29 31 34 29 26 25 24 26 27 29 31 33 36 37 38 41 43
24 24 23 23 23 23 24 25 27 27 24 25 29 26 28 29 35 35 34 34 33 32 29 27 26 26 26 25 25 24 25 27 28 30 32 34 36 38 41 44 47 49 51
29 29 26 25 26 25 25 25 25 26 24 36 43 35 31 35 37 37 37 34 32 29 26 26 25 24 23 23 25 26 28 30 32 35 37 39 42 45 48 51 54 57 59
31 28 25 23 24 25 25 25 24 25 33 34 40 40 44 42 36 39 37 34 30 26 23 22 22 22 23 24 26 29 32 34 36 39 42 45 48 51 54 57 59 60 61
29 26 23 22 22 23 24 25 27 28 31 36 37 38 46 45 39 39 35 31 26 23 21 22 23 24 25 29 31 33 36 38 41 44 48 51 54 56 57 56 55 55 55
31 26 23 23 24 25 26 28 28 31 32 35 37 36 38 38 37 34 29 25 23 24 25 25 26 29 31 32 35 38 41 44 47 50 52 53 52 51 50 49 48 47 47
29 26 27 28 29 29 28 28 30 32 33 33 34 34 35 33 28 26 25 25 25 26 26 29 31 31 34 37 40 43 45 47 49 49 49 47 45 45 44 43 42 41 40
29 28 28 29 28 29 29 29 31 32 32 32 34 33 30 29 26 26 26 26 26 28 31 32 33 35 38 41 43 45 46 47 46 44 42 42 42 41 40 38 37 33 28
28 29 28 28 29 30 31 32 32 30 30 31 32 31 30 30 29 28 26 27 31 34 32 33 36 39 41 43 45 46 46 43 39 37 38 38 37 37 36 35 30 26 26
23 27 30 31 32 30 29 29 28 28 28 32 35 36 34 35 34 34 33 33 31 32 33 36 40 42 44 45 45 44 41 35 34 34 34 34 34 34 34 32 25 24 23
29 31 30 28 28 28 28 26 26 28 32 36 37 39 40 39 36 31 28 28 29 32 36 40 43 45 45 44 43 40 35 31 31 31 31 31 31 30 30 28 24 22 21
30 30 29 29 29 30 30 28 30 32 33 34 35 33 26 24 22 24 26 28 32 36 39 42 43 45 44 42 39 34 30 29 28 29 29 28 28 26 25 23 20 17 16
27 27 29 31 30 28 29 31 31 30 29 27 23 22 20 23 25 27 29 33 37 39 41 42 43 44 42 38 34 30 28 27 26 26 27 26 26 24 21 19 17 16 14
25 28 30 31 30 29 29 26 26 25 22 23 19 24 26 27 30 33 37 38 39 41 42 42 42 41 37 34 31 29 27 26 26 25 25 24 24 22 21 18 16 14 11
24 25 27 27 27 23 22 23 23 21 22 23 26 29 31 34 38 38 39 40 42 43 43 43 41 38 34 32 30 28 27 26 26 25 25 24 23 23 21 20 19 17 17

GFSGL_500_spd_015.txt.gz
Wind_Speed
10 10 11 14 16 15 14 12 10 10 11 5 12 12 7 4 3 3 7 12 16 18 21 25 28 28 26 24 24 25 26 28 30 31 34 33 31 31 26 30 37 36 35
7 7 8 10 15 15 15 14 10 9 10 14 10 10 11 7 4 3 4 7 10 13 15 20 24 25 26 27 28 27 27 28 27 25 28 31 33 32 33 34 34 39 35
8 9 10 11 12 12 11 14 11 8 9 9 10 11 10 8 7 4 2 5 7 10 13 14 17 19 22 24 26 26 31 27 26 28 29 31 32 33 35 34 36 40 42
8 10 11 13 13 12 10 11 10 8 9 9 8 9 9 9 8 6 6 8 7 12 12 16 20 22 19 26 28 22 23 23 26 30 28 30 28 29 30 33 38 39 43
8 12 13 15 11 12 14 11 9 8 9 9 9 8 8 8 8 9 9 9 9 9 8 8 12 15 16 18 19 20 21 20 23 22 22 24 28 30 32 32 35 38 37
11 14 15 17 14 12 11 15 11 10 10 10 9 9 10 9 8 9 10 10 10 12 12 13 13 14 15 18 21 23 24 27 26 25 30 31 31 31 31 30 33 33 35
13 15 16 15 16 15 11 14 12 11 13 14 12 12 12 12 11 10 10 11 11 11 12 13 16 17 18 20 22 23 24 23 25 29 30 29 29 30 31 34 35 36 36
15 17 18 17 18 17 16 14 15 13 12 13 14 13 13 13 13 14 13 14 15 17 18 19 21 22 23 24 24 24 26 26 27 29 31 32 33 32 33 35 36 36 37
20 19 19 17 20 21 19 18 18 17 15 17 17 17 18 18 18 18 19 18 18 21 24 27 28 28 27 26 25 25 25 26 26 27 29 31 33 33 34 36 36 36 36
21 21 22 21 20 21 22 20 22 23 22 22 22 22 23 22 23 23 25 25 23 25 28 29 29 30 30 29 26 27 28 27 29 30 32 32 32 30 29 29 29 30 31
20 20 21 21 23 23 22 23 25 26 27 27 27 27 27 26 25 26 27 27 27 28 30 32 32 30 28 28 28 28 28 29 31 28 26 25 26 25 27 28 31 33 35
21 22 24 23 24 25 26 25 26 28 30 31 32 33 31 27 26 27 29 29 33 35 35 32 29 29 28 27 27 27 25 24 22 23 24 25 27 29 31 33 35 38 40
27 29 28 27 27 26 25 25 27 29 30 31 33 30 31 32 37 34 33 34 36 36 33 31 28 27 25 22 22 21 21 22 24 25 28 31 33 35 37 40 43 46 48
25 24 22 25 27 28 27 27 29 30 30 33 34 34 35 32 39 44 39 38 42 35 33 28 26 23 22 21 21 22 23 25 28 31 33 36 38 41 43 45 48 51 54
25 24 26 28 30 31 29 27 28 28 30 33 32 30 38 39 43 43 43 42 35 30 31 27 23 21 22 23 22 23 27 29 32 35 38 40 42 44 47 49 52 54 54
28 28 29 32 33 33 31 30 31 29 31 31 32 31 39 40 39 40 40 35 33 29 25 23 22 22 24 24 25 28 29 33 36 38 40 43 45 47 50 50 50 50 49
31 31 34 36 33 31 30 32 32 34 35 35 35 35 35 36 36 37 35 31 27 25 24 24 24 24 24 27 28 31 33 35 38 41 43 44 46 48 48 48 47 44 42
37 37 39 39 34 33 33 33 34 36 36 35 35 35 35 35 34 32 30 28 27 27 26 27 25 24 27 30 32 33 35 38 41 42 43 45 46 46 46 43 40 38 36
41 42 37 33 34 34 34 35 36 36 35 35 35 35 34 32 31 30 30 30 30 30 28 27 26 31 32 31 32 34 37 40 42 43 44 44 44 42 39 35 34 32 30
35 32 30 30 31 32 34 35 35 35 34 33 34 33 30 30 32 34 35 33 34 35 32 33 36 30 30 31 34 37 39 41 42 42 43 41 38 35 32 32 31 28 27
26 28 28 30 32 34 36 36 34 33 33 33 32 32 33 34 34 37 38 40 43 41 36 27 29 28 31 34 37 39 40 41 41 41 39 35 32 30 29 29 28 27 25
30 31 33 34 36 37 36 34 33 35 35 33 32 34 35 35 32 33 34 29 26 24 24 25 29 33 36 37 38 39 40 40 39 37 33 31 29 28 27 27 26 24 23
33 33 33 34 34 35 34 35 35 36 35 36 36 34 33 30 28 23 18 21 22 25 27 30 33 36 37 38 39 40 40 38 35 33 30 28 27 27 26 25 24 22 20
34 34 33 33 32 31 31 34 35 35 35 34 31 29 24 19 15 19 20 23 25 28 31 34 36 38 39 40 40 40 38 33 32 31 30 28 27 26 24 24 23 22 19
28 29 31 33 33 33 32 32 32 32 31 29 27 26 24 22 22 24 27 30 31 33 34 36 37 39 41 42 41 38 34 32 31 30 29 28 27 26 24 23 23 22 21
25 26 29 32 31 29 27 25 27 28 30 28 26 25 26 26 27 30 33 34 35 36 38 39 41 42 42 41 39 36 33 32 31 30 29 27 27 26 25 24 23 23 23

GFSGL_500_spd_018.txt.gz
Wind_Speed
12 10 9 9 10 11 9 9 6 7 8 7 8 9 8 3 2 2 3 6 10 13 16 19 22 25 25 24 25 23 21 23 24 27 31 28 27 32 35 35 35 35 34
12 11 8 8 9 11 9 9 7 5 4 5 6 7 6 6 4 2 3 4 6 9 14 18 21 24 27 28 27 26 26 27 29 31 33 35 32 27 30 28 34 37 36
13 10 7 6 9 9 9 8 7 5 5 4 6 6 7 6 5 5 4 5 8 6 8 15 17 19 24 26 26 26 26 30 34 33 34 30 33 32 31 33 33 38 42
14 8 7 6 7 6 8 6 5 4 7 6 6 6 6 5 5 4 4 5 6 4 9 8 14 14 19 22 25 27 27 32 24 26 24 23 27 28 31 30 29 28 32
10 8 8 7 7 5 8 6 5 6 8 7 8 9 9 8 8 9 8 8 8 8 8 7 9 14 15 19 21 18 17 21 20 21 23 26 23 21 24 27 33 34 32
9 10 12 11 10 11 8 9 8 7 9 10 8 8 10 10 10 8 7 7 8 8 9 10 11 13 14 16 17 19 20 22 25 25 25 23 28 29 28 30 30 30 32
12 13 15 15 15 15 14 12 12 11 11 11 10 10 12 13 14 15 14 12 11 11 12 13 15 16 19 20 22 23 24 23 23 24 25 27 28 28 29 29 30 31 32
18 17 15 15 16 17 17 16 15 14 13 13 15 14 15 17 19 20 20 19 19 20 19 18 20 22 23 25 25 25 25 26 27 28 28 29 29 29 28 30 32 33 34
20 17 16 17 18 19 18 17 17 18 17 17 20 21 20 22 23 24 25 25 24 24 24 23 23 25 27 29 29 28 26 26 28 28 29 30 30 30 31 32 32 32 30
17 18 17 16 17 18 19 18 20 20 21 22 25 27 27 27 28 29 29 28 27 29 29 29 27 28 30 32 31 29 29 28 28 28 28 30 30 27 26 26 26 27 27
21 21 19 19 20 20 20 21 23 24 25 25 26 28 28 30 31 32 31 28 27 30 31 33 32 31 33 32 29 27 26 27 25 25 23 23 24 25 26 27 28 30 33
19 20 21 22 24 23 23 24 25 26 25 26 28 30 30 32 30 30 31 32 30 27 34 34 36 37 33 31 28 25 25 24 22 21 22 22 23 25 27 29 32 34 37
22 22 22 20 19 19 21 24 26 27 28 30 30 33 33 30 31 33 37 36 34 36 36 35 38 33 33 30 29 23 21 21 22 22 22 24 26 29 31 33 36 38 41
22 23 21 22 22 22 24 26 27 28 29 31 32 33 32 33 32 35 35 34 34 34 34 34 30 29 29 28 23 22 22 22 22 24 25 28 30 32 35 37 39 41 45
22 24 24 26 27 26 28 30 31 31 32 31 32 31 32 34 33 34 44 48 34 34 33 31 28 27 26 26 24 23 23 23 25 27 28 31 33 35 37 39 42 46 48
25 27 28 29 32 34 34 35 36 33 33 33 33 34 35 36 38 39 40 40 38 37 32 27 25 25 26 25 26 25 25 27 27 30 33 33 34 37 39 42 45 46 48
34 34 37 39 39 39 40 41 39 37 36 37 37 38 39 39 38 38 38 37 37 33 29 27 25 25 27 27 26 26 25 28 33 33 33 35 37 39 41 44 45 45 43
39 37 38 39 41 43 44 42 40 37 36 37 38 39 39 38 38 37 36 34 32 31 30 29 28 29 28 27 25 27 32 31 31 33 35 37 38 40 42 43 42 40 38
39 42 42 42 44 42 37 37 37 36 36 37 37 37 37 36 37 36 35 33 33 33 33 32 30 29 32 33 32 34 31 28 30 36 37 38 39 41 42 40 37 36 33
41 41 41 39 35 33 33 34 36 37 37 38 38 37 36 37 37 36 36 36 37 36 35 34 34 34 34 38 36 29 26 31 34 35 37 38 39 40 39 37 34 32 30
38 37 37 36 34 34 36 38 38 38 37 36 36 36 37 38 38 39 38 40 39 38 38 40 32 30 29 25 24 28 31 32 34 36 37 38 38 37 36 33 32 30 27
39 40 38 37 36 36 37 36 37 38 37 36 38 37 39 39 41 42 39 36 35 33 34 25 23 23 25 27 30 31 31 33 35 37 37 37 36 35 33 31 30 28 26
36 36 35 33 34 35 37 37 36 36 36 37 38 38 39 40 40 36 31 29 27 25 25 26 26 29 29 29 31 32 34 35 36 37 37 36 35 32 31 30 29 27 26
37 38 35 31 30 31 32 34 35 36 37 37 36 34 33 32 32 31 28 23 23 26 28 30 30 31 32 35 35 36 36 37 38 36 37 35 32 31 30 30 29 28 26
31 30 29 28 30 31 31 33 33 30 28 27 29 28 28 31 32 29 25 27 28 29 31 33 34 35 37 38 39 40 39 39 38 37 36 34 31 31 31 31 30 28 28
30 29 31 31 31 34 32 29 28 29 32 33 32 30 27 26 27 29 30 31 34 35 36 38 38 39 41 41 42 41 40 39 38 37 35 33 32 32 32 31 31 29 29

GFSGL_500_spd_021.txt.gz
Wind_Speed
11 11 10 10 13 14 12 12 12 10 10 10 10 12 11 10 9 7 6 4 5 7 9 12 15 17 19 22 23 23 23 23 20 22 24 26 27 30 28 30 33 41 40
12 12 11 9 12 14 11 11 12 9 10 9 10 9 10 9 9 8 6 5 6 6 7 10 12 15 18 21 24 25 27 27 27 27 28 29 31 32 33 37 36 34 31
12 14 13 10 10 12 11 11 9 6 6 8 7 8 8 9 10 10 10 9 10 8 8 11 13 14 15 18 21 23 25 28 30 31 31 31 37 32 37 33 34 38 34
12 13 12 13 12 11 10 10 10 8 6 8 8 8 9 10 10 11 12 12 10 9 10 11 11 9 6 10 15 16 20 24 24 30 36 32 26 24 25 23 20 21 22
8 9 10 12 10 9 9 9 10 10 10 9 9 9 8 9 10 11 11 10 7 8 9 10 11 12 14 15 15 18 22 24 25 23 25 25 25 25 23 23 27 26 29
11 11 11 10 8 8 8 8 11 9 9 10 9 8 8 9 9 11 12 15 16 15 14 12 12 13 12 14 15 17 20 23 24 26 27 27 26 26 27 30 31 29 29
13 14 17 16 15 12 10 10 12 12 12 12 11 10 10 11 12 13 15 17 18 19 20 22 21 19 18 19 20 21 22 23 24 25 27 28 28 28 29 30 30 28 28
14 15 17 17 16 16 13 14 16 15 14 14 15 15 16 17 19 21 22 23 23 24 25 26 26 26 26 26 25 26 27 28 28 29 29 29 29 29 29 29 29 30 32
13 13 14 16 15 15 15 17 18 18 17 17 18 21 21 22 23 24 25 27 28 28 29 29 30 31 30 30 29 29 30 33 31 30 29 29 30 29 29 29 30 29 27
14 15 15 15 16 16 17 19 19 17 18 19 21 21 22 24 26 27 28 28 31 32 31 29 32 33 34 34 33 32 33 32 31 30 29 29 27 27 25 24 24 24 25
20 19 17 18 21 22 22 23 23 21 20 21 23 24 25 27 28 29 30 30 29 29 30 32 31 33 35 36 35 33 33 31 31 29 27 26 25 24 24 24 24 25 27
21 23 20 20 21 20 20 19 18 19 21 23 24 26 28 30 31 33 34 33 34 35 37 38 35 34 35 34 33 29 30 30 30 28 26 24 23 24 24 25 27 28 30
24 20 20 21 20 18 19 20 21 22 26 28 30 31 33 34 32 34 34 34 34 35 40 42 34 35 38 38 34 32 30 28 27 26 26 24 24 25 26 28 29 30 31
18 19 19 19 20 22 26 28 28 30 31 32 33 33 34 37 36 35 35 34 34 34 39 44 38 35 33 33 33 31 30 28 28 26 26 26 27 27 29 30 31 31 32
20 19 21 23 26 29 30 32 34 36 35 37 38 39 38 36 36 36 36 37 39 39 39 39 38 35 31 31 31 30 29 29 28 27 27 28 28 30 33 34 34 34 35
24 26 29 31 34 35 35 34 36 37 39 41 42 42 40 40 38 38 39 40 40 39 39 37 34 32 31 31 31 30 30 30 29 28 28 28 33 36 32 33 35 35 36
32 32 34 35 34 33 38 39 40 41 43 43 42 41 40 40 40 40 40 39 38 38 37 34 33 31 32 31 31 31 31 30 30 27 30 35 32 30 33 37 35 35 37
34 36 36 35 36 38 40 40 41 41 39 38 37 36 36 36 36 36 37 37 36 36 36 35 34 34 33 32 32 33 30 31 31 35 35 32 32 36 34 35 35 36 38
36 36 37 38 40 40 42 40 38 37 37 37 38 38 38 36 36 36 36 36 37 36 36 36 37 37 36 36 35 33 32 32 35 33 30 31 36 35 35 35 35 37 38
38 39 41 42 42 42 40 40 40 40 40 39 39 39 40 40 38 37 37 38 39 39 39 39 38 38 36 37 38 39 39 38 33 28 28 33 34 34 35 35 36 36 36
42 43 43 41 41 41 41 39 40 40 40 40 39 40 40 39 39 39 39 39 40 40 41 42 43 39 40 41 37 32 26 26 29 31 33 33 34 35 35 36 35 34 32
43 43 43 42 42 41 40 39 38 39 40 39 38 38 38 38 39 38 38 39 40 41 40 36 32 27 25 26 27 28 31 30 31 33 34 34 35 36 36 35 34 33 31
44 43 42 43 40 39 39 38 35 34 33 34 36 37 38 38 39 39 37 35 35 37 36 33 29 28 29 30 33 30 32 34 34 35 36 37 38 38 37 35 34 32 31
41 41 38 38 36 34 32 30 31 31 34 36 37 34 32 33 35 34 33 33 31 31 32 34 32 34 36 35 35 36 38 38 39 39 39 40 40 39 38 36 34 32 32
38 35 34 34 34 33 34 35 34 37 38 36 30 29 31 30 28 28 30 31 31 32 33 33 34 37 39 41 42 42 42 43 44 43 43 41 41 40 38 36 35 34 33
33 33 33 32 33 33 35 35 35 35 31 32 33 36 37 39 39 38 38 38 37 38 39 40 42 43 43 45 46 46 47 46 46 45 44 42 40 39 38 37 37 36 35

GFSGL_500_spd_024.txt.gz
Wind_Speed
7 9 10 10 11 14 17 17 15 15 12 10 10 11 12 12 13 12 11 9 8 6 6 7 8 10 12 13 15 16 19 19 20 22 23 24 25 26 27 29 32 31 31
7 10 11 11 12 14 17 17 15 12 11 11 10 10 11 12 12 11 11 11 11 9 6 7 9 11 12 15 16 17 18 18 20 22 24 26 29 30 31 32 35 36 38
7 10 9 10 11 13 16 15 14 14 10 11 11 10 10 11 13 13 11 10 9 8 7 9 10 10 6 9 13 16 17 19 18 17 21 24 29 32 33 32 29 31 30
6 7 8 9 12 15 16 14 15 13 13 13 12 12 12 11 11 12 12 12 10 9 9 9 12 13 10 11 14 13 15 16 17 19 22 23 23 22 28 24 24 28 25
8 8 11 13 14 12 12 13 13 12 12 13 12 11 11 11 10 10 11 12 13 13 13 13 13 12 11 13 14 15 18 20 21 22 24 26 26 28 29 29 28 30 30
10 10 11 14 13 10 11 12 11 13 13 13 13 11 11 12 12 12 13 14 15 16 17 17 17 18 19 19 19 19 19 19 20 23 25 28 31 32 32 31 31 31 31
15 15 13 13 12 12 11 14 13 13 14 15 14 14 14 14 16 16 18 20 21 22 21 21 21 22 22 23 23 23 24 24 24 24 24 26 29 31 32 32 32 32 31
15 16 14 14 12 13 11 15 14 13 15 16 17 18 19 20 21 22 23 25 27 28 28 27 28 27 26 26 26 27 28 28 28 29 30 30 30 30 31 31 33 33 33
14 15 15 14 13 14 11 14 16 16 16 17 19 19 20 21 22 23 25 27 28 29 30 29 29 28 29 29 29 30 30 32 32 33 33 31 31 30 30 31 30 31 30
17 19 19 17 16 16 15 17 20 22 20 19 21 21 21 21 23 25 26 28 30 31 32 32 31 31 33 33 34 31 30 31 32 34 33 32 31 31 30 29 26 25 24
18 20 23 22 19 18 18 17 18 17 15 14 16 19 21 24 26 27 28 28 31 32 32 33 35 35 35 36 35 28 35 35 33 33 33 32 30 30 28 27 26 24 24
18 25 24 22 20 18 16 14 14 16 18 20 25 27 24 27 27 29 31 32 34 34 35 35 35 36 37 37 40 42 31 33 32 33 32 31 28 28 27 25 25 26 27
19 24 17 13 16 17 17 19 22 25 27 29 28 30 30 32 33 35 35 36 35 39 38 38 36 37 38 39 38 36 33 33 33 32 31 30 29 29 28 27 26 27 28
20 18 18 18 19 20 22 25 27 29 30 29 30 31 33 35 38 38 37 38 38 39 40 40 39 39 40 39 38 35 33 34 34 33 32 30 30 29 28 27 26 29 32
24 21 22 22 24 26 29 32 32 30 33 34 35 36 38 39 38 39 40 39 39 39 40 40 39 38 37 37 35 32 33 33 33 32 31 30 30 31 31 29 30 36 35
28 27 28 29 31 32 33 33 32 34 37 38 39 40 40 39 38 38 38 38 38 37 37 36 36 37 36 35 34 34 33 33 32 32 33 32 32 32 30 30 33 32 39
31 32 32 33 33 35 34 34 35 36 39 40 40 39 38 37 37 37 37 37 37 37 37 37 36 36 35 35 35 35 34 35 34 34 33 33 34 32 34 38 33 35 34
36 35 35 36 37 37 37 37 39 41 42 42 40 39 39 39 38 38 38 36 37 37 36 36 36 36 36 36 37 37 37 36 36 36 36 35 34 37 34 33 38 36 35
33 33 35 37 38 39 40 42 44 44 41 43 41 40 40 41 41 40 39 39 39 39 38 39 39 38 38 39 40 42 38 36 35 34 34 37 38 33 29 32 34 36 35
36 36 39 41 41 42 44 44 45 45 45 43 39 39 40 39 39 40 40 40 41 41 40 40 39 39 40 41 43 44 43 44 43 44 42 33 29 30 33 32 37 36 36
39 38 40 41 44 44 44 45 45 45 44 41 41 41 39 37 36 37 38 38 39 39 38 39 40 38 38 37 39 38 28 28 29 24 28 30 34 31 30 37 38 37 36
38 41 44 43 42 44 44 45 43 41 41 38 33 33 32 33 35 35 34 33 33 33 33 35 36 37 37 35 36 35 32 30 30 31 31 30 31 33 39 40 39 39 38
42 44 45 44 43 43 42 40 39 38 34 33 33 29 33 35 35 34 35 34 32 30 30 31 32 33 33 34 34 33 33 36 37 35 32 36 39 39 40 40 41 40 40
41 41 39 38 37 37 38 37 34 34 34 34 36 38 39 38 35 34 31 31 35 37 39 38 37 38 39 39 39 39 40 42 42 42 42 42 43 43 43 42 42 42 41
35 35 35 35 35 35 33 33 32 33 35 36 39 36 35 36 38 39 40 42 45 43 43 42 42 41 42 45 47 49 48 47 46 46 47 47 47 46 46 45 43 42 41
31 32 32 32 33 33 33 32 32 34 36 37 39 41 42 45 44 45 48 50 48 47 45 47 48 48 47 45 46 45 44 44 51 51 49 48 47 47 45 44 43 42 41

GFSGL_500_spd_027.txt.gz
Wind_Speed
7 5 5 7 9 10 11 13 15 13 11 9 9 11 10 11 12 12 12 11 10 6 5 4 5 4 4 5 7 10 13 15 16 17 20 22 25 26 25 23 24 27 29
2 4 6 6 8 9 12 13 13 13 10 10 9 9 11 12 11 10 10 9 9 9 8 7 11 5 2 4 5 8 11 15 18 18 19 22 25 27 29 28 27 26 26
1 2 5 5 6 9 11 14 12 13 12 10 10 11 10 10 10 11 12 13 12 10 11 12 13 12 9 7 7 8 9 11 13 16 19 20 19 22 23 20 23 26 24
7 7 5 5 7 10 12 12 12 11 12 12 10 10 10 9 8 8 8 8 9 9 8 7 6 6 8 9 10 11 11 11 13 14 15 18 19 20 22 24 27 29 28
8 7 7 9 9 11 12 9 11 11 11 10 10 10 9 9 9 8 7 8 10 11 12 13 13 13 13 12 12 14 16 17 17 19 20 22 24 25 27 28 28 28 29
10 10 12 12 11 10 11 10 11 11 13 13 11 9 9 10 12 13 14 15 17 19 21 21 21 20 19 19 17 17 17 18 20 22 23 24 25 28 30 33 33 33 32
9 11 11 14 12 11 12 13 11 11 13 13 13 13 12 13 14 16 19 19 21 23 24 25 26 26 25 24 24 22 21 21 21 23 25 27 28 30 31 31 31 32 34
10 11 14 14 15 13 12 13 14 13 13 14 13 13 14 15 16 18 20 20 22 22 23 25 26 28 27 27 27 26 25 24 25 26 28 29 29 30 31 31 30 31 33
15 17 16 18 17 15 13 13 14 15 17 17 16 16 16 16 16 18 20 20 23 25 26 26 28 29 30 30 31 31 31 28 29 29 29 30 31 33 31 31 31 32 30
18 20 19 22 22 20 16 16 15 13 14 13 13 12 14 20 21 20 22 25 27 28 28 29 30 30 31 32 33 33 32 31 31 31 34 32 34 33 32 32 30 28 28
17 17 18 22 23 20 18 15 13 11 11 13 16 20 23 24 24 25 27 26 27 32 32 31 33 33 33 33 34 34 34 34 35 33 32 32 33 33 32 31 29 27 27
19 16 17 23 14 13 14 13 14 15 17 20 23 25 26 28 29 29 30 31 32 32 31 32 33 35 36 37 36 37 37 37 35 33 33 33 34 35 33 30 29 28 27
21 18 19 20 15 14 15 17 19 21 24 26 26 25 28 29 31 34 36 36 37 37 36 36 36 35 35 35 36 36 35 35 34 33 33 33 34 33 33 31 30 30 29
23 24 23 22 22 20 21 22 24 26 28 28 27 30 32 34 36 37 38 40 40 39 38 36 36 35 35 34 35 35 36 35 34 34 34 34 35 34 32 31 32 31 30
27 25 28 28 26 26 27 28 30 31 32 31 32 33 35 37 39 41 41 41 40 40 40 38 36 36 35 35 35 35 34 34 34 34 35 36 36 34 34 33 32 32 32
30 25 24 24 29 31 31 31 32 33 34 33 34 36 39 41 42 41 41 41 41 40 40 38 36 36 37 37 36 34 36 36 36 37 38 38 36 36 35 34 33 33 31
27 29 30 30 32 32 32 33 35 35 35 35 37 40 42 43 42 42 42 42 42 42 40 38 38 38 38 38 38 38 38 39 39 40 40 40 39 37 34 36 37 36 35
34 36 36 34 33 32 32 33 35 39 37 38 41 43 44 43 43 42 41 41 40 39 39 40 40 39 38 37 37 37 37 37 38 39 41 39 39 39 37 33 33 37 40
34 34 33 32 32 33 34 37 35 37 40 43 44 42 43 42 40 41 40 39 38 37 37 38 39 38 37 37 37 37 37 36 35 37 40 40 38 40 42 44 41 32 32
34 34 34 34 34 36 34 35 39 41 42 42 42 42 40 39 37 34 32 33 35 35 36 37 35 33 33 33 34 34 34 33 32 31 33 31 32 28 27 25 27 29 32
38 38 38 36 36 36 38 40 40 41 39 39 38 37 37 34 33 33 33 35 36 35 33 32 31 30 30 29 30 31 32 32 31 29 28 27 25 30 31 28 27 32 31
40 40 36 38 37 38 41 41 40 41 40 37 36 36 34 33 33 34 34 35 33 31 30 32 34 35 36 35 35 35 36 37 37 35 34 34 36 35 35 33 34 36 37
40 45 42 36 39 40 40 39 38 37 36 35 34 31 30 30 32 34 34 33 32 33 36 37 40 43 45 44 45 44 43 43 42 42 42 42 41 40 41 40 40 41 41
29 29 28 31 38 36 35 35 33 32 32 33 33 33 33 33 33 34 35 36 38 40 41 42 44 42 41 44 48 48 47 47 47 46 46 45 44 43 42 42 42 43 43
22 27 29 29 30 31 31 30 31 32 31 33 33 35 37 39 39 39 40 42 43 47 49 50 50 50 48 47 46 43 41 44 47 48 46 44 44 45 44 43 43 43 42
24 25 25 27 30 29 29 30 32 31 32 35 37 39 38 38 40 42 45 47 48 47 45 45 45 44 44 45 47 46 44 43 42 42 42 44 46 44 44 44 42 43 43

GFSGL_500_spd_030.txt.gz
Wind_Speed
9 4 2 4 5 8 6 6 7 7 8 8 7 7 8 9 10 8 9 10 11 9 9 7 5 1 3 4 6 9 10 12 15 16 19 21 21 21 23 24 23 23 24
10 2 2 4 5 5 5 5 8 8 7 7 9 8 8 7 8 10 12 11 9 7 7 8 12 9 5 2 3 5 9 13 15 17 18 20 22 23 19 18 21 17 17
4 3 4 4 4 6 6 6 7 7 8 8 7 7 6 5 6 7 8 9 9 9 9 9 8 8 7 8 9 10 12 11 12 13 14 16 18 20 20 19 18 19 21
4 4 4 7 7 6 6 6 7 8 8 9 8 7 4 4 3 3 3 3 3 4 6 7 8 9 10 12 12 13 14 15 16 16 17 18 19 20 21 22 22 24 24
6 6 8 7 8 7 7 8 6 8 8 9 8 8 6 4 3 4 5 6 8 9 11 12 12 13 13 14 15 16 16 18 20 22 23 24 25 26 28 29 31 34 36
4 7 7 6 9 12 9 8 9 8 7 10 10 9 9 9 9 10 12 13 15 16 16 17 16 16 15 15 14 14 16 18 20 23 24 25 25 27 29 29 33 35 36
3 1 0 5 9 11 13 12 11 10 9 9 10 9 9 10 11 12 14 16 16 16 16 17 17 18 19 20 21 20 21 21 22 23 23 25 27 29 30 32 34 34 34
5 6 4 7 10 11 11 11 11 12 11 11 11 10 10 11 10 10 12 13 15 18 20 22 22 23 24 24 24 24 24 25 25 26 26 26 29 29 31 32 34 35 36
11 13 13 13 12 12 12 12 13 12 11 10 7 6 5 8 12 14 17 19 21 22 23 25 28 28 28 28 27 27 27 28 28 29 30 31 32 33 35 36 35 35 35
12 15 16 16 15 21 16 15 13 10 8 7 5 8 12 16 19 21 24 26 25 25 26 27 30 31 31 31 30 31 31 30 31 32 33 33 34 34 35 35 35 35 34
15 16 16 17 19 16 11 12 13 12 12 13 17 20 21 22 21 22 22 25 27 29 30 30 32 34 35 36 35 34 34 33 32 33 35 35 35 34 35 35 34 32 31
19 20 19 17 20 18 15 13 14 15 17 20 22 24 24 24 23 23 25 28 30 31 33 36 37 36 34 34 34 34 33 32 33 35 36 36 36 36 36 34 33 31 31
19 20 22 21 22 23 21 21 20 21 22 23 24 26 27 28 29 29 31 32 35 36 37 37 37 39 39 39 37 36 34 34 35 36 36 37 36 36 36 35 34 33 33
21 23 22 24 25 28 28 28 25 26 28 28 28 30 31 31 32 34 35 39 41 41 40 41 40 41 42 41 38 38 37 37 38 39 39 38 38 38 37 37 36 35 35
23 26 28 28 27 27 26 31 32 33 33 33 33 33 34 34 34 36 40 42 42 42 43 42 40 41 42 39 39 40 40 39 39 39 39 38 38 39 39 38 38 37 37
28 29 28 24 27 28 29 30 33 35 35 35 34 34 36 35 37 40 41 43 43 42 41 40 41 41 39 38 39 40 41 42 40 39 39 39 39 39 40 40 41 40 37
31 31 31 32 32 33 32 32 31 31 32 33 35 37 36 37 40 42 42 43 42 41 41 42 42 41 40 41 39 39 39 39 38 39 39 39 40 40 41 42 40 41 38
35 35 34 34 35 34 33 32 31 32 34 36 35 35 39 41 42 42 42 42 41 41 39 37 36 36 36 37 36 36 35 35 35 35 34 35 32 33 34 36 36 36 36
37 36 35 33 33 33 33 34 36 38 37 35 37 39 41 40 41 40 38 37 36 34 34 34 35 36 35 34 34 33 33 32 31 31 30 31 30 30 29 28 29 38 40
37 37 35 33 34 33 34 36 36 39 38 40 40 40 41 40 38 36 36 34 33 33 34 35 35 34 32 32 32 33 33 33 32 34 35 34 33 31 30 30 28 31 33
37 36 34 36 37 37 38 35 36 38 40 41 41 40 38 38 35 33 33 32 33 34 35 36 36 35 36 36 37 38 39 40 41 40 39 39 39 36 35 36 38 36 34
37 35 34 36 42 44 39 39 38 38 37 38 37 37 35 33 33 30 30 31 33 35 37 38 40 43 45 46 46 44 44 44 45 45 45 45 45 44 43 42 41 42 41
23 29 31 31 39 36 32 31 33 33 34 33 33 31 30 30 30 32 32 34 36 36 36 38 40 43 44 45 47 48 48 48 47 47 47 47 46 44 43 43 44 44 43
33 33 33 29 27 29 32 32 31 33 35 34 33 31 32 33 34 36 38 37 35 37 40 43 44 44 43 43 42 41 41 41 43 45 47 47 48 47 44 42 41 40 40
31 33 28 26 33 31 29 29 28 32 32 30 30 33 35 37 38 38 38 39 41 42 43 41 40 39 38 40 42 44 43 45 43 41 41 41 42 45 46 44 43 41 41
27 26 26 28 29 27 28 31 33 33 31 32 33 34 36 36 36 38 39 39 39 38 39 40 40 40 40 41 41 42 43 43 44 44 42 41 41 40 40 40 39 40 41

GFSGL_500_spd_033.txt.gz
Wind_Speed
22 9 4 3 5 1 2 2 2 2 2 3 5 5 6 6 5 5 6 8 8 9 10 10 8 5 4 4 4 5 7 8 9 13 15 17 17 18 19 19 20 23 19
12 7 4 4 1 3 4 4 0 1 2 2 3 5 5 4 4 8 9 9 9 10 12 12 12 11 10 9 8 8 9 10 10 12 14 15 16 17 19 20 20 19 18
10 8 5 3 2 4 5 4 2 2 3 4 4 4 4 1 0 3 3 2 3 4 6 6 6 7 8 9 9 9 11 12 12 12 13 14 15 17 17 17 18 20 20
5 2 2 2 4 2 7 7 3 3 3 5 4 4 4 3 3 4 4 4 6 7 8 9 11 12 12 13 15 15 15 16 17 17 19 21 22 22 22 23 24 27 27
7 6 4 1 2 2 4 7 7 6 6 6 6 7 6 5 6 7 6 7 9 11 12 14 16 16 16 15 14 14 14 15 19 21 24 26 28 30 31 31 32 33 33
5 6 8 1 2 6 4 6 8 8 9 8 8 7 8 7 7 10 10 11 11 12 13 13 13 14 14 14 16 19 20 21 22 24 26 28 29 32 34 35 36 37 38
10 11 12 3 4 8 8 6 8 8 7 10 12 10 9 8 9 9 8 7 8 8 10 13 16 17 18 20 21 22 23 24 26 26 28 29 30 33 34 36 37 38 39
17 8 6 4 7 10 10 10 10 10 9 9 12 12 12 10 7 7 8 9 11 14 17 19 20 21 22 22 24 25 26 28 29 31 33 33 33 33 35 36 38 39 40
12 3 7 7 11 13 15 8 10 11 10 7 6 5 6 7 11 15 15 16 18 19 18 20 22 24 24 24 26 27 29 30 31 33 33 34 34 35 36 38 39 41 42
6 9 10 10 12 11 12 9 7 10 11 8 7 10 14 17 19 20 19 18 17 20 23 24 25 27 29 29 30 31 32 32 33 34 34 36 35 35 37 38 39 40 41
7 6 12 10 12 15 13 13 12 12 13 14 15 15 17 19 20 20 22 23 24 23 24 27 29 31 33 34 34 35 35 34 33 34 34 35 36 37 38 40 40 40 39
12 10 13 14 14 17 21 19 18 17 17 18 20 21 21 21 23 24 27 29 29 29 30 32 33 35 36 39 40 40 40 40 38 36 36 36 37 38 39 39 39 38 37
13 14 14 15 16 16 20 23 27 27 24 23 24 26 28 29 29 29 30 31 32 33 34 36 38 42 44 44 43 41 41 42 40 39 39 40 40 40 40 39 38 38 37
17 16 17 20 20 21 25 26 25 28 31 30 31 31 32 34 34 34 33 34 34 37 39 41 43 46 45 42 42 43 43 40 39 40 40 40 41 41 40 39 38 37 37
22 21 21 22 23 25 26 26 27 28 30 31 32 33 34 34 33 34 35 36 38 41 42 44 46 44 42 43 43 41 41 41 41 39 38 38 38 38 40 40 40 41 41
27 27 26 26 25 26 27 29 30 32 33 33 33 33 34 35 37 37 37 39 41 43 43 45 44 43 42 39 38 38 38 38 39 39 38 38 38 38 38 39 40 40 39
29 30 29 30 29 30 31 32 34 34 32 31 31 33 35 37 35 36 39 41 42 43 43 42 41 39 38 37 37 38 37 37 36 36 35 35 35 36 35 35 35 35 35
34 32 32 32 34 33 33 33 33 33 33 33 35 37 37 36 38 40 43 43 43 42 40 40 39 37 36 37 38 38 37 36 34 33 33 33 32 31 32 33 33 34 34
35 34 35 37 36 35 34 33 33 35 35 37 39 38 38 40 41 43 42 41 40 40 40 39 39 38 38 38 38 37 36 35 36 36 37 37 39 40 41 40 39 37 35
35 35 35 35 35 34 35 35 35 36 38 39 38 38 41 44 43 40 38 38 38 39 39 38 37 37 37 37 38 39 40 42 44 45 45 44 44 44 44 44 44 43 42
37 32 33 34 33 33 32 34 36 38 42 42 40 41 42 39 36 36 37 37 37 37 37 37 37 39 41 41 42 43 44 47 48 47 46 46 47 46 46 44 44 45 44
35 32 30 30 31 32 34 35 39 37 39 37 37 38 36 36 36 36 36 37 37 37 39 40 40 41 42 43 45 46 46 46 45 44 44 44 44 43 43 44 44 45 45
32 32 27 29 35 33 35 34 34 33 31 35 36 33 34 35 35 34 34 35 36 39 40 40 40 40 40 39 39 39 39 40 41 43 43 43 44 44 43 43 43 43 43
33 31 30 33 32 33 33 35 34 32 33 31 32 33 33 34 34 34 35 37 37 37 38 38 36 37 39 40 40 40 40 40 40 41 41 40 39 40 41 42 43 43 42
29 31 31 30 30 30 29 29 29 29 29 32 35 34 35 37 38 35 34 36 37 35 34 35 38 41 41 40 41 41 40 40 41 42 42 42 42 41 40 40 40 41 41
25 26 28 30 30 28 28 27 28 32 35 34 33 35 35 34 34 36 36 34 34 36 38 40 41 41 41 41 40 40 40 41 42 43 43 43 43 43 43 42 42 40 39

GFSGL_500_spd_036.txt.gz
Wind_Speed
16 14 10 6 4 4 5 5 3 3 3 2 1 2 4 5 3 2 2 5 8 13 15 15 13 11 9 8 5 4 3 4 6 8 8 10 12 15 18 21 21 20 21
10 12 6 3 5 5 4 3 3 2 3 3 4 3 2 1 1 5 6 6 5 5 7 7 8 8 8 7 6 6 7 5 4 6 7 9 12 14 16 18 19 21 22
9 4 2 1 3 3 2 1 3 3 4 4 3 3 2 2 3 3 3 2 2 4 5 7 9 10 10 10 10 10 11 12 12 12 13 13 15 18 20 21 21 22 24
4 4 3 1 2 4 2 2 5 5 4 5 5 3 4 4 4 6 6 6 7 9 10 11 13 14 14 14 13 12 13 13 14 16 17 19 21 23 25 26 28 29 30
5 4 4 3 5 7 4 3 4 6 7 7 7 6 5 7 7 8 9 10 11 13 15 15 15 14 12 12 13 13 15 17 19 21 23 24 26 28 30 32 33 35 36
5 9 8 5 7 7 4 4 5 4 8 10 9 9 8 8 8 10 12 13 13 12 11 11 11 13 15 15 15 17 18 21 22 23 25 28 30 32 34 35 37 39 41
5 9 8 10 13 12 9 8 3 3 5 7 8 10 10 9 9 10 9 9 9 9 10 12 16 17 17 18 19 19 20 22 24 26 28 30 32 34 37 39 41 42 43
9 10 14 15 8 9 6 9 2 4 6 8 9 7 7 7 6 7 9 10 11 14 17 18 17 17 19 21 20 22 25 26 28 30 31 32 33 35 37 39 41 43 43
15 6 2 3 6 12 10 8 4 5 7 8 7 5 4 6 8 12 15 16 16 16 16 18 20 20 21 23 25 27 28 30 32 33 35 35 35 36 37 38 39 40 41
11 6 1 3 5 8 10 8 8 7 7 10 11 13 14 15 16 15 15 17 17 20 23 23 24 25 27 28 28 30 33 35 36 37 38 38 37 37 38 39 39 40 40
2 3 4 4 5 8 14 12 9 11 11 12 14 17 18 20 20 21 20 21 22 23 25 27 29 28 30 31 32 36 38 40 40 40 40 41 40 39 38 38 39 40 40
5 6 7 11 13 12 15 11 12 14 15 17 19 20 22 22 24 25 27 29 28 28 28 29 32 33 36 37 37 40 42 40 39 41 42 43 42 40 41 40 39 40 40
9 14 15 18 14 16 17 15 18 20 20 18 20 21 23 26 27 29 30 32 33 32 33 34 34 35 36 38 40 42 43 42 41 41 41 39 39 40 40 40 39 39 40
12 14 16 15 17 20 19 20 22 20 21 21 23 24 26 27 29 31 32 33 35 36 36 37 37 38 39 41 42 42 43 41 39 38 37 37 38 38 39 39 38 37 36
15 18 21 21 22 23 24 24 24 24 24 25 27 28 29 30 30 30 32 35 37 37 37 38 39 41 42 43 42 41 40 39 37 37 36 35 35 36 36 35 35 34 34
21 22 24 25 26 27 29 28 28 28 28 31 31 31 30 30 31 33 36 37 37 39 41 43 44 44 43 40 40 39 38 37 38 38 37 36 35 34 34 33 34 34 33
26 27 28 28 29 30 32 32 32 31 31 32 32 32 32 32 34 37 38 37 39 42 43 44 44 41 39 38 38 37 37 38 38 38 38 37 37 38 38 38 38 37 38
30 31 30 31 33 35 36 36 36 36 37 35 34 34 34 36 38 40 39 40 43 44 44 41 39 38 36 36 36 37 37 37 38 39 40 41 42 43 44 45 44 44 44
30 31 31 33 35 36 36 37 37 37 36 36 37 38 39 39 39 40 41 44 44 41 39 36 35 35 36 37 37 38 39 40 42 43 44 45 46 46 46 46 46 46 46
31 33 35 36 38 38 39 39 37 37 38 37 38 38 37 39 44 42 42 41 37 35 35 35 35 35 36 38 40 41 41 42 44 45 45 44 43 42 41 41 42 43 43
34 36 36 36 36 38 38 37 37 38 39 37 38 42 41 39 37 36 35 35 35 35 35 35 36 38 40 41 41 41 42 41 40 40 42 42 42 42 42 42 41 40 39
36 32 30 31 33 33 31 32 34 33 37 37 37 38 40 37 35 36 35 35 34 35 37 39 41 41 39 40 40 38 39 42 42 41 41 42 41 41 41 41 41 40 39
34 31 31 34 36 35 35 33 35 38 41 40 39 36 35 34 34 35 35 34 36 38 39 37 37 38 38 37 37 39 41 41 41 41 41 39 40 41 41 41 42 41 41
35 34 35 34 34 32 33 36 39 41 38 34 32 32 31 32 34 35 35 36 37 36 36 37 35 36 38 39 40 41 41 40 39 38 38 39 40 41 42 42 42 42 41
35 35 34 32 31 33 35 34 34 33 33 32 31 30 32 33 33 35 34 33 35 34 34 35 37 38 39 40 41 39 36 37 38 38 38 39 40 41 42 42 42 42 42
35 32 33 31 32 31 33 33 33 32 30 29 29 31 32 31 28 30 32 32 32 34 36 38 39 39 40 40 38 35 36 37 38 38 39 40 41 42 42 42 41 42 42

GFSGL_500_spd_039.txt.gz
Wind_Speed
5 8 9 4 3 4 5 5 6 6 4 4 3 4 4 3 2 3 3 4 8 9 10 10 9 9 9 7 3 2 2 3 3 2 9 7 10 13 17 19 21 23 24
2 11 8 2 3 3 6 7 9 7 6 6 6 6 6 5 3 5 6 6 3 1 2 3 5 6 7 7 6 6 6 6 6 6 9 13 11 13 16 17 19 21 23
8 5 5 3 5 4 5 7 10 7 7 7 6 5 6 6 6 7 6 5 5 5 6 6 8 10 12 12 12 11 12 12 11 12 12 14 16 18 20 21 23 25 26
2 2 2 6 6 4 6 8 10 10 9 7 6 6 6 7 7 9 9 9 9 9 11 12 14 15 14 13 11 12 13 14 15 17 18 19 21 23 24 25 27 29 30
6 3 4 8 8 7 7 10 11 10 9 8 7 6 6 8 9 10 12 12 12 13 15 16 16 13 11 12 14 14 14 15 17 18 19 21 23 25 28 30 33 35 37
7 7 8 9 9 9 9 9 11 9 8 8 8 7 7 9 11 11 13 15 15 15 15 14 12 13 16 17 18 18 19 19 19 20 21 24 26 28 30 33 35 38 40
13 11 10 11 12 12 13 14 13 9 6 7 7 6 7 10 11 12 12 12 12 13 13 15 17 20 19 18 17 19 20 20 22 25 25 27 28 30 33 35 37 39 41
18 17 12 9 12 7 8 10 15 7 5 6 5 6 5 6 7 8 9 11 14 15 17 19 19 18 19 20 21 22 23 25 26 27 30 32 34 36 36 37 38 39 41
15 23 17 10 9 5 2 3 5 2 9 9 6 7 6 7 8 10 12 13 14 14 16 17 20 22 23 24 25 26 27 27 28 32 35 37 37 38 39 41 41 41 42
7 18 22 10 5 5 6 5 2 6 9 11 11 12 13 14 15 14 14 14 15 17 20 22 24 25 27 28 29 30 31 34 37 37 39 40 40 41 42 42 42 42 42
4 3 5 6 8 10 8 7 8 12 14 13 14 15 16 16 17 18 18 20 20 21 24 25 27 28 29 31 33 34 36 37 38 40 41 41 42 42 42 41 40 40 40
9 8 8 8 7 9 14 9 13 17 19 20 20 21 21 22 23 23 24 24 24 25 26 27 28 29 31 33 34 34 37 38 39 41 42 42 41 40 40 39 39 39 40
12 11 11 11 14 13 12 12 15 18 21 22 24 24 23 24 23 24 26 26 26 27 28 29 31 32 34 34 36 39 40 41 40 39 39 38 38 38 39 39 37 37 37
13 13 13 13 12 12 16 17 17 20 21 22 22 22 23 25 28 29 29 29 30 31 33 34 33 34 36 39 40 41 40 40 39 38 37 36 36 37 36 36 36 35 34
17 15 17 17 18 20 22 22 22 24 26 28 28 29 28 29 30 32 31 33 34 35 36 36 36 36 38 40 42 41 38 36 34 34 35 36 36 35 35 35 36 37 38
21 20 20 20 22 23 25 26 28 29 30 31 31 32 32 33 34 35 34 35 38 38 38 38 39 41 41 40 38 35 34 35 35 35 36 36 36 36 37 38 40 41 42
24 23 22 23 26 27 28 29 30 32 33 33 34 34 34 34 35 37 38 39 40 40 39 39 41 41 37 35 35 35 35 35 35 36 37 39 40 42 43 44 45 46 45
29 28 27 27 28 30 31 32 33 33 33 34 36 37 36 35 36 37 39 40 40 39 41 39 36 34 35 34 35 35 36 37 38 40 42 42 42 43 43 44 43 42 42
32 30 29 30 30 31 34 36 36 36 36 37 37 36 36 38 39 40 42 40 40 37 34 34 34 35 35 36 37 37 39 40 41 40 39 40 40 41 42 42 42 41 40
32 29 28 31 34 36 36 39 40 38 36 36 37 37 37 36 36 38 39 37 37 34 32 33 33 36 37 37 38 39 38 37 38 38 38 39 41 41 40 40 40 39 40
34 36 37 38 39 39 38 36 33 33 35 36 35 37 33 37 39 40 39 36 33 32 32 33 35 36 37 38 37 37 38 37 37 39 41 42 42 40 38 37 37 38 39
42 42 44 44 43 41 38 32 32 34 36 37 38 35 37 39 40 38 34 33 31 32 33 34 35 35 35 37 37 36 38 40 40 41 41 39 36 36 37 37 38 39 39
44 45 45 44 41 38 33 33 35 37 36 35 36 37 39 36 34 34 32 33 34 33 34 34 33 35 36 36 38 39 40 40 40 41 37 35 36 36 37 38 39 39 40
43 42 40 40 36 34 33 34 36 35 33 36 37 34 34 34 32 31 31 32 32 30 30 33 33 34 36 38 39 39 40 41 40 35 35 36 36 37 37 38 39 40 40
37 34 36 37 38 35 33 33 33 35 36 33 34 35 35 33 31 30 30 29 29 31 31 33 35 36 38 39 39 40 40 38 35 35 36 36 36 38 39 40 40 41 41
36 35 33 34 30 31 33 34 35 36 31 32 34 33 31 30 30 29 29 31 31 32 35 36 37 38 38 38 38 37 36 36 36 36 36 37 39 41 42 43 42 42 42

GFSGL_500_spd_042.txt.gz
Wind_Speed
9 11 9 8 4 4 4 6 6 5 5 6 7 5 6 5 3 3 5 6 5 6 6 8 8 8 8 8 8 7 7 6 7 8 8 10 10 10 13 15 18 20 21
4 9 8 8 5 3 3 2 5 6 6 5 7 8 8 7 4 5 7 8 5 2 2 4 7 8 9 11 11 11 11 11 11 12 12 13 12 16 15 16 18 21 22
6 9 8 7 5 4 2 2 7 8 8 8 7 7 7 7 7 7 7 8 8 8 7 8 9 11 12 13 13 13 12 12 12 12 12 14 15 16 18 20 22 23 25
3 6 6 4 4 3 2 3 6 8 10 10 9 8 8 8 8 10 10 12 12 13 13 14 15 16 16 15 12 12 13 13 13 15 16 17 18 18 20 21 24 26 28
7 6 4 5 6 5 4 4 7 9 10 12 12 10 9 9 10 10 11 12 14 15 16 17 17 16 14 12 15 16 17 17 18 17 17 18 19 21 23 24 26 28 31
11 9 10 8 7 8 9 7 4 8 11 12 13 11 11 12 12 12 12 13 14 14 14 14 13 12 13 17 18 17 16 17 17 17 19 22 23 25 27 29 32 34 35
12 13 10 9 10 11 13 15 11 9 11 11 10 9 11 13 13 14 13 13 13 13 13 14 15 16 17 16 17 18 20 21 22 23 24 25 27 29 32 34 35 37 39
23 21 15 11 12 11 13 13 12 11 12 9 5 6 7 9 10 11 12 13 14 15 17 18 17 17 17 18 19 21 23 25 26 27 28 30 33 35 37 38 39 40 41
17 15 18 18 15 13 13 7 6 10 13 6 7 8 9 10 12 13 15 17 17 17 17 17 18 19 20 21 23 25 26 28 30 33 35 37 38 38 39 41 42 43 43
14 15 22 21 19 17 14 9 7 6 7 11 11 12 14 14 15 18 18 19 19 20 21 22 24 24 25 26 27 29 31 32 34 34 35 36 38 39 41 42 43 43 43
20 11 8 21 20 12 10 8 11 11 13 13 15 16 17 18 19 21 23 24 24 26 27 28 28 28 28 30 32 32 34 35 35 36 38 40 42 43 43 42 40 40 41
8 6 4 5 8 10 11 13 16 15 14 15 15 16 20 23 23 23 24 25 26 27 28 27 27 29 31 32 34 35 35 36 38 40 41 42 43 43 41 40 40 40 40
8 13 15 11 13 16 15 17 14 15 17 18 19 21 20 19 23 25 26 28 29 30 29 28 30 31 34 35 35 36 38 40 41 43 43 43 41 40 39 38 38 39 38
13 15 15 16 15 18 18 13 16 17 19 21 22 22 23 24 27 29 31 32 33 33 32 32 34 36 36 38 38 39 40 42 43 42 40 39 38 37 37 37 37 38 39
18 20 21 21 22 23 22 22 22 23 24 26 27 27 27 29 30 31 32 34 34 34 35 36 38 40 39 39 40 42 43 42 39 38 36 36 36 36 36 38 39 40 43
22 22 22 24 24 25 25 27 28 29 29 31 29 30 30 32 33 34 35 35 35 36 36 38 40 41 41 40 41 40 38 37 37 36 36 36 36 38 39 41 41 42 42
24 25 25 25 26 28 29 31 31 32 32 33 32 33 33 34 35 37 36 35 35 37 38 39 39 40 40 38 36 36 35 34 34 35 36 37 38 39 39 39 39 40 41
28 28 29 30 31 32 34 34 33 33 33 33 34 35 37 37 37 36 35 35 35 36 39 39 37 35 34 35 34 33 35 35 36 37 37 37 37 37 37 39 41 42 42
32 33 33 34 35 35 35 34 34 35 36 36 39 41 41 40 38 36 35 34 33 36 37 35 34 33 34 33 32 34 36 36 36 35 36 36 35 37 39 40 41 39 36
34 34 34 34 36 37 37 35 35 37 38 40 42 42 38 37 36 35 35 35 37 36 35 34 34 33 31 33 35 35 34 33 34 35 34 36 37 38 39 38 34 34 36
40 40 39 39 39 39 41 44 44 42 41 42 42 37 34 36 36 35 33 35 36 34 33 33 31 32 34 34 33 32 34 35 35 36 37 38 38 38 36 32 35 34 35
45 45 46 46 45 45 46 46 46 44 41 41 36 35 35 35 34 35 35 34 32 32 31 31 33 33 32 30 31 33 35 36 38 38 38 38 37 34 32 35 34 34 35
48 47 47 47 47 46 46 44 41 41 40 34 32 34 35 34 33 32 31 32 31 31 30 31 31 29 30 32 34 36 37 38 39 38 38 37 35 34 36 35 34 35 36
48 47 46 45 45 43 42 37 37 36 36 35 34 35 33 33 31 31 30 29 29 30 30 28 29 30 32 35 36 37 39 38 38 36 35 36 36 36 35 35 37 38 40
44 44 41 40 38 32 33 34 39 41 38 36 34 34 34 29 29 28 28 28 29 28 29 29 30 33 35 37 38 38 38 38 35 35 37 36 35 36 37 38 39 41 41
38 38 36 34 33 34 39 36 37 36 32 32 34 34 30 28 27 27 29 29 28 30 31 32 34 35 37 38 38 37 37 36 34 36 37 37 38 39 41 42 42 43 43

GFSGL_500_spd_045.txt.gz
Wind_Speed
22 22 11 13 11 10 9 8 6 3 3 0 1 4 5 7 6 4 6 7 5 3 3 4 5 6 8 9 9 8 8 9 9 10 10 11 13 11 11 12 12 15 16
18 25 9 11 12 10 9 6 6 6 3 2 2 5 7 8 7 6 8 10 9 6 6 6 8 9 10 11 13 13 12 11 12 12 11 11 12 13 13 15 16 18 19
11 5 2 7 6 6 6 5 4 5 4 3 5 5 6 7 8 8 8 8 11 11 12 12 13 14 16 16 15 13 12 12 13 12 13 14 14 15 16 17 18 19 21
10 4 5 9 8 7 6 5 4 3 4 6 6 7 6 6 7 8 9 11 14 15 15 16 17 18 17 15 12 11 13 15 16 16 17 18 18 17 17 19 21 22 24
14 12 10 10 10 9 8 6 5 7 5 6 8 8 8 8 8 8 9 11 14 15 16 17 17 16 14 13 13 16 17 17 17 17 17 18 19 20 23 24 25 27 29
14 18 17 14 14 12 10 9 7 7 8 8 8 9 10 10 10 11 11 11 12 13 14 14 14 14 15 15 18 19 18 17 18 19 21 23 24 25 26 28 30 32 34
21 22 20 17 14 14 13 12 12 13 11 10 9 9 9 10 12 13 13 12 11 12 13 14 15 16 18 18 19 19 20 22 22 23 25 26 27 29 31 34 37 39 40
28 23 20 18 15 14 13 13 14 14 14 12 11 9 8 8 8 10 10 11 11 13 14 16 17 18 18 18 19 20 22 24 27 27 29 30 32 34 36 38 40 41 42
18 15 24 19 17 17 16 17 16 11 12 14 11 10 10 12 13 13 14 16 16 17 18 19 20 21 22 24 26 27 29 28 30 31 33 34 35 37 38 40 41 43 44
14 14 18 16 20 22 17 17 14 9 9 14 15 16 16 16 17 18 19 20 20 20 22 23 24 27 29 31 32 31 30 31 33 35 36 37 38 39 41 43 44 45 46
10 17 16 17 18 22 21 23 16 13 13 13 16 18 19 19 19 22 23 24 24 24 25 27 27 30 31 32 32 34 35 35 37 38 38 39 41 41 43 44 43 41 42
11 13 17 10 5 21 15 12 13 15 16 16 18 18 19 20 20 20 22 24 25 26 27 29 30 32 35 34 35 37 38 39 40 40 41 41 41 42 40 40 40 39 40
13 10 12 12 8 8 11 14 16 18 18 18 20 20 21 22 21 22 24 25 27 28 29 30 32 33 35 37 38 40 42 42 42 43 43 42 41 41 40 38 37 38 38
14 15 9 6 11 15 16 15 18 22 18 19 22 24 25 25 26 27 28 28 30 31 33 33 36 36 37 38 40 43 44 44 44 43 43 41 40 38 37 37 38 40 41
17 16 15 14 16 18 19 20 22 22 23 26 27 27 28 28 29 31 31 32 33 35 35 36 38 39 39 40 42 43 42 41 41 40 38 37 36 36 38 39 40 41 40
19 20 21 20 21 22 24 25 27 28 28 30 30 31 32 32 33 34 34 35 36 38 40 38 40 39 39 40 41 38 37 36 37 37 35 36 37 38 39 39 38 38 39
22 22 22 23 24 25 26 28 29 31 33 34 34 35 35 35 35 37 37 39 40 40 39 39 38 38 38 39 38 37 36 35 35 35 36 37 37 37 36 37 38 38 40
29 30 29 26 28 29 30 31 31 33 34 35 35 36 36 36 38 39 39 41 40 39 38 37 37 39 38 37 36 35 35 34 34 36 37 37 35 36 37 37 38 39 39
32 30 30 31 32 33 34 35 36 36 37 36 37 36 37 38 40 41 40 39 38 36 38 39 38 37 37 35 35 34 34 35 36 36 35 35 36 36 37 38 38 37 34
35 34 35 35 36 37 38 37 37 36 37 38 39 40 43 42 42 41 40 37 38 40 39 38 37 36 35 35 33 34 35 35 34 33 34 35 36 37 37 37 35 33 32
39 43 43 46 44 43 43 42 42 41 42 42 45 45 45 43 41 38 37 38 38 37 37 36 34 34 35 33 34 35 35 33 33 34 35 37 38 37 35 33 33 32 34
45 46 46 47 46 44 45 44 45 45 45 45 45 43 42 39 39 37 37 37 36 36 34 34 34 33 32 33 34 32 32 33 35 35 37 39 38 36 33 34 35 34 34
49 49 49 50 49 47 45 46 45 44 43 43 43 37 36 37 37 37 38 39 35 32 33 33 32 32 34 33 33 33 35 36 36 37 39 39 37 33 35 35 34 34 35
50 49 48 47 46 44 44 41 39 37 39 39 39 36 34 37 38 39 38 36 35 32 30 30 32 34 32 33 33 34 37 37 39 39 38 38 36 35 35 35 36 36 37
48 47 46 43 37 33 31 32 43 41 37 41 41 37 37 35 36 37 35 33 32 29 30 32 31 31 33 34 34 36 37 38 40 40 39 38 35 37 37 37 38 38 40
42 44 40 38 33 38 42 40 42 37 35 39 40 41 41 35 36 36 35 33 30 30 32 31 31 32 34 35 36 39 39 40 40 40 40 39 37 37 37 38 39 40 41

GFSGL_500_spd_048.txt.gz
Wind_Speed
17 14 9 2 4 6 8 5 3 4 5 5 4 4 4 2 2 3 5 8 8 5 3 2 4 7 9 12 14 13 11 9 9 10 12 11 10 11 11 10 7 6 9
18 12 7 2 3 5 8 7 7 7 5 5 6 5 4 3 3 4 5 11 10 8 5 6 7 10 10 12 14 14 12 10 10 10 10 10 11 13 15 14 14 14 15
18 16 2 3 3 8 7 8 7 7 9 9 6 4 4 4 5 4 5 6 10 11 10 11 12 13 14 14 14 12 10 10 12 14 15 16 16 17 16 16 17 18 19
21 17 10 5 6 8 6 7 8 9 11 13 10 6 5 5 6 4 5 7 9 11 13 15 15 16 16 15 13 11 12 13 14 15 15 16 17 18 18 19 21 22 24
18 20 13 12 13 9 8 8 10 11 12 10 10 9 8 7 7 6 6 7 9 11 13 14 15 15 14 13 13 15 15 16 16 16 16 17 19 21 23 24 25 26 28
19 19 15 18 17 15 14 12 14 12 9 10 10 9 10 9 9 9 10 11 11 12 13 12 12 14 14 15 16 17 17 18 18 19 20 21 23 24 26 28 30 32 34
21 17 23 24 23 18 19 14 15 14 14 15 13 11 9 8 10 11 12 13 13 12 12 12 13 15 17 18 19 19 19 20 21 23 24 26 28 30 31 32 34 36 37
28 25 22 22 22 21 17 17 16 14 16 14 15 12 10 8 8 10 11 11 11 12 13 15 16 18 19 19 20 23 24 27 29 30 30 31 32 34 35 37 38 39 39
31 28 21 18 24 24 18 18 17 19 15 12 13 12 12 11 11 12 14 14 15 18 19 20 20 21 22 24 26 28 30 32 33 32 32 33 34 36 36 37 39 41 40
32 29 22 12 23 23 25 22 19 17 15 11 11 13 14 15 15 16 16 17 17 19 21 24 24 25 25 26 27 28 30 31 33 33 35 36 37 38 39 39 39 41 41
27 24 13 19 14 18 15 23 17 19 20 14 15 14 15 15 15 17 17 19 21 23 23 24 25 25 26 28 29 30 32 34 34 36 38 39 39 39 41 41 41 42 42
28 25 23 17 18 15 19 22 21 17 19 16 18 18 16 16 16 18 21 22 22 21 23 25 28 28 30 31 34 35 37 38 39 39 39 38 39 39 38 40 39 39 38
27 29 27 18 17 14 13 17 18 16 13 13 17 21 15 16 18 20 22 23 25 28 29 30 30 32 33 35 36 38 40 40 39 39 41 40 39 39 38 37 36 36 37
30 29 25 16 12 12 10 11 11 14 13 11 19 21 18 21 24 25 26 27 28 30 33 34 34 34 35 37 38 39 40 39 41 41 40 37 36 37 37 36 36 37 38
25 26 26 14 16 15 18 18 19 16 15 17 19 22 23 26 27 29 29 29 31 33 33 34 36 37 38 38 38 38 37 40 40 38 38 37 36 35 35 36 37 38 38
24 21 24 22 20 19 20 23 22 23 23 22 23 24 26 28 28 30 31 32 33 34 36 36 39 39 38 36 34 36 39 39 36 36 36 36 34 34 36 37 38 38 39
27 25 25 23 22 22 22 22 23 25 27 28 29 29 31 32 31 32 33 33 34 35 37 39 37 36 36 37 39 42 36 36 35 36 35 33 35 36 38 37 38 39 39
31 30 27 26 28 30 29 28 29 31 31 33 33 34 35 35 35 35 35 35 37 40 39 39 38 36 37 39 40 38 36 36 36 35 34 35 35 36 36 38 39 39 40
30 29 30 31 31 30 30 31 32 32 33 33 33 34 34 34 35 36 38 42 42 41 41 40 39 37 39 39 37 38 37 36 34 33 35 35 36 36 38 38 39 40 38
33 34 34 33 34 35 36 38 39 40 40 37 36 38 37 38 39 42 44 44 43 42 41 41 40 39 40 38 36 35 36 34 34 36 37 36 37 38 38 39 40 38 34
38 38 39 39 41 41 41 42 42 44 44 42 40 40 41 41 42 43 43 43 43 42 41 40 40 39 40 38 35 34 33 33 35 36 34 37 38 37 37 38 37 34 33
42 43 43 41 44 46 45 45 46 46 47 48 48 42 42 43 43 43 42 41 40 38 38 39 42 43 41 36 32 34 34 36 36 35 37 38 39 38 39 38 37 34 34
45 45 45 45 46 47 45 44 46 45 44 45 47 41 39 39 39 41 37 36 35 37 39 40 41 41 38 32 32 33 35 34 36 35 37 38 39 40 40 39 38 35 35
46 46 46 47 47 47 46 42 41 38 40 43 42 39 29 36 38 41 46 40 37 37 37 38 39 38 38 34 35 35 34 38 35 37 38 38 41 41 41 40 38 37 37
47 46 46 45 45 44 42 40 35 36 39 36 34 32 36 38 33 33 36 39 38 38 37 39 39 36 36 38 36 32 38 39 38 39 40 40 41 41 40 41 40 39 39
43 41 40 38 39 39 39 36 32 31 39 40 41 42 44 43 41 46 43 42 42 36 38 41 40 36 37 38 35 39 39 39 39 41 43 43 43 43 42 42 41 40 41

GFSGL_500_spd_051.txt.gz
Wind_Speed
23 19 19 2 3 4 2 4 5 6 5 6 8 8 8 9 8 8 9 8 10 9 7 2 1 4 7 10 11 10 8 6 6 6 7 8 8 10 11 10 8 7 8
23 22 12 5 1 2 2 2 4 6 5 5 7 7 6 6 7 7 8 12 14 11 8 7 6 7 9 10 12 12 11 8 6 6 6 7 9 11 13 15 13 11 11
22 18 16 8 6 4 4 3 6 5 6 8 9 9 10 8 8 8 9 9 15 15 14 14 12 11 13 12 12 11 9 9 10 11 13 13 13 13 12 12 14 16 18
24 22 17 12 10 8 9 8 7 7 7 6 8 10 12 8 7 7 8 9 10 10 12 14 13 13 14 13 11 10 9 11 12 13 13 14 14 15 17 19 20 21 22
23 21 22 12 11 11 12 13 11 9 7 7 8 12 12 9 8 8 9 8 8 9 11 12 13 12 12 11 11 11 12 13 15 15 16 17 17 19 20 21 23 24 27
22 22 20 16 20 17 16 16 15 12 9 9 10 11 12 12 12 11 11 11 10 10 10 10 11 12 11 12 13 15 15 14 15 16 18 20 23 25 26 27 28 29 30
24 23 24 20 22 22 20 19 19 16 15 15 14 13 11 11 12 14 14 13 12 11 11 11 10 11 12 13 15 16 17 18 19 22 24 26 28 29 30 31 32 33 34
25 26 26 26 28 29 19 20 22 21 19 19 17 16 13 12 12 11 10 9 9 9 10 12 14 14 15 16 16 18 21 23 25 25 25 25 27 30 32 34 34 34 36
25 27 28 27 28 20 21 27 30 25 21 19 17 16 15 15 13 11 10 10 12 13 14 14 15 16 18 20 20 21 21 22 23 26 28 29 30 32 33 35 35 35 36
25 26 27 26 28 22 18 21 17 20 20 16 16 16 16 17 15 14 13 12 13 15 17 17 18 19 20 22 22 23 25 27 27 28 29 30 33 35 36 36 37 36 35
25 26 27 27 24 13 11 14 27 20 26 21 22 18 17 17 16 15 15 13 14 15 15 17 19 21 22 24 25 26 28 29 30 31 32 32 32 35 36 36 36 34 34
24 28 27 28 23 24 23 10 9 19 22 27 19 18 18 18 17 16 16 15 16 18 20 20 22 24 25 26 27 28 29 30 30 31 33 32 34 36 37 36 35 35 34
26 28 28 28 26 22 19 15 9 14 13 13 16 13 15 18 20 17 17 18 19 21 23 24 25 26 27 29 29 31 32 33 34 33 32 35 37 36 34 33 34 34 32
25 26 26 24 20 19 19 19 18 13 9 11 8 8 16 20 18 18 20 23 23 24 26 27 27 27 27 29 32 34 34 34 33 32 36 38 35 34 34 34 33 30 32
25 24 23 21 16 18 18 18 14 14 16 16 9 12 16 19 24 24 25 26 26 27 28 28 28 28 29 31 34 35 33 33 35 37 38 35 33 34 34 32 31 32 34
27 24 22 22 20 19 21 21 19 20 20 20 19 19 20 22 25 28 29 30 30 30 30 29 30 30 31 33 35 35 34 35 36 38 35 34 34 35 33 31 32 33 34
27 25 23 22 23 23 22 24 24 24 23 23 23 24 26 27 27 28 30 31 31 32 31 31 31 34 34 36 37 35 33 37 37 35 34 35 35 34 31 31 33 33 36
25 25 25 24 23 25 24 25 26 26 26 27 27 28 29 31 31 31 31 32 32 33 34 36 37 38 37 39 39 36 36 37 36 36 35 35 33 31 32 33 33 35 37
28 29 26 25 24 25 27 31 31 29 30 29 30 32 34 35 36 36 37 37 37 38 39 40 41 40 39 40 39 37 37 36 38 37 36 34 31 32 33 32 34 36 37
30 31 31 31 31 31 31 32 33 34 35 36 37 38 37 39 39 38 39 40 40 41 42 43 42 40 39 38 36 37 38 41 40 37 35 33 32 34 33 34 36 37 37
33 34 35 36 38 40 39 38 38 38 39 40 41 42 41 41 42 42 43 43 43 44 43 43 41 39 37 34 35 37 39 41 41 38 35 34 34 34 34 35 37 37 37
39 41 41 41 43 45 43 43 43 44 44 45 44 44 41 40 44 44 45 45 43 42 41 41 36 37 35 35 36 37 39 39 36 36 36 35 34 35 35 37 38 38 38
41 43 44 44 45 46 47 45 45 46 46 46 45 43 36 35 38 42 43 40 38 39 40 37 42 38 37 37 39 37 36 36 35 36 36 34 36 37 37 37 38 39 40
42 45 44 44 44 45 45 45 45 47 48 46 45 42 36 39 35 35 34 31 35 39 38 39 40 38 42 40 37 39 40 38 37 36 35 35 38 39 39 39 40 41 41
42 38 41 40 39 42 41 39 37 36 38 38 39 32 39 36 34 27 35 36 38 37 33 37 36 38 41 37 37 41 39 39 38 37 37 38 39 40 41 41 41 42 44
41 37 37 40 37 37 39 42 40 37 35 32 33 35 39 42 41 38 33 32 36 39 43 46 46 44 42 43 43 42 41 37 35 37 39 40 42 43 44 43 43 44 45

GFSGL_500_spd_054.txt.gz
Wind_Speed
20 19 17 10 2 2 2 2 5 6 8 7 8 10 13 13 13 12 10 11 11 11 13 10 6 2 3 5 8 10 8 7 6 5 5 6 7 9 10 10 9 8 9
22 20 16 12 6 4 3 3 5 9 10 9 9 10 11 12 11 9 10 12 12 15 14 11 8 7 9 9 11 12 11 9 6 6 7 7 8 9 9 10 9 10 10
21 22 18 14 9 6 7 7 7 8 9 11 10 9 10 11 10 10 10 10 13 17 17 16 15 14 13 13 13 12 11 10 10 10 10 10 10 9 10 12 13 14 15
19 19 19 18 11 10 11 10 10 9 10 9 11 11 11 12 11 11 11 13 15 17 20 20 18 17 16 13 12 12 11 10 10 11 12 12 13 13 13 15 17 20 22
21 20 16 17 15 13 15 15 15 11 12 12 11 11 14 14 13 14 14 14 14 14 15 15 14 14 14 13 11 11 10 10 11 12 12 11 12 15 18 19 21 22 23
21 22 20 18 20 20 20 19 21 17 15 14 11 12 12 14 16 16 16 14 15 15 14 14 14 14 13 11 11 10 10 11 11 12 13 15 19 20 23 23 23 25 28
23 20 22 21 23 25 24 20 21 20 21 19 18 15 14 14 15 17 18 17 18 18 17 15 14 12 12 12 12 12 12 13 15 17 20 22 22 21 22 25 27 29 30
23 19 20 21 23 20 25 16 20 28 24 22 20 18 17 19 17 17 19 19 18 17 16 13 14 14 14 14 14 14 15 17 18 19 20 23 25 25 25 27 27 29 31
24 22 21 21 21 22 22 29 29 31 26 25 25 23 21 20 19 19 19 17 16 15 16 17 16 15 15 17 17 16 17 18 20 22 24 26 26 26 27 28 28 30 31
28 24 22 22 21 25 25 26 24 15 26 22 23 22 22 22 22 20 19 17 18 19 19 19 19 18 18 17 16 18 20 21 21 23 25 26 26 26 28 28 30 32 34
30 26 25 26 23 23 24 21 28 23 25 22 24 20 19 22 22 20 18 18 20 20 19 19 17 17 17 18 20 22 23 23 24 24 26 28 28 28 28 31 34 34 32
31 29 25 25 24 25 23 20 18 14 17 24 22 22 21 20 24 23 20 18 19 20 20 19 19 20 21 22 24 25 25 25 26 27 27 29 29 31 34 34 32 31 32
30 29 27 24 25 22 24 20 14 18 19 22 24 16 13 22 20 20 24 23 19 19 21 21 22 24 26 26 25 25 25 26 27 29 29 29 30 33 35 34 32 33 34
30 28 27 25 24 20 17 17 18 18 21 21 17 15 16 15 17 17 14 18 17 19 24 25 26 27 28 28 28 27 26 27 29 29 30 31 32 35 33 32 32 34 35
28 29 27 26 23 18 17 18 17 16 17 16 15 14 10 15 16 15 19 15 22 24 26 29 29 29 28 28 28 29 30 31 32 32 33 35 35 35 33 33 35 36 34
28 27 27 27 26 24 19 19 20 19 19 20 20 19 15 17 22 22 25 25 27 29 31 32 32 31 30 29 31 33 34 34 34 35 36 35 35 35 34 35 35 34 32
27 26 26 26 25 26 27 24 22 23 23 23 25 25 23 22 25 28 30 30 31 31 33 33 34 33 33 33 35 36 37 38 38 37 35 35 36 35 37 36 35 33 33
30 29 28 26 24 26 27 28 24 24 25 26 27 29 29 29 29 29 30 32 33 34 35 37 36 37 37 38 38 39 40 39 39 36 35 35 36 38 38 38 35 33 33
32 33 32 29 28 27 27 28 29 29 29 30 30 31 33 35 36 37 39 39 38 37 38 41 41 42 42 41 40 42 41 38 37 36 35 36 38 37 37 37 34 34 34
31 34 30 31 32 31 30 30 32 32 33 35 36 37 38 39 41 42 43 43 43 43 44 46 46 47 47 45 44 44 40 38 36 36 37 37 38 37 38 35 33 34 34
29 28 31 32 33 34 34 35 37 37 37 39 41 41 42 43 44 45 47 48 48 49 48 49 49 49 48 46 44 41 37 36 35 36 37 38 39 37 35 34 33 33 34
32 35 37 38 39 41 42 41 41 43 44 44 43 45 46 46 46 46 47 46 48 49 50 49 49 48 45 43 42 37 38 37 37 39 41 39 39 38 35 33 33 34 35
37 39 42 44 45 46 48 48 47 46 46 45 43 44 44 45 45 46 41 42 44 43 47 49 45 38 36 39 41 41 47 44 38 41 40 41 41 39 37 37 38 36 36
42 44 45 47 49 48 49 50 49 45 41 42 42 39 36 37 40 39 39 41 41 39 41 38 33 35 37 38 36 33 34 40 40 39 38 42 42 42 39 38 38 38 37
44 43 43 44 45 44 44 45 42 42 43 40 38 38 36 36 35 36 38 36 37 39 35 33 32 37 38 40 37 39 41 41 40 43 43 43 41 44 42 39 38 39 40
41 41 40 40 41 41 42 39 40 41 36 38 36 34 34 39 37 37 38 39 37 34 32 33 34 37 39 43 43 39 40 41 43 42 43 44 45 47 41 39 39 41 43

GFSGL_500_spd_057.txt.gz
Wind_Speed
20 20 18 13 10 6 3 4 6 10 9 8 7 10 14 13 13 14 14 15 15 14 15 16 12 9 6 6 7 7 6 7 7 6 6 6 5 5 6 7 7 6 6
21 21 18 13 7 7 8 6 8 11 10 10 9 10 12 13 13 16 15 14 15 14 15 15 13 10 11 12 12 12 9 7 7 8 9 9 8 9 9 8 8 9 10
21 22 21 17 10 7 8 10 11 12 11 12 12 12 13 13 11 12 13 13 15 15 18 19 17 15 16 17 17 16 12 10 10 10 10 10 10 9 9 10 9 10 12
22 22 21 20 16 12 10 9 12 13 13 12 14 14 15 14 11 13 15 14 14 17 20 21 20 19 21 21 18 15 14 14 13 13 13 13 12 12 10 11 14 17 19
24 21 20 20 20 19 16 15 15 14 16 16 16 16 18 19 15 16 17 16 16 16 18 20 21 21 21 19 17 17 17 17 15 15 15 15 14 14 15 18 21 23 24
23 22 20 20 20 20 20 18 19 19 21 18 20 17 19 20 18 19 19 18 18 17 16 18 18 19 19 19 19 19 17 16 17 17 16 16 17 19 21 23 22 23 26
22 19 19 21 21 20 18 20 23 21 22 19 22 22 21 19 17 18 21 20 20 18 19 18 18 20 20 20 19 18 18 18 18 19 20 21 22 22 22 23 25 27 28
22 21 20 20 22 23 26 25 25 30 26 27 26 28 26 23 21 19 19 21 22 21 21 20 20 20 20 20 19 20 20 20 21 22 22 23 23 25 25 27 27 28 29
19 18 17 19 21 23 25 24 24 24 23 20 29 28 28 26 24 21 21 22 21 20 20 20 20 20 21 21 22 23 23 23 22 22 24 25 26 26 28 28 29 29 29
22 20 19 18 22 23 23 24 22 21 17 15 32 26 30 32 29 25 23 23 21 20 21 22 22 23 24 23 24 25 24 23 24 25 26 27 27 27 28 29 30 30 29
24 21 23 23 19 25 24 25 21 18 16 15 20 31 27 27 31 31 27 26 23 22 23 23 22 22 22 22 22 23 25 26 26 28 29 28 27 28 30 30 30 31 33
26 26 24 26 24 19 26 23 23 16 14 13 13 22 20 27 28 32 29 27 26 24 24 24 23 23 23 24 25 26 27 27 28 29 30 29 29 30 30 31 31 34 35
28 28 30 27 26 20 22 25 21 20 16 12 8 21 26 24 25 25 28 27 29 29 30 25 21 22 23 25 26 28 29 30 29 30 30 31 31 32 33 32 34 35 34
29 27 30 30 28 24 20 21 23 20 20 19 13 13 16 20 18 20 19 18 19 28 35 28 23 25 27 29 29 31 31 32 32 32 32 33 34 34 35 35 38 38 35
31 28 27 26 25 25 23 21 21 22 22 20 21 16 14 16 23 23 24 20 17 16 18 24 25 27 28 30 31 33 34 34 34 34 36 37 37 38 38 38 38 36 34
33 30 28 25 23 24 25 24 23 21 21 22 23 22 20 19 22 22 25 29 26 25 23 25 31 34 35 36 35 36 38 38 38 39 39 40 40 39 40 39 37 35 34
38 29 25 23 21 21 24 25 25 24 22 24 23 23 24 26 29 30 31 34 32 30 29 33 34 35 37 37 39 39 41 42 43 44 44 43 42 42 40 37 35 34 36
37 26 26 24 24 23 22 24 27 28 29 26 26 26 27 28 29 32 34 37 38 36 36 38 40 41 42 42 43 44 44 46 47 48 48 46 45 42 38 35 36 37 37
27 23 23 26 25 26 25 23 26 27 29 31 31 31 32 32 33 34 36 39 41 43 45 47 49 48 48 47 48 49 48 49 49 49 48 47 44 39 37 37 38 37 37
28 29 28 26 30 27 27 29 30 30 32 34 35 36 37 38 39 40 41 43 45 47 48 48 51 51 54 52 52 48 49 49 48 47 46 44 41 38 38 37 37 37 38
33 31 29 28 29 28 30 31 32 34 35 37 39 40 41 42 44 45 46 48 49 51 52 53 54 55 54 55 51 52 53 48 47 45 38 42 40 39 41 38 38 38 37
28 31 31 31 32 34 35 36 38 39 42 44 46 47 48 46 46 47 49 50 50 52 52 53 54 53 51 50 52 50 49 43 40 40 41 43 45 45 42 37 38 38 38
29 30 33 36 38 40 42 44 45 47 48 48 50 49 50 50 48 46 49 49 47 48 49 50 51 50 48 46 44 39 37 38 41 46 41 40 42 42 40 40 39 39 39
34 36 36 39 44 46 48 47 48 50 50 49 49 49 48 46 44 44 44 44 43 42 42 44 45 45 43 40 39 38 36 36 37 37 42 37 42 41 43 43 42 41 40
37 39 40 39 42 43 45 46 47 48 48 46 43 43 43 43 41 37 39 38 38 41 43 41 42 43 44 45 35 35 37 36 35 42 41 40 42 42 46 44 44 41 42
35 35 36 38 38 38 38 39 39 40 42 43 42 43 43 42 43 35 36 40 41 40 39 41 43 39 36 36 40 43 41 37 38 38 41 46 45 48 48 47 46 45 48

GFSGL_500_spd_060.txt.gz
Wind_Speed
21 20 20 20 15 9 7 7 8 6 5 3 4 8 9 9 10 12 13 15 18 15 14 14 16 16 14 11 7 7 9 11 11 9 7 6 7 8 9 11 11 10 9
21 20 18 16 16 14 11 9 8 9 9 8 7 8 11 14 18 17 15 15 15 15 14 15 18 18 16 13 9 9 12 13 12 12 11 11 10 11 11 11 11 11 11
20 21 19 17 14 13 13 13 11 12 12 11 12 11 13 14 15 17 16 16 15 16 16 19 21 20 18 14 14 13 15 15 15 15 14 14 13 12 13 13 14 13 12
20 18 16 18 16 15 14 14 15 14 16 16 15 15 15 17 17 16 15 15 16 17 19 19 23 23 21 19 18 18 18 18 17 16 14 14 14 15 14 15 15 16 19
19 18 16 16 17 19 16 15 16 16 18 17 18 17 15 17 20 18 19 18 18 20 20 21 24 25 25 24 23 21 19 19 18 18 17 18 18 17 17 18 19 22 24
17 16 15 16 16 19 19 19 21 18 15 16 21 22 20 18 18 20 22 20 20 22 21 21 23 25 25 23 22 21 20 19 20 20 20 21 21 20 21 23 26 27 26
17 18 17 18 18 19 19 22 22 21 25 23 16 23 25 21 20 21 22 23 23 22 22 22 22 22 23 21 21 22 22 21 21 22 23 23 24 25 26 28 27 29 31
18 20 21 19 20 20 22 23 21 21 19 19 12 16 27 24 25 24 21 21 23 25 24 23 22 23 23 22 23 24 23 23 24 26 25 26 28 29 28 29 31 32 32
19 22 23 24 22 21 23 24 21 20 19 20 16 17 27 29 28 29 26 24 24 24 25 25 25 26 26 25 24 25 26 26 27 28 28 28 29 29 31 32 33 32 32
20 25 28 28 24 21 23 25 23 20 20 20 19 18 24 30 31 30 29 26 26 24 24 25 25 25 25 25 25 27 29 29 29 29 29 29 31 33 33 33 33 33 34
26 28 30 28 24 24 20 20 21 21 22 21 20 19 23 30 31 34 32 33 28 27 26 27 27 26 26 27 27 28 28 29 29 29 31 32 33 34 34 33 33 34 35
31 30 32 30 24 24 22 18 18 20 21 20 19 20 17 30 25 27 30 31 34 35 31 30 29 28 27 28 28 28 28 28 29 32 33 33 34 35 35 34 35 35 35
33 33 34 29 28 26 24 21 18 18 20 20 19 17 13 19 15 18 25 28 28 31 40 30 31 31 31 30 27 27 27 28 30 31 33 37 36 36 35 36 36 37 38
35 36 35 33 30 30 26 23 22 21 20 19 19 16 15 15 14 22 25 21 22 19 23 29 35 37 39 41 35 31 32 34 34 35 35 37 37 37 37 39 40 40 40
37 37 36 37 35 32 28 23 24 24 23 24 19 18 17 15 18 19 19 18 19 21 23 23 26 23 22 23 28 30 33 35 37 37 38 39 39 40 40 41 42 43 43
38 41 38 39 38 32 27 25 23 24 23 24 24 23 21 19 20 20 21 23 24 25 28 25 25 26 27 28 28 32 36 39 42 41 40 41 42 43 43 44 45 44 44
44 43 43 43 37 32 28 27 30 27 24 23 20 20 23 24 23 24 26 29 30 30 30 32 34 32 31 33 36 38 40 43 44 45 45 46 46 47 46 46 46 45 44
48 47 43 36 32 29 30 30 31 32 30 26 28 25 24 26 27 27 29 31 34 35 36 36 39 40 41 42 45 46 49 50 50 50 48 49 50 49 48 47 47 46 44
39 39 35 29 23 26 30 32 31 30 31 29 29 30 30 31 33 34 35 36 37 39 40 42 42 45 46 49 51 52 53 49 49 52 54 55 56 50 48 47 46 44 43
34 32 25 26 29 30 30 29 29 28 31 33 32 32 33 34 36 38 40 41 42 43 44 46 46 45 30 54 52 55 49 54 60 61 57 58 54 54 50 47 40 40 40
30 29 32 33 32 31 29 30 32 32 34 35 36 38 38 38 41 42 43 45 46 49 50 50 51 54 53 51 51 55 57 53 50 56 60 57 57 55 49 45 44 43 48
33 34 34 34 36 35 35 36 35 37 37 40 41 44 46 46 45 46 46 48 49 50 51 53 54 54 53 54 54 55 53 52 51 53 51 51 50 46 45 44 43 46 50
30 32 34 35 38 39 39 39 40 41 44 45 46 46 48 47 48 48 46 45 45 47 48 45 46 47 47 46 45 45 47 47 45 46 43 44 45 42 42 43 46 45 38
32 34 34 36 38 40 41 42 43 45 45 47 47 48 47 46 47 46 46 44 42 45 44 43 43 44 43 45 46 46 40 38 38 39 42 47 42 39 40 40 43 39 44
34 35 35 37 38 39 39 39 39 40 42 42 42 42 42 43 43 43 44 45 45 44 46 44 42 46 49 50 45 41 42 48 49 41 44 44 43 37 37 40 41 43 48
33 34 33 34 34 33 33 34 36 37 38 39 40 40 41 41 42 43 44 44 47 47 47 46 47 49 40 36 38 44 44 44 45 45 49 48 45 44 45 43 41 43 48

GFSGL_500_spd_063.txt.gz
Wind_Speed
20 23 24 19 12 9 7 7 9 6 6 8 9 10 8 7 6 5 4 16 15 12 15 16 17 18 20 17 15 12 10 8 9 10 10 10 9 9 9 9 11 12 13
22 23 21 19 17 11 9 9 9 10 10 10 11 11 11 13 14 13 14 14 16 19 20 19 19 20 21 19 18 15 12 12 12 12 14 13 13 13 13 13 14 13 13
24 22 20 16 16 14 11 11 11 13 12 13 14 13 14 14 14 15 18 17 17 16 16 18 18 20 22 22 20 18 16 15 15 15 16 16 16 16 16 16 16 16 16
23 21 17 16 15 15 14 12 13 16 17 19 18 18 17 17 18 17 17 17 18 17 17 19 19 20 23 25 24 22 20 19 18 18 18 18 18 19 19 19 19 19 19
20 20 17 15 16 18 18 16 14 20 21 21 17 20 20 20 20 19 20 19 20 18 18 18 20 22 25 28 27 25 24 24 22 21 21 20 20 19 20 20 20 21 21
16 17 16 15 16 17 18 16 18 17 16 18 19 15 21 22 22 21 21 22 21 20 21 21 21 23 26 29 29 28 28 26 23 22 21 21 21 21 21 22 23 24 25
16 16 16 17 17 16 18 17 17 18 19 21 19 17 21 22 23 24 22 21 22 23 24 24 24 23 25 27 28 27 26 25 24 24 24 23 23 24 25 26 27 29 30
18 18 17 18 21 22 22 21 19 17 18 22 23 22 21 14 20 24 24 21 21 23 25 26 26 24 24 25 26 26 26 26 26 27 26 26 27 28 28 29 29 31 32
20 18 18 19 22 24 26 25 25 21 19 18 21 21 20 22 24 21 25 26 25 25 26 25 26 26 26 27 26 27 28 28 28 28 29 29 29 30 31 31 32 33 36
22 19 22 22 22 24 28 28 26 24 22 21 19 19 18 19 18 26 25 28 28 28 28 29 28 28 30 30 29 30 30 30 31 31 32 31 31 33 33 33 34 36 37
28 26 22 23 22 22 26 27 26 27 24 24 21 21 18 19 18 31 29 30 30 30 30 29 28 28 29 29 29 30 31 32 33 34 35 34 33 33 34 35 36 37 38
39 33 25 21 20 21 24 27 27 28 28 24 21 20 20 15 13 23 25 26 27 30 30 32 37 34 32 32 32 32 32 33 34 34 33 33 33 34 34 35 37 38 38
41 34 25 22 20 23 23 29 31 32 30 28 24 19 18 17 14 14 11 21 16 23 24 19 23 32 39 37 32 32 35 35 34 34 33 32 31 34 37 39 40 40 40
45 32 23 24 23 24 25 29 32 33 26 24 25 22 17 17 15 14 16 18 24 25 21 25 24 23 29 38 38 37 40 42 41 36 36 39 40 37 39 41 42 41 41
34 28 24 26 26 26 29 31 35 34 29 23 22 22 19 19 18 16 18 20 21 22 20 20 23 22 24 27 31 37 40 41 33 34 37 38 38 40 41 42 42 44 44
27 31 25 26 29 32 32 33 38 36 28 24 23 21 20 21 23 23 22 22 22 24 23 25 26 26 25 25 26 27 32 30 35 38 37 37 40 43 44 46 47 46 45
28 25 27 27 31 34 35 37 38 33 27 25 23 22 23 24 25 25 26 27 28 28 29 30 31 31 32 33 34 36 38 39 41 42 43 46 47 48 48 47 49 48 47
37 27 28 29 35 36 36 36 35 30 28 25 28 26 28 27 27 28 30 31 32 34 35 36 37 38 41 38 42 46 40 47 50 51 49 50 54 52 49 47 48 50 50
26 29 32 33 34 34 35 32 29 29 30 32 34 32 32 33 33 34 34 35 37 38 40 42 43 44 43 43 43 49 48 51 53 48 44 45 46 46 50 54 55 52 50
23 24 28 29 31 29 27 29 31 32 35 38 38 33 32 35 36 38 40 42 44 45 46 47 48 48 48 49 46 36 51 48 45 51 41 49 52 55 62 55 49 49 50
15 20 23 29 31 31 31 31 34 34 35 37 37 36 39 41 43 45 45 46 48 50 50 52 53 53 51 50 49 53 60 56 57 41 50 55 65 64 62 60 61 51 53
24 26 29 31 32 32 33 34 36 37 38 39 39 40 44 47 48 49 50 51 49 50 51 49 48 47 48 48 49 50 49 48 54 54 55 55 54 52 55 55 54 52 48
29 31 33 34 33 35 36 36 37 41 43 44 44 46 48 49 49 51 48 46 44 43 42 43 44 44 43 43 43 45 48 50 49 49 49 46 50 53 52 53 51 47 43
31 33 35 36 37 38 40 41 42 44 46 47 46 46 46 45 45 44 44 44 43 43 42 43 44 45 45 45 47 47 46 47 48 51 49 44 41 43 43 55 51 47 43
32 33 35 35 37 39 40 42 44 45 44 43 41 40 41 42 42 42 43 44 44 45 46 46 45 45 47 48 48 46 48 50 50 46 44 43 44 46 48 48 51 48 48
32 32 32 32 34 35 34 34 33 32 32 32 32 33 34 35 37 38 40 41 41 42 43 44 45 46 46 44 46 44 49 49 45 45 43 43 45 47 48 50 52 51 53

GFSGL_500_spd_066.txt.gz
Wind_Speed
14 16 18 18 20 15 11 11 11 11 12 14 12 11 10 10 8 8 8 8 14 18 22 27 20 21 20 18 18 17 17 13 10 11 12 12 11 10 10 11 13 13 13
13 14 17 17 16 17 12 12 12 11 12 12 14 15 14 12 13 13 9 10 10 14 17 17 17 16 20 22 21 21 20 15 13 13 15 15 14 15 15 14 15 15 15
12 14 15 14 13 15 15 14 13 13 14 13 14 16 17 16 17 16 16 17 16 17 20 20 22 24 23 25 23 23 23 19 16 16 17 19 17 17 18 18 18 18 18
10 11 13 14 15 14 14 14 12 12 14 14 15 18 21 20 18 18 19 17 17 18 20 21 23 25 23 25 26 27 25 22 20 20 21 21 19 19 21 20 20 21 21
13 9 10 10 12 13 14 15 14 13 14 15 14 15 16 20 21 20 19 20 20 19 19 20 20 23 24 26 27 27 27 27 25 24 24 25 22 21 23 23 22 22 22
10 12 12 13 10 11 14 17 16 16 16 15 16 17 16 17 16 21 23 21 22 22 20 21 21 21 23 25 26 27 28 30 29 28 27 26 24 25 25 24 24 24 25
17 17 16 15 15 15 17 18 20 19 18 20 21 20 17 17 21 21 23 25 22 22 23 23 22 23 23 24 25 26 29 31 31 30 28 27 26 26 26 27 27 27 27
25 21 19 20 20 19 18 18 19 20 21 19 20 22 20 18 19 18 21 23 25 23 23 23 25 26 27 27 26 27 28 29 29 28 28 28 28 28 28 29 30 30 31
32 28 22 20 22 24 21 17 20 20 21 21 21 21 22 20 19 16 18 21 25 26 23 23 23 26 29 29 28 28 28 28 28 29 30 31 30 30 31 32 33 33 34
35 36 34 24 21 22 23 20 19 21 22 21 20 23 23 22 19 21 21 18 21 26 28 28 27 27 29 31 31 31 31 31 32 33 33 33 33 33 34 35 35 37 36
45 47 40 31 27 23 20 22 20 22 23 21 20 23 24 24 22 19 21 22 27 25 26 29 30 33 33 33 32 33 32 33 34 35 34 34 35 36 37 37 37 37 37
52 47 48 41 34 27 21 22 21 22 24 23 21 22 23 21 22 21 21 14 19 22 24 24 21 20 30 37 40 36 34 35 36 36 36 37 36 35 35 36 36 36 36
49 51 53 60 43 28 25 21 23 25 26 23 21 22 23 22 20 19 19 20 19 17 12 18 20 14 16 17 23 34 40 40 39 38 37 38 39 36 35 34 34 37 38
54 49 60 51 36 31 30 23 23 26 25 24 21 20 21 22 23 20 19 21 20 18 18 21 21 22 23 26 28 27 29 38 43 45 48 46 46 46 40 37 38 37 41
52 48 41 31 45 36 30 26 25 26 24 23 24 20 19 20 20 22 21 21 23 26 23 22 24 22 24 24 24 23 25 30 32 36 42 39 44 41 39 41 44 45 39
48 41 37 30 29 29 28 26 26 26 26 25 26 23 20 21 22 22 25 24 24 24 24 25 26 28 28 28 28 31 30 30 32 35 37 50 39 39 42 43 43 46 47
49 39 32 25 26 25 27 26 23 26 29 27 26 24 23 23 26 25 28 28 29 31 29 29 30 31 33 33 35 36 37 36 36 42 41 45 43 45 48 50 49 50 52
53 54 50 37 32 32 30 27 27 28 29 28 25 24 27 30 30 29 31 31 33 36 36 37 38 38 39 39 39 40 38 45 39 45 44 44 42 51 53 62 60 52 55
22 31 33 34 41 38 32 30 29 29 30 26 24 27 31 31 32 33 34 34 37 39 42 43 44 46 47 46 44 44 45 46 50 47 53 49 56 49 48 44 45 50 47
26 22 29 30 28 31 32 31 30 27 26 27 32 36 33 34 36 38 38 37 42 44 46 46 48 49 50 50 50 51 53 53 55 55 56 51 49 58 53 58 50 47 52
18 26 28 33 30 29 33 30 26 25 29 32 36 40 41 39 40 41 41 43 47 48 49 49 52 54 54 53 53 52 52 55 56 57 57 61 59 56 56 53 53 57 66
25 26 26 24 25 26 27 28 30 33 35 36 35 34 38 40 41 43 44 46 50 51 51 50 49 50 52 49 48 48 49 49 49 50 51 53 54 54 54 53 54 54 54
31 30 30 30 30 31 31 31 31 32 35 36 36 38 39 42 43 44 45 46 47 45 45 44 45 45 45 47 47 46 47 47 47 48 49 50 51 51 50 50 50 52 53
26 24 24 24 25 26 27 27 29 30 32 35 35 36 37 38 38 37 38 38 39 39 40 41 41 42 43 45 46 47 48 48 49 50 50 51 50 51 52 53 53 49 46
29 28 25 24 25 26 28 29 30 31 32 33 32 31 29 28 29 31 34 38 40 43 44 45 45 45 46 45 43 43 46 47 48 49 48 49 46 51 49 49 47 51 45
34 30 27 26 26 26 27 27 28 29 27 26 24 24 28 31 35 38 40 43 44 45 45 44 43 42 41 41 41 41 41 41 41 42 45 47 50 51 52 53 53 53 53

GFSGL_500_spd_069.txt.gz
Wind_Speed
12 12 10 10 11 14 14 12 12 11 11 12 12 13 13 12 12 11 12 15 17 22 24 26 24 25 25 25 20 20 23 18 17 13 10 10 9 10 10 11 12 12 13
14 12 11 11 10 12 14 13 14 14 14 14 14 14 14 14 14 13 13 10 8 10 11 11 11 15 19 22 20 24 19 18 21 16 14 11 12 13 13 12 14 14 15
14 14 13 13 13 13 13 14 13 13 14 16 15 14 12 14 16 16 16 15 17 16 16 18 19 18 20 18 20 23 25 20 24 20 17 14 15 16 17 16 15 16 16
17 15 14 12 12 13 12 13 14 14 15 17 17 16 17 17 14 16 17 18 18 19 19 19 19 22 23 24 26 26 27 25 26 25 21 18 18 19 19 20 18 18 19
17 15 16 15 12 13 15 16 18 18 18 17 19 19 19 17 14 13 16 19 20 20 20 20 20 21 23 24 24 26 29 29 30 29 27 23 22 22 22 22 22 22 22
16 15 18 20 18 15 15 16 18 21 21 19 19 20 19 17 16 17 19 17 22 22 22 22 22 21 21 22 25 26 27 29 31 33 31 29 28 27 26 25 24 24 25
21 24 21 24 28 26 21 20 19 18 19 18 16 18 18 20 18 19 22 20 17 23 23 23 24 23 22 22 23 24 27 30 32 32 32 33 33 31 29 28 27 27 28
26 28 30 28 31 30 30 29 22 20 21 19 17 17 17 18 17 17 19 17 21 22 26 24 24 25 25 25 25 25 26 27 29 30 30 32 32 31 30 30 30 31 31
29 29 31 33 35 36 39 35 33 26 23 21 18 17 19 17 17 18 15 17 17 19 21 23 25 25 27 27 28 28 29 28 29 30 31 31 31 31 31 32 33 33 34
30 32 33 33 35 36 40 36 34 34 29 23 20 20 20 19 17 18 16 16 16 21 20 22 28 28 28 29 28 28 27 29 31 33 33 33 32 33 33 34 35 35 37
34 36 35 37 38 40 40 30 38 38 36 28 24 22 20 20 19 19 20 15 15 15 17 21 24 22 24 32 38 38 33 34 33 34 34 35 36 36 36 36 37 38 39
39 39 40 43 44 43 39 38 41 41 42 36 30 26 24 21 20 17 17 18 15 13 17 17 14 9 12 10 13 19 24 31 38 37 35 35 36 36 38 37 36 35 39
39 43 46 47 46 37 41 46 49 45 44 40 30 26 23 26 23 19 16 17 16 17 15 13 14 17 20 19 19 19 19 21 23 29 37 42 44 43 38 39 43 48 50
29 37 37 40 45 45 47 53 47 38 43 39 29 25 24 25 23 21 16 16 17 17 18 18 18 19 19 20 21 23 25 27 26 28 30 32 33 34 37 37 38 38 39
42 41 45 41 50 51 48 45 35 41 44 37 29 26 25 24 26 24 21 18 18 19 19 22 23 21 23 24 25 25 25 27 26 28 28 28 29 30 34 38 45 43 38
45 45 44 45 45 45 44 45 36 44 42 34 27 26 26 26 27 25 24 23 22 23 23 23 25 28 27 26 28 29 29 33 30 30 32 34 35 35 42 42 39 38 37
48 46 47 47 48 47 42 39 34 40 37 32 26 25 28 27 26 26 28 27 27 28 28 30 30 32 34 33 33 33 34 36 39 35 37 40 40 46 43 50 47 41 45
49 49 49 50 48 49 47 48 37 37 34 31 27 29 32 31 27 26 28 29 30 32 33 35 36 38 39 40 39 35 35 38 39 39 41 44 47 47 49 45 49 53 55
54 42 45 46 46 45 40 44 45 42 37 36 30 30 33 30 28 28 29 30 32 35 36 38 39 41 41 41 41 41 40 42 45 46 47 49 52 53 54 53 52 54 50
36 32 36 28 33 35 27 31 36 42 42 37 30 32 24 31 31 31 33 34 35 37 39 40 42 42 42 44 42 41 42 43 44 47 50 52 53 55 56 57 55 55 56
13 18 24 25 26 27 29 26 31 31 32 32 28 29 29 32 33 34 34 34 35 37 37 37 40 42 41 44 42 41 41 42 43 45 47 50 52 53 53 53 53 53 52
19 10 14 21 25 26 23 24 26 26 25 28 30 32 37 37 32 33 33 33 34 35 36 37 37 37 38 40 40 41 43 45 47 48 49 48 48 51 52 53 53 53 51
25 28 25 25 27 29 30 29 26 26 27 28 27 29 29 30 32 33 34 33 32 33 32 32 33 35 38 40 43 45 46 46 46 47 48 49 51 52 54 54 54 54 53
25 25 25 23 21 22 21 18 22 22 23 25 28 28 29 30 30 29 29 28 30 31 34 35 39 43 46 47 48 49 48 47 47 46 46 46 47 49 51 52 53 51 50
28 28 29 27 26 24 23 22 23 24 26 28 28 28 29 26 25 24 27 31 34 36 39 43 46 47 45 44 43 42 40 40 40 40 41 42 43 44 45 45 45 47 49
26 26 28 27 25 27 25 24 24 23 23 22 21 21 21 23 26 30 32 35 37 41 44 43 41 39 35 34 34 34 35 36 37 38 39 40 41 43 44 45 46 46 47

GFSGL_500_spd_072.txt.gz
Wind_Speed
14 13 13 15 11 10 11 11 12 13 12 11 12 12 12 9 8 9 10 10 13 15 20 24 28 27 24 26 24 25 23 24 26 19 16 13 12 11 11 9 9 10 9
13 15 16 16 13 11 10 10 10 11 12 13 14 14 15 14 13 12 12 13 13 11 13 17 20 25 20 20 23 24 26 27 18 22 16 14 13 13 12 12 12 13 13
15 16 18 18 17 15 15 13 12 12 13 14 16 15 15 16 16 15 16 15 15 16 16 15 14 15 16 15 16 16 20 23 15 26 20 17 16 15 14 14 15 16 15
18 17 16 17 18 18 18 19 21 23 21 18 16 15 16 18 17 15 13 15 16 17 18 17 19 19 20 22 19 18 18 21 22 15 19 21 20 19 18 17 17 18 19
18 18 17 17 17 16 20 24 25 27 27 26 25 21 18 17 15 14 16 14 13 17 20 20 21 20 21 23 23 23 22 23 24 25 25 24 26 24 24 21 23 23 22
18 18 19 19 18 19 21 20 23 23 25 26 26 25 22 19 15 12 12 14 19 17 18 21 23 22 22 22 22 22 22 23 24 27 29 29 29 30 29 30 28 27 26
22 20 20 23 20 18 19 22 24 23 23 25 27 28 27 25 21 18 15 15 15 13 16 18 23 25 23 23 24 24 23 23 25 26 27 29 31 32 33 34 33 31 29
26 25 22 23 22 21 21 22 23 27 21 22 26 28 31 30 27 25 22 18 18 16 19 19 19 26 24 25 24 25 25 24 26 27 28 29 31 32 33 33 33 32 30
32 33 27 26 25 24 23 25 27 27 21 19 24 29 28 31 32 30 27 22 17 19 21 22 15 24 25 24 23 27 27 28 27 27 26 28 30 31 30 32 31 31 32
39 40 37 34 29 27 26 27 24 26 24 20 25 27 31 31 34 34 30 26 22 19 23 20 18 15 22 26 26 26 28 27 28 29 29 29 28 28 28 30 31 32 34
45 45 48 34 35 31 29 29 27 29 27 26 27 29 31 34 36 33 31 25 23 19 18 17 17 18 11 9 18 27 32 35 35 34 36 33 30 28 30 31 31 32 33
48 51 52 49 36 36 32 28 31 35 32 34 35 34 32 35 38 34 28 25 21 21 18 19 18 14 14 10 12 14 13 13 15 18 20 22 27 33 36 38 39 40 40
51 49 56 33 24 35 34 30 30 31 33 38 40 41 34 32 38 36 30 25 22 20 20 17 17 16 16 18 18 18 19 18 18 20 22 22 22 24 28 31 30 29 30
42 27 4 11 27 31 37 28 29 30 38 38 39 37 31 32 35 36 35 27 25 21 21 21 18 19 19 20 20 20 21 21 20 21 21 21 20 18 20 22 24 28 30
49 39 44 27 31 31 30 28 32 34 35 35 38 34 32 35 36 36 35 29 26 24 22 21 22 22 23 23 23 24 25 27 26 25 25 27 26 25 24 26 31 33 32
49 43 40 40 37 38 36 32 34 37 33 35 38 36 40 38 37 36 35 30 27 27 23 24 24 25 22 25 24 29 31 25 27 27 29 33 35 33 31 32 35 33 37
47 43 40 41 40 40 40 38 39 38 37 39 39 37 41 40 37 38 37 32 29 29 28 29 29 28 29 30 28 29 29 35 33 30 32 35 37 37 40 36 45 42 43
47 46 44 43 41 42 42 40 38 41 44 40 43 37 34 35 39 40 41 34 31 30 29 31 31 31 32 32 32 31 33 34 36 35 34 35 38 40 43 44 46 48 49
42 39 40 44 48 44 43 37 41 37 37 36 34 34 37 43 42 38 37 32 29 28 30 31 33 33 33 33 31 30 30 30 32 34 36 38 42 45 48 49 51 52 48
26 34 24 36 37 29 39 38 34 31 22 27 32 35 39 41 41 36 28 26 26 30 31 29 31 31 31 31 31 31 31 32 35 37 39 41 44 46 49 51 53 52 53
30 14 17 22 25 33 35 38 42 45 35 31 31 26 26 30 18 22 26 24 27 28 30 32 31 32 33 34 33 33 33 34 35 37 40 42 44 46 48 49 50 51 51
29 27 24 15 15 15 18 16 16 15 18 14 17 20 23 22 20 23 25 26 28 29 30 32 32 30 29 29 30 32 35 39 43 44 45 46 48 48 49 49 50 51 51
16 16 18 21 19 17 23 23 23 26 21 19 19 17 19 20 20 22 27 31 32 30 30 29 28 28 30 33 36 40 44 46 45 44 42 41 41 41 42 42 43 43 45
28 26 20 22 21 18 20 18 17 20 21 21 20 20 23 24 25 27 30 29 27 26 26 28 31 33 37 40 43 45 44 41 37 34 31 32 33 34 36 37 38 39 40
16 15 17 20 16 15 17 19 18 20 22 23 24 26 27 28 28 27 24 23 25 28 29 32 34 36 39 41 39 36 33 31 30 30 32 34 37 39 40 42 43 45 45
15 15 16 18 18 19 20 21 22 24 24 23 23 23 21 20 21 23 25 28 29 31 34 36 37 36 35 32 31 30 31 33 34 36 38 39 41 43 44 46 48 49 48

GFSGL_500_spd_075.txt.gz
Wind_Speed
14 14 17 16 16 15 15 14 13 11 11 11 13 12 13 13 13 13 13 11 10 11 13 14 15 19 22 21 23 24 27 28 27 24 28 25 18 14 13 12 11 10 10
10 12 16 18 15 15 14 14 13 13 13 14 14 14 14 15 16 15 15 16 15 14 12 10 12 15 19 25 23 23 26 29 28 24 20 26 18 16 13 12 12 12 13
12 15 17 17 15 12 12 14 14 13 13 13 14 15 15 15 16 15 14 15 16 16 17 17 15 13 12 14 17 19 21 23 24 21 25 31 20 17 14 12 12 11 13
15 17 17 12 13 11 7 8 9 12 14 14 13 15 17 16 15 13 14 14 13 15 17 19 20 19 18 17 16 15 15 15 17 16 17 28 26 18 19 16 15 13 14
16 16 14 12 12 15 13 12 12 12 12 14 14 14 16 17 16 16 15 15 13 14 18 19 21 20 20 19 18 16 19 21 23 22 12 22 19 22 23 20 20 18 19
16 19 17 18 19 17 17 16 17 16 15 16 13 13 14 16 17 18 15 16 16 17 20 20 17 21 23 23 22 20 21 22 23 23 21 20 24 27 26 26 26 25 25
21 21 24 21 24 24 23 22 20 21 17 18 13 13 13 13 14 16 18 19 19 19 18 16 15 17 23 26 25 23 22 22 22 24 25 25 26 26 26 28 27 28 30
30 30 28 29 28 30 29 27 27 25 20 20 16 13 12 16 15 16 17 17 21 22 21 18 20 23 21 23 26 26 25 24 23 23 23 24 25 26 27 28 29 29 30
35 38 37 39 38 38 36 35 33 31 25 21 15 13 15 16 18 17 21 21 21 23 23 22 18 18 17 18 24 25 24 24 25 26 26 26 26 25 27 28 29 28 28
42 44 48 45 47 45 45 46 38 37 31 23 18 16 16 21 22 18 18 23 23 24 25 23 21 16 17 14 17 25 27 26 24 25 27 28 28 27 29 29 29 27 27
50 52 54 52 38 37 54 44 44 40 31 27 21 20 20 20 22 27 22 19 24 27 24 22 20 18 17 18 15 14 22 29 31 31 34 34 33 32 32 33 32 30 29
54 56 59 56 59 49 39 41 40 29 28 28 26 25 22 24 27 28 25 21 20 25 26 21 20 19 16 16 14 12 13 15 15 17 16 17 20 22 21 22 25 27 26
57 57 57 56 58 55 40 38 28 25 30 26 28 26 24 24 28 28 21 22 21 24 26 24 23 21 18 18 18 17 17 16 16 17 17 17 18 19 22 22 21 21 21
55 54 51 49 50 42 20 17 18 19 26 25 24 26 25 19 27 28 22 21 23 25 26 25 20 21 20 20 22 20 17 17 17 17 19 18 16 17 21 24 25 25 25
48 49 45 43 43 36 33 33 23 18 27 25 22 24 25 19 23 23 25 23 26 26 26 26 25 24 22 21 23 23 20 21 21 22 25 21 21 22 24 22 25 30 31
43 44 43 41 36 34 29 28 26 24 27 32 30 31 28 29 27 25 28 28 30 29 30 27 26 26 26 25 25 24 25 23 25 26 24 31 31 29 29 30 33 35 36
40 42 40 37 34 32 32 31 29 29 29 32 30 30 33 33 31 28 29 34 31 29 31 30 32 30 29 27 28 28 29 27 28 28 29 31 31 32 34 34 35 38 38
41 39 36 33 31 34 34 27 29 30 35 24 32 34 36 38 37 31 26 28 29 30 33 31 32 34 34 30 28 28 28 28 29 29 30 32 34 36 39 42 42 46 44
36 33 31 32 33 26 31 35 41 32 29 33 35 23 22 22 23 21 24 30 34 33 31 29 28 29 28 28 28 27 27 28 29 31 33 35 37 39 41 43 45 46 47
25 27 27 26 24 24 23 31 32 30 29 29 29 28 29 28 30 32 33 32 33 31 27 25 25 25 27 27 28 29 31 32 33 33 33 34 35 36 39 41 44 47 49
18 20 26 14 12 17 11 20 24 29 22 28 26 33 26 19 20 21 22 17 19 20 20 20 23 26 28 30 31 33 34 34 33 32 34 37 40 43 45 46 47 47 47
23 22 18 21 18 16 14 15 9 12 11 14 10 11 19 22 25 25 21 18 17 20 23 25 26 28 31 34 33 32 32 32 34 37 40 43 44 43 41 37 34 32 32
18 19 22 16 19 20 13 10 11 9 12 13 13 10 14 18 18 17 17 21 23 24 26 29 30 30 30 29 30 32 33 36 37 39 42 40 34 30 28 28 30 32 34
9 13 14 16 9 11 13 13 12 13 14 13 15 16 18 21 21 24 25 26 28 30 30 28 28 28 30 31 33 35 36 37 37 36 33 30 29 30 32 34 36 38 40
9 10 11 11 12 15 17 18 16 18 20 18 20 20 21 24 26 27 27 26 25 23 24 27 29 31 32 34 35 36 37 37 36 33 32 33 33 34 35 37 40 41 43
11 11 11 11 13 16 16 17 18 20 22 20 19 20 21 20 19 19 20 21 23 24 28 31 34 35 36 38 39 39 39 38 37 35 35 35 34 36 39 41 43 43 42

GFSGL_500_spd_078.txt.gz
Wind_Speed
12 12 11 14 15 12 9 10 9 9 8 7 7 7 6 5 6 8 11 13 14 16 16 18 21 22 22 26 27 25 29 25 25 28 25 27 25 27 22 20 17 14 14
12 13 12 12 14 11 8 6 5 7 8 9 9 7 6 6 7 8 9 11 13 14 17 16 15 17 23 21 22 25 23 26 30 28 32 31 33 34 28 22 16 15 14
13 15 16 10 11 10 9 7 6 5 7 9 12 13 11 10 10 9 8 10 11 12 14 16 16 18 15 17 22 21 22 26 30 30 29 33 30 26 24 24 16 14 13
12 15 17 14 13 13 12 13 14 12 10 10 11 11 12 11 11 12 11 11 12 13 12 12 17 19 19 19 18 19 21 21 23 21 24 18 19 31 28 22 16 17 14
11 12 15 13 16 18 20 20 18 19 19 17 16 16 12 9 11 11 10 10 12 13 14 14 18 18 21 22 21 23 23 24 23 24 19 14 20 31 26 21 21 19 21
16 15 18 17 19 22 25 26 25 23 24 22 19 20 19 13 10 7 8 10 10 11 13 15 16 16 18 18 19 22 24 24 25 25 26 22 19 29 38 28 27 27 27
20 22 23 23 26 26 27 27 32 32 30 28 26 22 22 21 16 12 7 5 6 10 11 12 14 14 13 15 17 22 25 24 24 25 24 23 21 22 25 25 30 32 30
23 25 30 29 30 31 35 30 33 34 36 36 33 28 26 27 24 19 14 11 6 6 8 11 13 14 15 18 17 18 24 25 25 23 24 25 23 25 29 32 32 32 32
32 32 35 37 40 50 53 38 30 43 38 41 39 33 31 26 26 24 20 18 9 9 9 10 11 14 16 17 18 20 18 25 25 26 26 26 27 26 26 26 27 28 31
34 38 44 45 46 43 51 42 63 48 46 43 38 36 32 26 26 25 24 22 17 11 12 13 10 12 10 15 16 13 17 20 27 25 25 26 26 27 29 30 30 30 30
37 44 50 52 53 54 52 43 41 51 37 44 41 37 33 29 27 27 26 23 21 17 11 10 13 9 11 13 14 16 15 14 13 21 26 27 27 29 31 33 34 34 34
48 49 53 57 56 54 57 55 52 43 47 59 53 42 36 28 26 27 28 24 23 20 14 12 13 12 11 10 11 13 13 11 13 13 13 15 15 15 13 15 18 19 20
54 53 53 52 50 48 47 48 46 51 27 38 39 39 33 27 23 25 21 24 26 20 16 14 14 14 11 13 12 14 16 17 17 19 17 17 18 17 18 19 19 19 20
50 47 42 44 43 41 40 40 35 37 23 31 39 30 28 27 23 20 18 19 21 22 19 17 15 16 13 15 15 15 16 17 18 19 19 18 21 23 23 21 21 20 22
43 40 41 41 40 37 33 30 27 31 24 21 16 24 28 19 17 18 18 20 20 19 23 19 19 19 18 17 18 20 21 22 21 21 23 24 23 26 28 24 25 29 29
42 40 37 38 35 31 29 29 21 24 24 25 32 26 21 21 18 21 25 22 23 22 26 25 23 22 21 22 23 25 25 25 25 27 27 29 30 27 30 32 32 34 34
36 32 34 36 33 27 23 25 25 24 21 23 23 20 21 21 21 25 30 31 30 28 28 32 25 24 23 24 25 26 27 27 27 26 29 30 31 31 32 34 35 36 39
32 32 33 34 32 27 24 25 25 24 23 26 27 26 25 24 23 18 21 23 27 23 25 29 31 26 26 27 27 27 27 27 28 29 30 31 33 36 36 39 41 43 46
27 27 28 30 30 25 24 26 28 34 23 34 27 28 28 22 22 16 16 13 15 17 20 22 26 30 29 27 26 26 27 27 29 31 34 37 39 41 43 45 46 46 46
16 15 21 27 28 24 21 22 24 23 26 27 30 28 32 21 25 25 22 21 22 23 16 28 31 30 27 25 27 29 32 33 34 35 37 38 40 40 40 40 41 43 46
18 19 16 17 15 13 19 15 14 13 12 22 18 16 17 20 19 20 23 22 24 28 29 25 22 23 25 28 31 33 33 34 36 36 36 35 36 38 39 42 45 48 51
10 12 16 15 13 12 15 17 14 8 12 16 9 19 23 21 15 15 16 20 20 18 24 24 24 26 29 31 33 34 34 33 32 33 35 37 40 42 42 43 45 44 39
7 8 10 11 10 12 12 9 6 10 14 11 15 21 23 25 26 26 21 18 20 21 25 28 29 30 31 31 30 30 31 32 33 35 38 39 40 41 41 40 39 36 36
11 9 11 13 14 13 14 16 11 12 15 17 19 21 21 23 25 26 26 26 26 27 29 30 31 32 30 28 29 31 33 35 37 38 40 41 41 42 42 40 39 39 39
16 15 17 17 17 17 18 20 20 21 21 22 22 24 25 26 27 27 27 26 26 26 25 25 25 26 28 31 34 36 39 40 42 43 43 42 43 43 43 42 42 42 42
17 17 18 19 20 19 19 22 23 24 23 24 25 26 25 26 26 26 24 20 20 21 23 25 27 30 33 36 39 41 43 44 44 43 42 42 41 41 41 41 41 41 41

GFSGL_500_spd_081.txt.gz
Wind_Speed
14 17 15 15 11 10 10 7 6 7 6 6 6 8 7 8 9 10 9 10 10 12 13 14 15 18 20 23 26 29 26 30 31 29 29 29 23 25 26 25 24 22 20
16 17 18 18 16 10 9 9 10 10 10 10 10 10 11 13 13 14 13 12 12 11 12 15 17 18 15 16 20 23 25 25 28 31 32 26 23 28 26 35 27 23 21
15 16 18 19 18 14 10 10 11 12 13 14 16 16 15 13 14 15 16 15 14 14 12 13 17 17 18 17 17 22 26 26 26 26 25 25 26 32 33 31 34 29 23
18 19 20 20 18 16 13 9 14 17 20 20 20 20 19 20 17 16 16 15 15 15 15 15 13 16 17 18 20 21 19 19 22 24 22 23 26 31 36 37 31 23 21
21 21 20 19 19 19 20 18 20 18 17 18 19 21 22 20 21 19 18 16 14 15 17 16 15 15 16 19 21 22 21 21 22 24 23 23 24 19 21 21 26 27 25
22 21 20 21 22 24 26 27 27 27 25 23 22 21 19 23 23 22 21 19 16 17 20 18 18 17 13 15 17 20 22 21 22 24 25 26 25 27 22 19 32 22 25
25 23 23 24 26 28 33 35 25 30 34 36 35 31 27 20 23 27 25 21 20 20 22 22 19 19 17 13 15 17 19 21 23 25 25 24 23 20 19 21 26 31 31
16 17 22 25 29 27 33 39 43 40 43 37 45 30 30 37 24 28 27 22 23 22 21 22 21 20 18 18 20 20 21 21 24 26 25 24 23 21 22 24 25 27 30
11 19 23 31 32 33 36 41 42 42 42 31 43 32 47 47 38 28 30 22 22 23 24 24 17 18 23 20 18 19 17 20 20 26 24 24 25 23 23 24 28 31 33
18 23 28 33 35 37 40 43 47 47 39 30 38 37 52 38 39 32 30 26 23 21 23 24 18 16 18 18 18 19 15 13 16 18 22 24 24 25 24 26 27 29 30
26 28 32 37 41 44 42 43 45 44 45 35 37 32 27 30 35 36 32 27 24 24 24 22 22 17 17 14 16 17 18 16 14 13 18 24 25 24 24 27 29 30 31
35 36 39 43 45 45 42 39 40 40 43 39 39 35 49 37 39 36 37 33 27 24 23 20 22 21 18 15 14 13 14 15 14 14 12 12 15 18 19 20 20 21 24
42 44 45 46 43 40 36 37 39 40 39 34 38 49 29 41 38 43 40 35 28 22 22 23 24 21 19 17 16 14 14 15 18 18 17 17 17 19 22 22 23 23 23
46 44 40 35 32 32 35 36 39 38 33 32 33 23 29 41 38 45 44 33 25 16 14 14 22 23 19 17 17 18 19 18 18 18 19 21 23 23 25 25 25 25 26
37 34 33 31 30 31 34 36 35 30 28 25 22 11 26 37 30 32 31 27 23 16 17 16 21 22 22 22 20 20 23 23 22 22 22 23 24 26 27 28 28 30 29
35 34 33 33 32 30 31 34 29 27 23 22 22 12 12 19 29 30 25 23 23 20 20 22 22 26 28 27 23 21 21 24 26 26 27 28 28 30 31 34 33 35 35
36 34 32 33 31 31 31 32 30 26 22 21 23 13 12 16 19 23 21 22 21 25 27 29 28 29 30 31 28 23 23 24 25 26 28 30 31 32 34 35 37 39 42
33 30 27 27 28 32 30 32 29 27 25 24 24 18 30 24 20 24 21 19 23 24 24 25 25 27 28 29 28 28 26 26 27 28 29 31 32 35 37 38 40 41 43
21 21 22 25 29 31 32 29 28 27 26 24 25 27 27 30 29 30 35 23 21 16 15 17 19 21 21 21 25 28 29 28 29 31 32 33 35 37 39 41 42 44 45
18 20 23 22 18 20 26 26 26 28 30 27 28 24 34 35 32 32 23 24 23 22 24 25 24 23 23 27 29 30 31 30 32 34 35 37 40 41 42 43 44 43 43
15 16 22 18 16 13 13 21 19 14 17 20 26 30 38 37 36 25 21 23 27 24 28 26 28 30 33 29 24 26 29 31 33 35 35 36 37 37 37 39 40 42 44
14 14 15 12 14 14 15 16 16 14 12 16 20 23 25 21 21 17 21 23 20 18 19 24 29 32 32 31 30 31 32 33 33 33 33 34 35 37 39 41 43 45 46
14 16 15 13 14 15 17 17 14 12 15 18 17 14 13 15 19 22 23 22 15 20 24 27 30 32 30 31 32 31 31 31 31 32 33 36 38 40 42 43 44 45 46
18 18 18 19 18 18 22 21 17 16 21 22 22 24 25 26 24 30 28 30 31 29 28 28 30 30 31 32 31 30 29 30 32 35 38 41 43 44 45 44 45 46 46
23 23 24 25 25 23 24 24 24 23 22 21 24 28 29 28 30 27 30 27 26 26 27 28 29 28 25 25 26 28 30 34 37 40 44 46 47 46 45 45 45 45 44
24 24 25 25 27 25 23 24 22 23 25 24 25 26 26 28 26 27 29 29 27 26 25 24 23 25 26 28 30 33 36 40 42 42 39 36 34 34 36 37 38 39 40

GFSGL_500_spd_084.txt.gz
Wind_Speed
15 17 16 18 15 11 9 8 7 8 8 7 6 7 6 7 8 9 10 10 13 15 17 17 18 18 21 25 25 25 26 28 27 29 26 28 29 27 26 24 24 23 24
20 19 17 19 15 13 12 12 10 10 10 10 11 11 11 10 11 10 11 13 13 14 14 17 19 20 21 20 20 25 22 21 25 27 31 31 22 24 18 22 29 29 29
21 22 20 19 17 16 17 16 15 14 13 15 13 13 16 17 17 16 15 15 16 17 17 16 16 19 19 20 20 19 25 27 28 26 21 20 24 20 17 21 29 28 30
26 27 26 22 22 21 20 18 18 19 19 18 19 18 18 18 18 20 22 20 20 20 21 20 16 16 18 20 22 23 23 22 25 29 27 25 24 23 25 25 32 29 28
31 32 29 24 25 20 17 18 18 22 24 22 24 25 24 25 26 22 21 22 22 20 19 21 21 19 18 20 20 22 24 25 26 26 25 23 22 23 26 28 31 33 26
32 36 39 36 20 18 21 22 25 24 25 23 24 30 27 30 28 25 24 24 24 24 22 20 21 22 21 22 22 22 24 24 26 27 28 25 24 24 25 19 17 12 22
39 45 42 34 19 20 22 26 27 24 23 22 25 20 29 34 34 19 21 29 28 27 24 25 19 21 23 23 24 23 22 22 23 26 28 28 26 23 21 19 11 16 22
30 32 25 17 10 17 24 23 26 28 26 26 27 29 31 27 24 24 25 31 32 28 26 26 24 21 22 24 25 22 20 22 24 25 26 28 28 25 22 20 18 19 23
42 33 24 14 13 14 19 27 28 29 31 32 29 30 28 28 25 29 36 36 37 30 26 24 25 26 25 22 24 22 24 25 24 24 24 24 27 28 25 22 22 23 24
10 12 12 11 16 21 25 29 28 30 32 32 30 29 31 27 31 23 36 43 36 30 26 22 22 22 27 26 22 22 24 23 23 22 22 21 21 25 25 24 24 24 25
16 17 15 19 24 26 30 31 30 33 33 32 32 31 32 31 30 30 25 34 34 30 28 24 23 23 25 27 25 22 20 19 21 24 20 18 20 20 23 24 25 25 27
21 22 26 27 26 28 32 37 35 32 31 32 34 33 33 31 33 33 37 37 39 32 30 27 25 27 26 27 26 24 22 22 21 23 21 20 17 17 21 24 27 29 29
31 32 31 28 30 33 34 35 34 32 31 33 34 34 31 31 40 40 32 47 42 35 30 28 29 28 31 29 28 25 26 24 22 22 21 20 21 21 21 21 22 23 26
35 37 36 36 35 30 29 29 31 31 32 35 35 33 29 29 36 29 32 47 39 35 32 29 28 29 32 32 28 26 25 25 24 22 23 25 26 26 26 26 26 28 29
42 43 40 35 30 30 29 29 31 34 33 34 34 31 27 25 27 29 38 42 39 38 35 29 29 27 27 30 30 28 25 26 28 27 25 26 27 27 27 28 28 28 29
38 34 32 31 30 31 30 30 32 33 34 34 32 30 26 19 15 24 44 40 41 39 37 34 31 28 28 28 31 31 31 29 30 32 31 30 31 30 30 31 32 33 33
32 34 35 33 31 30 32 31 33 32 33 32 29 29 26 23 13 15 36 32 41 35 34 35 29 30 31 30 29 31 33 34 33 32 32 33 33 34 35 35 36 37 37
34 33 32 30 30 32 32 31 31 32 35 32 29 30 27 27 24 20 16 28 30 32 30 22 25 30 34 33 33 33 31 32 34 34 34 33 33 34 36 37 37 38 39
30 31 29 27 28 28 28 32 35 37 37 34 33 30 28 27 17 19 24 30 35 36 33 28 27 24 22 21 22 24 25 27 29 33 35 35 34 35 36 38 39 39 39
24 25 24 26 29 27 28 26 30 33 33 29 29 31 29 29 30 31 39 36 36 40 35 31 25 25 24 23 24 23 24 28 31 32 34 34 34 35 37 39 40 39 39
24 24 25 27 28 29 25 24 23 25 27 27 27 32 26 30 33 30 48 46 40 38 30 26 26 25 25 26 25 26 28 30 31 30 31 32 34 36 37 37 35 36 36
25 25 25 26 27 25 20 20 23 19 18 20 21 21 26 34 30 33 40 33 26 29 31 28 26 27 24 24 25 27 32 34 31 30 30 30 32 33 33 34 36 38 40
26 27 26 24 22 26 22 19 21 20 21 23 20 22 21 16 16 19 13 13 13 19 19 20 20 22 24 28 31 33 31 29 30 32 33 34 33 33 36 38 41 44 46
26 28 28 25 24 23 21 21 20 17 16 14 17 18 16 16 18 18 19 18 21 18 18 20 23 22 22 27 29 31 31 32 31 30 31 33 35 38 41 44 47 49 47
29 28 26 26 25 26 25 22 21 22 21 25 24 20 18 18 18 17 23 26 29 29 24 24 22 24 27 28 27 27 27 28 30 32 35 37 40 43 42 39 35 33 33
25 26 28 26 25 26 26 23 20 22 25 28 31 31 30 27 26 26 28 27 26 26 26 26 26 25 25 25 26 27 29 32 34 36 38 39 36 35 35 33 32 32 33

GFSGL_500_spd_087.txt.gz
Wind_Speed
25 22 21 21 21 17 11 6 8 10 9 8 7 8 8 9 9 9 10 11 11 11 12 14 16 19 19 19 23 25 30 34 35 36 37 28 28 26 27 26 28 28 26
28 32 24 24 25 22 15 9 8 11 10 9 8 10 14 15 16 17 16 14 15 14 15 15 15 17 18 21 22 23 24 29 32 36 31 34 31 26 30 29 29 25 26
35 37 30 29 28 25 19 13 8 10 13 10 8 8 10 12 10 13 16 17 16 14 15 15 16 17 17 19 20 23 24 23 25 29 27 26 26 24 24 25 23 28 29
45 39 36 30 30 28 22 12 9 11 14 16 18 18 15 17 17 15 15 14 16 21 18 16 16 18 19 19 19 18 20 22 24 26 28 28 28 28 30 24 22 25 26
36 29 33 30 28 29 27 20 15 18 18 16 22 25 22 21 26 24 21 20 19 20 21 20 20 18 20 23 21 20 21 22 25 27 29 29 27 26 26 27 26 29 31
39 17 28 32 30 33 38 28 22 21 20 16 25 18 23 22 21 26 25 27 25 22 20 23 24 21 21 23 23 23 23 24 23 27 26 28 28 28 28 26 26 26 24
24 24 27 37 35 38 35 31 27 24 19 20 20 22 26 26 26 27 27 32 31 23 19 20 24 26 23 22 22 23 26 23 24 21 22 22 24 27 27 27 27 20 17
23 22 20 33 40 23 34 36 31 22 21 19 22 23 25 28 27 25 31 25 26 24 25 23 25 27 27 23 22 21 23 24 25 24 23 23 23 24 25 27 24 22 23
30 26 25 21 27 23 26 25 12 17 23 20 24 27 27 25 23 23 25 26 26 35 34 38 30 28 27 27 25 19 21 24 27 28 28 25 25 25 25 27 26 23 24
34 26 14 12 17 7 8 14 19 21 23 22 25 27 27 28 29 28 26 26 27 30 32 36 38 32 28 28 27 24 25 23 25 28 29 25 24 25 24 25 26 26 28
24 17 12 9 8 13 18 20 22 24 24 26 30 31 29 28 30 32 32 30 34 37 35 34 35 32 28 28 27 25 24 25 24 26 28 25 22 21 24 26 26 28 29
19 16 16 16 22 23 21 21 23 27 27 30 32 31 31 32 32 33 33 31 33 36 36 32 34 31 30 32 28 29 30 28 27 24 25 25 26 26 24 25 29 30 31
26 21 22 26 27 25 25 27 29 30 29 29 29 29 33 34 33 33 36 37 37 47 49 38 37 35 35 33 32 31 33 29 27 27 26 27 28 26 25 25 25 28 30
32 32 32 31 32 32 33 32 28 29 29 29 30 30 32 37 34 37 37 37 44 45 45 46 45 37 36 33 34 34 35 34 30 29 27 23 26 28 28 28 27 27 29
37 36 34 36 36 36 35 32 27 29 29 30 33 34 35 36 33 34 36 35 32 24 39 51 45 37 37 36 34 32 34 34 29 28 28 29 29 29 29 29 30 31 31
35 36 34 34 32 30 28 28 29 31 31 32 34 35 38 37 33 33 33 31 27 25 28 43 42 37 39 37 34 30 30 31 31 31 29 30 31 31 31 32 33 33 34
29 29 29 29 31 33 33 34 35 35 35 38 37 37 38 37 33 31 30 29 25 36 35 41 47 42 46 43 35 29 29 30 33 36 36 35 34 32 34 34 35 36 37
30 31 32 33 36 37 38 37 35 34 37 40 41 40 39 38 36 31 30 32 23 30 40 40 48 45 43 41 35 32 32 34 35 36 37 37 38 39 38 38 39 38 39
35 36 37 35 35 34 35 34 32 31 33 39 42 42 41 38 37 34 29 26 28 27 24 28 40 37 40 37 30 31 33 35 35 34 35 34 34 35 37 38 39 38 37
33 36 35 35 37 36 33 33 33 34 37 34 35 36 38 35 36 34 28 22 24 35 39 37 36 41 34 31 30 28 27 27 27 24 24 25 27 30 30 30 30 31 32
27 27 30 33 34 34 35 35 36 35 32 30 29 29 27 27 31 34 30 34 40 45 45 40 38 32 30 30 28 27 28 25 23 24 24 25 25 26 26 26 27 30 32
26 27 29 31 32 33 33 31 31 27 28 26 27 24 22 28 33 30 22 30 29 34 37 38 38 33 23 24 25 24 20 19 21 25 30 26 23 24 27 30 31 32 33
28 28 29 30 30 29 29 28 25 26 25 24 25 22 20 23 24 25 33 32 37 27 22 19 20 17 18 20 19 19 19 21 24 26 24 25 27 28 30 31 32 34 36
28 29 28 27 25 27 27 26 21 20 24 19 19 16 21 20 18 17 18 17 19 17 17 18 20 22 23 20 19 18 18 21 23 26 28 30 30 30 32 33 36 38 40
30 30 30 28 28 25 24 24 24 19 19 19 20 22 12 11 9 10 21 14 24 23 26 25 27 23 20 20 19 21 23 24 23 25 28 29 31 34 35 37 39 39 38
21 23 24 23 22 20 18 19 19 20 19 18 17 24 27 24 22 25 25 26 24 22 21 21 24 21 19 19 20 21 22 24 25 28 30 32 33 35 36 37 37 37 38

GFSGL_500_spd_090.txt.gz
Wind_Speed
38 34 32 28 27 20 20 14 14 11 9 9 6 3 3 4 4 4 4 5 5 6 6 7 7 9 12 13 17 18 20 24 26 30 30 35 38 32 29 29 30 29 28
43 38 37 33 31 25 22 18 15 12 10 12 11 11 12 10 8 6 6 5 6 8 8 9 10 11 11 13 14 17 19 21 21 25 30 34 34 34 29 32 29 30 31
45 44 40 35 33 30 27 22 17 16 15 18 16 16 14 14 11 10 10 12 11 10 10 11 12 13 15 16 17 17 19 20 21 23 24 26 28 27 26 26 22 25 30
49 27 38 36 37 30 29 25 21 20 19 20 20 18 19 22 21 19 19 17 16 15 14 13 14 16 17 18 18 19 20 20 21 22 23 26 27 26 26 27 27 29 27
62 18 42 40 44 33 31 29 25 23 23 24 24 20 20 28 26 22 23 24 22 20 19 19 16 17 18 19 19 21 22 22 23 24 25 27 28 28 28 26 24 23 24
37 26 35 36 44 37 37 37 34 30 28 28 27 24 24 22 23 26 22 24 24 22 23 25 25 21 19 20 21 22 24 25 24 23 25 26 26 27 29 28 25 24 23
44 34 37 30 33 31 46 43 37 37 37 34 29 26 26 25 27 28 26 24 25 26 29 33 26 26 22 21 21 23 26 26 25 25 24 24 23 26 27 27 25 25 23
41 39 40 36 27 26 44 42 41 37 44 37 28 29 28 31 29 31 29 23 24 24 26 26 22 20 22 24 26 24 25 27 25 25 26 22 23 24 27 27 25 24 22
31 25 22 24 27 24 28 29 33 25 38 36 30 30 29 31 30 33 32 24 24 25 23 24 28 32 33 32 28 28 28 27 28 25 27 28 29 30 29 29 27 25 24
19 21 23 21 28 28 31 28 27 29 34 32 35 31 31 31 29 31 29 25 26 27 29 30 32 32 35 38 37 32 31 27 27 29 26 27 29 32 30 30 29 27 24
25 31 27 18 22 22 18 19 20 21 28 30 31 31 31 32 30 30 29 26 27 28 30 31 34 34 38 38 39 37 30 27 25 27 26 28 27 30 32 29 27 27 27
20 25 26 22 21 18 19 20 23 25 26 27 28 30 34 35 32 31 33 32 30 29 33 33 36 38 41 37 37 39 34 30 29 28 32 29 30 29 32 30 27 26 26
17 23 19 20 20 23 23 22 22 24 27 29 33 35 36 35 32 31 32 33 32 30 36 37 40 39 42 44 42 41 38 33 31 31 29 26 26 25 28 28 30 27 25
29 28 26 27 27 26 27 29 31 32 35 35 34 34 34 34 32 33 32 36 36 35 35 41 41 47 55 51 47 46 40 33 32 36 33 33 28 27 23 22 24 27 24
31 34 31 31 34 34 33 33 36 38 39 38 36 36 34 33 35 35 36 38 39 38 38 39 42 47 42 42 42 46 43 36 33 35 34 30 28 28 28 28 28 31 31
31 34 35 35 37 38 38 39 39 36 38 35 33 33 35 36 36 36 37 38 39 38 38 36 40 35 39 41 43 48 42 40 35 36 34 33 34 31 28 28 30 31 32
28 28 29 34 37 38 38 37 36 34 34 34 33 35 35 36 38 39 40 38 40 40 38 34 33 34 34 40 44 48 44 42 39 37 33 34 36 35 34 32 31 30 31
30 32 31 32 33 35 36 37 38 37 37 36 36 37 38 38 39 42 43 41 41 40 36 37 32 32 38 40 44 46 46 48 43 37 34 33 35 35 33 32 33 33 33
37 37 37 37 38 37 38 39 39 38 37 37 37 37 38 38 40 43 45 43 42 37 36 39 36 28 31 43 47 52 53 41 42 37 35 35 35 35 34 34 33 32 31
34 35 38 40 39 39 37 37 38 39 38 37 37 37 38 40 40 40 39 38 37 35 33 29 28 34 33 32 34 37 38 44 45 36 36 34 30 27 25 25 25 25 24
32 31 30 30 31 32 33 35 36 36 36 36 36 39 42 41 36 32 35 33 31 31 32 37 41 42 43 41 46 46 43 40 39 32 29 27 25 25 23 21 22 22 23
27 27 30 30 30 30 30 31 32 31 32 32 30 30 32 32 31 29 31 38 28 29 34 42 46 42 41 36 46 45 38 32 31 31 28 23 21 22 20 19 22 24 27
29 30 29 30 30 28 28 28 26 24 24 25 25 23 25 24 24 24 31 33 31 26 31 35 37 30 33 37 42 38 30 26 21 22 22 19 17 20 22 25 28 30 31
30 31 31 28 26 24 25 22 21 20 21 20 18 19 18 18 21 22 20 24 23 27 34 35 29 27 25 22 22 20 23 23 20 15 14 18 23 25 26 26 26 28 30
21 21 22 25 24 23 21 21 20 19 19 19 17 18 17 18 15 17 16 15 18 20 23 23 23 24 23 25 27 25 19 19 15 13 18 23 23 21 22 25 27 29 32
21 20 19 20 19 19 19 18 19 20 20 18 16 17 15 22 22 24 27 17 23 22 20 18 21 19 16 15 13 11 10 12 15 16 18 18 20 21 24 27 30 32 34

GFSGL_500_spd_093.txt.gz
Wind_Speed
43 38 37 35 36 32 27 23 23 19 17 16 15 15 15 12 11 10 9 10 10 9 8 7 6 7 7 8 10 12 16 19 20 22 25 26 26 27 29 32 31 28 27
45 48 47 42 41 37 32 28 24 20 20 20 20 18 15 17 15 14 13 12 12 12 12 10 8 9 9 11 12 14 16 19 20 21 22 23 24 28 29 32 29 30 29
44 46 45 35 53 42 36 34 22 22 24 23 23 21 19 16 14 16 17 16 18 18 16 15 14 13 13 14 15 14 15 16 18 20 22 23 26 26 26 26 26 26 25
42 48 54 53 24 46 36 36 24 24 25 27 25 24 24 22 17 18 21 20 21 22 22 21 19 17 17 16 16 17 17 18 19 20 21 23 26 26 26 26 26 27 27
42 47 55 55 50 40 39 35 30 29 29 31 28 27 28 27 21 19 25 25 25 28 25 24 23 21 20 22 21 19 21 21 21 22 22 23 24 25 26 27 28 27 26
45 48 53 58 57 60 31 37 35 33 35 32 32 31 30 27 25 23 29 25 22 21 23 27 22 25 25 25 24 23 24 24 24 25 25 24 24 27 28 26 26 25 26
42 40 30 37 32 17 24 17 30 45 41 39 39 38 33 33 29 25 26 26 25 24 24 24 25 29 32 30 25 20 22 25 26 28 28 28 26 27 26 26 26 25 25
28 20 21 22 14 18 26 25 28 30 41 43 42 42 38 36 33 30 32 27 26 25 26 25 25 25 25 21 20 20 21 25 26 28 28 28 28 27 27 25 25 25 25
22 20 23 20 21 20 20 19 24 25 31 44 45 43 41 39 38 36 33 28 26 27 26 27 26 25 18 24 25 27 26 28 31 30 28 29 28 27 27 30 30 29 29
25 25 21 23 29 22 25 26 24 26 32 41 47 37 35 40 41 33 34 33 28 28 29 28 29 30 29 30 31 31 32 31 32 31 30 29 28 27 27 28 29 26 26
27 30 21 26 28 24 22 27 32 34 34 36 37 34 37 40 39 31 34 38 34 30 30 30 30 30 33 35 35 35 36 36 34 32 32 29 27 25 26 25 25 24 23
30 27 20 24 30 30 26 28 31 27 30 30 24 27 29 33 36 35 38 38 37 35 32 30 29 29 31 32 35 38 38 35 37 35 35 32 29 28 29 28 27 23 21
24 16 20 27 31 33 29 28 19 18 19 21 24 28 30 35 35 38 41 40 39 34 31 33 34 30 30 35 34 35 36 37 38 41 38 36 31 28 21 22 21 20 22
20 19 21 24 27 28 26 21 24 28 27 27 27 30 33 36 39 41 39 38 40 40 34 34 35 32 31 34 37 35 39 45 50 47 43 37 34 29 29 28 27 26 23
21 20 21 25 28 29 29 29 30 32 32 32 34 34 38 40 42 43 41 39 38 40 39 39 37 37 37 35 38 41 46 40 43 43 43 39 37 34 31 29 29 29 26
24 24 24 24 28 30 33 34 35 39 40 37 39 39 42 44 43 44 43 42 41 40 40 39 40 40 39 37 37 39 36 35 41 42 43 42 41 36 34 33 30 30 30
22 23 26 28 28 29 31 33 35 38 41 43 44 44 41 38 36 38 40 41 43 42 42 41 41 38 36 36 34 33 34 35 42 44 44 43 40 39 37 33 35 35 34
29 28 29 29 29 30 31 32 34 37 39 39 40 41 41 42 40 40 41 42 42 42 42 42 42 38 35 34 35 33 32 39 43 51 48 44 46 47 44 39 38 38 37
28 29 30 32 34 35 37 38 38 40 41 42 42 41 42 43 42 41 41 43 43 43 41 40 40 37 35 33 34 34 36 36 46 47 50 53 50 50 47 43 40 41 37
24 23 24 26 29 32 34 34 36 38 43 44 44 45 44 43 41 41 41 40 40 38 36 36 35 35 34 33 31 29 39 41 46 50 51 45 43 47 41 39 38 40 35
23 22 22 24 26 27 29 30 31 30 30 32 35 37 42 42 41 41 40 39 37 35 33 35 35 35 34 37 38 36 33 46 45 47 46 45 43 40 35 36 36 33 31
27 27 26 26 27 28 28 28 27 28 26 25 25 26 28 32 34 36 37 37 38 35 33 30 32 36 35 39 37 40 37 34 42 48 47 43 40 34 36 35 30 30 22
31 31 31 32 32 31 30 28 27 29 25 20 21 21 21 22 26 27 29 30 30 33 29 36 44 37 42 54 50 40 27 29 37 39 35 36 32 30 29 26 18 14 17
33 31 30 31 29 30 32 30 30 28 26 24 25 21 21 18 19 21 25 28 30 30 32 31 34 33 39 36 30 35 33 35 37 39 32 26 26 24 18 11 14 21 24
31 30 28 26 26 26 26 27 25 26 27 26 25 22 21 21 17 23 19 17 16 21 25 26 30 40 49 41 30 23 22 23 24 24 24 18 19 11 7 15 22 22 22
30 29 30 29 29 28 28 26 24 23 23 25 26 26 26 24 21 25 27 23 29 14 25 17 16 14 21 23 15 14 16 13 14 13 9 11 15 16 17 18 20 23 25

GFSGL_500_spd_096.txt.gz
Wind_Speed
39 40 44 45 43 42 41 37 28 23 19 21 18 16 18 18 16 15 13 12 12 10 10 9 13 13 12 12 13 17 20 23 28 27 27 26 27 25 28 27 28 28 31
41 44 45 50 46 53 51 43 36 27 24 23 21 20 16 18 19 18 14 14 14 15 14 13 13 13 13 12 12 12 14 15 18 20 22 23 23 23 23 21 22 25 28
29 32 47 49 54 30 48 50 41 34 25 23 23 23 20 17 18 19 15 15 16 17 19 16 16 17 17 15 15 16 15 16 18 20 22 22 23 23 23 23 24 24 24
35 39 44 39 50 50 35 36 42 36 34 30 26 27 25 21 21 21 22 17 20 21 22 20 16 17 19 19 19 17 18 18 19 21 23 23 21 23 22 22 21 23 25
40 38 39 34 37 42 40 28 33 35 41 33 30 29 28 25 24 23 25 22 20 23 26 23 22 20 22 22 19 20 22 23 22 20 21 21 23 24 23 23 24 25 25
42 38 35 39 34 30 29 35 39 42 36 37 35 32 31 30 28 25 29 25 22 24 22 22 20 21 23 23 24 25 26 26 23 22 22 22 22 22 25 25 25 25 24
44 32 21 20 17 26 27 14 19 26 38 38 42 39 36 32 29 30 30 32 25 22 23 22 20 19 22 25 29 29 29 26 21 20 21 22 23 25 26 23 26 24 24
19 16 14 8 15 20 17 8 15 22 17 15 35 37 34 29 30 32 33 36 32 27 26 24 18 20 22 25 28 26 22 23 21 23 24 26 25 25 27 24 24 25 23
19 18 17 19 25 19 15 19 20 19 17 27 32 40 29 32 33 32 35 37 34 30 27 22 19 20 21 24 23 22 20 23 26 27 27 28 31 30 27 29 25 23 24
26 24 22 22 18 17 24 24 31 25 23 28 32 39 34 32 33 38 36 41 35 31 30 24 23 24 24 22 25 24 26 31 30 31 32 33 31 30 30 28 28 25 25
32 28 26 28 24 23 25 30 34 30 29 29 33 31 34 36 34 41 38 43 39 33 29 27 26 29 29 27 28 27 29 30 30 31 33 33 30 29 29 29 27 25 26
36 30 27 28 25 24 27 29 31 33 31 35 36 36 37 41 38 35 34 36 34 34 31 30 28 28 31 32 29 29 29 31 31 36 39 36 34 31 30 31 28 26 28
25 24 26 27 27 25 22 27 30 34 32 36 37 32 28 28 31 35 32 30 33 34 36 33 32 31 32 32 35 35 32 30 34 33 33 33 36 40 34 33 28 25 20
19 20 23 24 27 26 27 31 34 38 33 28 23 18 20 21 23 22 25 30 35 35 34 35 36 38 34 34 36 37 33 30 32 32 34 35 40 39 44 38 31 30 26
17 19 20 20 20 26 30 29 28 28 27 23 24 24 26 26 29 31 33 35 37 39 40 40 40 39 39 40 37 35 34 32 31 33 36 32 33 34 36 36 33 32 31
19 21 22 23 22 25 28 28 27 29 28 30 34 35 35 35 35 38 37 40 44 45 41 41 43 42 41 39 37 34 34 33 31 31 29 27 25 35 36 38 35 34 31
20 22 22 24 26 26 26 27 30 29 32 36 37 38 39 41 43 43 44 44 43 41 40 39 38 41 43 41 38 38 34 33 33 31 29 25 34 34 31 32 34 34 36
18 21 24 26 27 30 32 32 31 32 32 34 34 36 37 39 41 43 42 42 42 42 42 42 42 42 41 43 43 38 35 32 34 33 29 27 32 35 44 48 48 41 34
18 18 20 21 22 25 27 29 32 35 37 38 39 38 40 39 40 42 42 43 43 43 43 43 44 44 44 43 42 39 35 34 32 29 26 29 35 48 46 44 41 42 45
23 24 24 24 24 25 25 24 26 29 33 34 36 38 40 41 44 44 44 43 43 43 42 42 43 42 41 40 37 36 34 28 23 38 43 43 44 41 47 49 51 47 47
25 26 25 27 28 27 28 27 28 26 28 30 32 32 35 35 37 40 42 44 43 44 43 43 41 40 39 38 37 35 30 28 34 33 34 34 38 42 45 52 42 38 40
30 30 30 30 31 31 31 31 31 31 30 30 31 30 30 29 30 32 33 35 37 38 39 40 41 40 40 37 31 30 29 32 36 36 32 41 41 44 45 43 40 39 39
33 34 34 33 32 32 32 31 31 33 34 33 31 28 27 28 28 28 30 30 30 32 33 33 34 36 34 33 34 31 39 44 47 40 43 34 34 32 42 43 41 39 37
35 35 35 33 32 31 30 29 29 30 30 31 32 32 30 29 30 29 28 29 28 30 32 33 33 33 34 37 43 36 35 39 43 54 38 27 33 38 38 38 39 37 35
34 33 33 31 31 29 28 28 28 27 26 26 28 30 32 33 31 29 27 27 29 24 29 32 28 28 31 34 38 39 39 43 42 40 37 39 37 27 27 25 21 16 14
34 33 31 31 34 33 32 31 29 29 28 27 27 26 26 29 31 32 30 30 20 25 20 24 24 23 30 36 42 44 47 43 33 28 28 32 30 29 22 16 9 12 19

GFSGL_500_spd_099.txt.gz
Wind_Speed
36 38 38 37 40 42 42 41 43 40 30 26 25 21 20 14 13 11 11 13 13 8 11 8 11 14 15 15 15 15 17 21 24 21 32 29 28 29 26 28 28 26 26
41 46 44 43 46 45 46 47 47 49 39 31 28 24 25 18 15 14 11 14 16 11 13 13 12 14 16 15 13 12 11 13 20 26 28 33 25 20 22 22 23 21 20
39 44 45 30 47 41 47 40 50 51 41 36 30 27 28 23 18 16 14 14 17 17 13 13 14 16 17 15 14 12 12 10 9 12 12 14 19 21 22 23 22 21 22
37 41 41 31 36 36 41 51 51 25 29 30 29 30 30 29 22 20 20 16 19 21 19 16 16 16 18 19 17 16 15 13 11 14 16 18 21 21 21 20 20 21 21
33 36 37 36 38 34 31 23 13 16 9 24 36 34 32 29 28 26 23 22 23 25 26 21 18 19 20 20 21 20 20 18 17 16 18 18 20 22 19 20 22 21 21
32 33 29 34 41 37 30 19 7 8 19 22 29 27 29 30 33 34 28 25 26 24 22 25 19 19 19 20 21 24 23 24 24 22 22 22 22 21 20 21 23 24 25
29 26 22 21 24 23 24 16 14 11 13 20 30 31 31 31 38 38 33 29 28 25 20 23 19 18 19 21 20 22 25 27 29 29 25 22 22 24 23 24 25 24 25
25 22 20 16 12 12 6 16 20 15 17 20 9 20 21 33 38 40 37 33 31 29 26 23 23 20 21 21 22 21 21 23 24 21 22 21 21 21 24 25 27 27 26
25 22 22 20 18 19 22 21 24 25 18 11 14 17 17 21 24 34 37 39 35 34 30 27 26 21 21 22 21 21 21 21 19 19 21 25 25 25 26 28 30 28 26
27 27 25 25 21 22 22 22 25 21 18 20 19 14 24 21 24 27 34 37 37 33 33 31 29 25 24 22 22 20 22 26 24 25 28 28 28 27 28 28 28 28 27
30 30 29 28 26 28 26 24 26 24 29 20 22 26 28 27 29 32 33 33 36 36 32 29 32 28 26 24 24 24 25 26 24 25 24 27 27 28 30 31 29 24 26
29 30 28 28 29 26 29 27 24 32 34 33 33 33 35 36 40 36 35 37 35 44 43 42 37 32 29 26 26 29 27 26 24 25 27 28 29 33 32 29 29 27 27
20 20 19 19 22 27 30 27 26 26 31 32 34 36 38 37 38 34 41 38 44 43 37 42 38 36 30 28 26 29 32 29 29 28 28 30 33 32 30 30 30 33 34
16 14 14 16 19 23 24 27 26 29 27 26 28 32 38 39 39 38 36 35 38 43 41 37 36 33 30 28 28 29 32 32 32 32 31 32 31 31 30 35 31 27 27
18 16 16 17 18 19 21 21 24 26 31 28 28 32 35 38 41 34 32 25 26 27 28 29 30 34 36 35 32 33 32 32 32 31 32 32 32 32 32 32 31 30 28
12 13 15 15 14 16 18 20 21 28 30 31 31 33 31 36 33 29 28 28 29 30 29 29 32 35 34 35 35 32 31 29 31 34 34 34 35 32 31 27 29 28 27
15 16 17 19 21 21 20 21 24 26 24 26 27 30 34 34 35 37 37 36 39 40 37 38 37 37 35 31 31 31 30 32 35 36 35 36 35 34 34 31 34 29 34
9 11 13 14 16 17 18 21 22 26 28 30 31 32 33 31 34 37 39 38 39 41 42 42 42 39 37 35 34 34 33 34 35 35 35 36 36 35 34 32 28 27 40
15 16 18 20 20 21 20 19 19 19 21 23 25 29 33 35 37 37 37 40 40 38 41 40 39 39 39 39 38 38 38 37 36 36 35 35 37 38 42 36 24 23 28
18 20 21 23 24 25 27 26 26 26 28 26 24 25 26 28 32 35 39 39 41 41 42 43 42 41 41 42 42 40 40 38 36 37 36 35 38 41 33 37 30 30 27
23 24 24 27 30 31 31 32 31 29 33 34 32 32 31 31 30 32 33 36 37 39 40 41 42 44 45 44 43 41 38 37 35 36 36 32 37 44 39 40 36 37 48
25 27 29 31 33 34 34 35 36 36 36 36 36 35 34 34 33 32 31 31 31 32 34 35 37 39 42 44 44 43 41 39 36 38 34 29 33 44 44 41 39 36 37
26 28 31 32 33 35 36 35 36 36 35 35 36 36 35 34 34 33 32 32 30 30 33 33 34 36 38 40 42 42 38 38 32 38 37 33 38 41 41 41 39 46 42
28 30 31 32 32 34 33 32 33 32 33 34 33 31 31 30 30 33 34 33 32 32 33 35 34 35 38 38 39 40 39 33 40 46 43 52 50 51 45 40 49 46 40
30 30 31 28 28 30 28 27 33 36 35 33 32 31 30 29 29 27 29 33 34 33 32 32 34 30 30 32 29 32 34 40 49 39 36 48 55 47 43 45 38 36 43
32 32 33 31 30 28 28 28 28 31 31 31 30 30 29 27 26 27 27 25 27 28 29 27 22 23 24 24 32 37 38 42 45 44 39 44 48 48 42 42 43 42 38

GFSGL_500_spd_102.txt.gz
Wind_Speed
42 39 43 42 44 46 46 44 43 39 36 36 35 30 24 18 18 18 16 14 13 11 12 9 8 7 8 10 9 12 15 15 20 28 32 33 32 24 26 28 26 27 27
38 40 38 40 54 51 52 49 47 44 44 43 44 39 32 23 20 22 19 17 19 13 12 13 12 8 8 10 13 13 14 14 12 17 24 25 23 29 29 27 28 25 26
44 41 39 51 59 45 40 49 45 41 42 52 53 54 36 28 22 25 22 21 21 19 16 15 17 15 12 11 11 12 13 14 12 10 9 13 18 24 31 24 20 23 23
39 46 50 47 51 50 36 58 41 26 44 37 52 58 37 31 26 28 24 23 24 23 20 17 16 20 18 12 13 13 14 15 14 14 12 14 15 15 15 17 19 21 21
29 28 23 26 19 18 23 28 10 7 20 14 19 39 36 32 29 29 27 27 28 27 26 23 18 19 24 20 16 16 18 17 16 15 15 17 20 19 18 19 20 20 21
26 25 20 17 18 11 14 15 16 20 20 12 11 17 31 35 38 35 30 31 31 31 29 27 23 22 24 25 20 16 17 21 20 19 20 22 23 26 25 23 23 23 24
21 21 16 14 14 9 10 8 16 17 19 20 17 24 30 45 45 36 36 35 33 35 30 29 25 23 21 24 21 17 18 21 22 21 22 25 27 28 26 25 23 22 23
24 21 17 16 17 16 10 7 12 21 19 18 18 16 18 32 37 32 38 38 39 37 35 32 27 29 24 23 23 22 19 19 21 20 21 21 24 26 23 23 24 21 24
20 23 23 22 21 19 22 22 19 21 20 22 19 15 17 22 37 35 38 46 44 40 39 37 32 32 31 28 26 24 22 22 22 22 21 18 18 22 25 27 27 28 29
19 21 20 20 21 20 23 26 28 26 26 26 20 17 23 21 18 19 29 32 46 39 41 42 40 37 34 33 31 28 24 27 24 22 23 24 25 28 30 31 31 31 30
22 25 26 25 25 26 25 23 26 29 24 23 32 26 20 20 20 28 29 25 23 31 40 41 41 39 40 38 35 33 29 28 28 28 25 25 27 27 30 32 30 28 31
28 27 24 23 24 23 24 24 25 27 29 24 32 34 30 30 29 28 31 29 28 31 34 37 34 38 45 48 43 38 33 31 30 32 31 29 28 27 28 28 28 28 29
19 20 18 16 16 16 21 25 26 28 27 31 29 30 32 28 30 34 37 34 37 41 39 40 41 43 39 48 41 37 33 35 36 35 33 33 31 29 27 27 29 30 31
20 21 19 16 15 14 13 14 19 24 26 28 28 24 24 26 30 34 36 36 33 38 42 45 47 48 48 50 51 48 38 36 39 38 35 33 33 29 26 28 31 35 33
17 17 18 17 17 18 19 18 19 19 21 22 24 29 32 32 31 32 31 32 35 37 40 40 37 37 41 40 40 37 36 38 39 38 38 34 33 31 30 32 34 34 34
10 12 13 13 15 16 16 16 18 19 20 21 24 27 32 34 33 34 35 37 37 37 39 37 31 30 29 30 31 31 34 34 35 38 36 35 35 35 35 34 36 36 36
13 15 15 14 13 15 16 19 20 22 23 25 27 28 29 28 28 29 33 36 38 37 36 38 35 36 36 37 37 35 34 36 38 38 38 38 39 38 37 36 37 38 36
8 10 12 13 13 15 15 15 16 18 19 21 27 31 34 34 34 35 35 34 35 38 40 40 41 42 43 44 44 43 41 40 38 37 38 40 40 39 38 37 37 38 38
14 15 15 17 19 19 20 20 21 21 24 24 24 23 23 25 26 29 34 39 41 41 41 40 42 42 44 46 46 45 44 45 43 42 41 39 40 40 39 38 39 39 40
16 18 19 20 21 22 23 25 27 29 30 31 31 33 34 34 33 33 32 32 35 39 43 45 46 45 44 44 43 43 44 42 42 42 42 42 41 40 39 39 42 39 43
19 21 24 24 23 23 25 27 28 30 33 36 37 38 38 40 41 40 41 41 40 39 38 37 39 42 45 46 46 47 47 46 45 42 41 41 41 39 40 38 33 48 55
24 25 26 27 27 27 28 29 30 32 34 36 39 41 43 43 41 41 43 43 45 43 41 38 35 35 36 37 39 41 44 47 47 46 44 42 42 40 41 39 44 45 44
26 27 28 29 30 30 31 33 35 36 38 41 41 41 40 40 41 39 38 38 39 44 44 40 37 37 37 38 38 37 38 40 41 43 44 42 40 38 42 38 37 50 45
29 29 30 30 31 34 37 38 38 38 38 39 39 38 39 39 38 36 36 34 32 34 40 43 40 37 37 37 36 37 38 37 39 40 42 45 41 37 39 47 46 47 51
32 32 33 35 33 34 38 38 36 37 38 37 37 37 38 38 38 37 34 33 34 33 30 32 35 36 33 32 34 32 31 34 30 33 38 36 41 51 49 48 49 49 48
36 36 38 37 36 37 38 37 37 36 38 37 37 39 38 37 34 33 32 32 32 31 30 27 25 24 26 25 24 23 21 16 26 33 35 34 42 56 54 51 46 48 42

GFSGL_500_spd_105.txt.gz
Wind_Speed
69 69 64 34 49 50 51 49 46 42 41 36 33 33 31 29 26 25 23 20 19 17 16 14 12 12 10 13 9 9 9 10 12 14 19 27 29 25 27 31 33 32 31
60 66 49 49 55 50 51 51 50 47 46 43 41 39 39 34 34 32 27 24 23 22 20 18 17 15 14 14 14 12 12 13 10 10 10 15 17 20 25 26 25 23 22
52 68 49 45 48 41 60 53 47 55 50 49 47 44 44 42 39 39 34 28 28 26 23 22 18 17 16 16 17 16 14 14 13 10 5 5 8 14 18 25 27 28 29
45 36 66 23 46 39 32 45 47 55 44 42 51 53 45 46 50 51 40 33 33 30 26 25 21 20 20 17 17 18 18 16 17 15 12 9 6 7 8 10 13 14 17
37 35 31 25 32 43 22 19 19 9 19 35 18 31 53 53 55 53 45 36 36 34 30 27 25 23 22 22 19 20 21 20 22 20 17 14 12 11 11 13 15 17 19
22 21 28 23 40 12 9 12 8 3 12 19 15 11 18 32 40 37 46 38 36 39 33 28 30 27 25 26 23 23 22 21 22 24 22 21 19 18 18 19 20 19 22
15 14 12 15 16 12 8 7 13 16 18 16 22 25 20 24 31 36 40 39 38 40 36 34 32 29 27 28 26 25 23 22 25 23 25 25 24 26 23 24 23 23 23
17 18 13 11 9 8 12 15 11 17 22 24 21 23 18 21 25 29 42 46 42 38 38 38 33 30 29 28 27 25 27 25 27 26 25 26 26 25 26 27 25 23 22
10 11 10 11 14 16 18 18 16 17 16 21 23 21 21 22 20 15 31 40 34 38 42 39 38 33 34 31 30 29 28 29 28 28 28 30 28 26 24 23 26 25 25
10 10 11 12 12 12 13 16 19 23 20 22 23 26 24 20 17 19 24 27 38 42 38 38 40 38 39 37 34 32 30 33 33 31 32 31 32 31 28 27 28 28 31
15 15 16 15 15 15 15 17 21 22 23 21 24 22 28 23 20 14 16 22 20 20 29 30 43 44 36 43 39 36 35 38 40 37 35 35 34 32 32 31 31 31 31
18 18 17 15 15 15 15 16 20 22 24 21 17 20 27 32 29 28 25 21 24 25 26 26 27 30 32 38 41 40 42 42 43 43 39 39 39 38 37 34 30 30 28
13 13 13 14 16 17 15 13 18 25 25 25 22 20 25 26 31 36 33 32 29 30 29 28 32 35 34 32 38 43 41 42 51 51 48 45 40 38 36 36 33 30 29
12 14 15 15 16 16 15 13 16 17 18 22 25 25 24 28 24 26 27 26 29 30 31 35 37 38 39 44 44 43 48 51 51 51 51 50 41 39 37 38 37 36 31
12 15 15 15 14 13 15 17 18 19 19 20 23 25 26 26 30 32 30 29 30 31 28 30 38 41 41 43 45 45 47 50 48 50 53 54 44 37 37 39 39 41 38
9 7 8 10 12 14 15 18 19 20 21 21 21 24 25 28 29 30 32 30 31 32 32 34 34 36 38 42 45 43 44 41 43 46 47 42 36 40 42 43 43 42 43
10 10 12 12 12 12 13 15 15 16 18 22 25 27 29 30 31 32 32 32 33 33 35 36 37 38 38 39 43 47 41 35 35 36 36 39 45 49 50 51 48 46 45
14 14 12 11 12 12 14 16 17 18 19 20 22 23 24 27 31 35 38 39 40 40 40 41 42 42 43 42 44 43 44 41 41 42 40 41 40 42 46 49 48 47 44
14 14 14 15 16 17 18 19 20 21 22 22 23 25 27 29 31 33 33 33 33 35 37 41 44 47 47 48 47 47 43 46 45 44 43 43 44 44 44 47 47 47 48
18 19 20 20 20 21 23 23 23 23 22 24 26 27 28 30 33 36 39 42 44 45 44 43 42 41 42 46 49 52 52 49 47 49 51 52 51 46 46 46 47 48 49
22 23 24 25 26 27 27 28 27 27 27 27 29 31 33 35 37 39 40 42 45 48 49 49 50 49 49 47 44 46 51 56 57 55 53 49 47 48 49 49 48 49 50
27 28 28 30 31 31 31 31 30 31 31 31 33 36 37 40 43 45 46 47 46 46 47 50 52 51 51 51 49 47 45 46 48 52 58 58 57 54 51 50 50 49 51
31 31 31 31 31 32 33 34 35 35 34 36 37 40 41 42 44 47 48 47 44 42 40 40 41 45 44 45 48 48 48 46 44 45 47 49 53 57 57 56 54 51 50
30 31 32 32 34 35 36 37 38 39 38 39 41 44 45 44 44 44 42 40 40 41 40 40 38 38 37 41 43 45 46 46 45 44 44 45 47 49 50 52 54 53 52
33 34 34 36 38 38 39 40 42 44 44 44 45 46 46 46 42 43 41 42 42 41 39 39 39 38 36 37 38 38 41 42 42 43 43 40 39 42 47 44 43 40 45
38 40 41 42 42 43 43 43 44 45 44 45 46 44 44 45 39 38 38 39 38 37 37 37 37 37 34 31 33 33 31 30 30 32 36 33 32 33 37 39 37 44 51

GFSGL_500_spd_108.txt.gz
Wind_Speed
54 52 58 55 51 54 53 58 59 55 44 43 38 35 34 33 31 27 25 23 23 25 25 25 23 21 19 18 15 18 18 15 16 16 18 22 29 31 30 31 32 31 28
36 44 51 54 53 57 65 61 64 62 57 48 41 39 39 37 36 34 33 30 29 27 27 27 25 22 20 19 20 17 16 15 15 13 15 18 22 23 26 29 31 27 27
38 40 39 46 49 51 53 63 74 74 66 52 45 43 41 41 39 40 41 40 35 32 30 32 28 26 24 23 22 18 17 18 17 16 17 13 15 15 21 22 24 26 22
37 35 38 48 44 52 57 62 77 77 70 54 47 46 47 48 46 45 47 46 43 40 36 36 33 29 28 26 25 21 19 18 17 17 16 17 15 11 14 16 18 21 24
26 28 23 27 12 16 32 45 39 20 8 22 34 46 50 44 48 52 58 50 51 47 40 41 36 33 30 29 28 25 22 21 19 18 18 18 20 19 16 14 17 15 15
26 17 16 5 8 13 15 8 5 11 14 17 20 39 51 49 47 51 55 55 54 44 48 46 34 37 31 30 31 28 25 24 21 18 20 20 22 22 21 20 20 21 23
11 10 3 5 6 9 11 13 12 16 18 15 11 13 29 34 37 33 42 46 41 40 46 49 43 38 34 31 31 32 29 26 24 23 23 22 20 22 25 26 27 27 27
10 4 4 6 8 12 15 11 11 13 21 19 21 20 21 28 29 24 22 25 31 48 44 43 38 38 37 37 33 33 31 28 27 26 26 25 22 21 23 26 27 28 31
7 6 8 10 11 13 14 13 12 15 17 13 18 23 26 29 28 25 18 22 34 42 41 34 35 39 37 40 38 36 35 32 28 28 28 27 26 25 26 27 29 27 28
5 5 5 6 8 10 13 14 13 15 15 17 18 17 25 25 24 25 21 21 16 29 35 42 41 35 38 36 41 40 39 35 34 32 31 31 29 27 29 31 31 29 28
9 9 10 13 15 17 18 18 20 16 16 14 14 18 19 22 26 25 24 24 21 26 38 36 45 54 32 28 39 42 46 42 36 34 34 35 35 32 31 35 36 32 28
11 9 12 13 13 11 13 15 17 21 21 19 17 18 19 20 22 27 30 24 22 18 23 23 18 26 43 34 36 36 48 43 41 40 40 39 40 42 39 39 38 37 33
12 10 11 13 12 11 11 12 15 16 18 21 22 22 22 22 21 22 28 31 35 28 27 23 26 26 30 32 31 35 32 32 35 38 40 39 45 45 46 46 45 41 37
15 15 15 12 11 12 12 12 15 15 14 15 15 17 21 24 26 27 28 29 25 31 32 34 22 26 30 34 36 36 35 35 38 40 41 39 44 44 45 49 54 50 42
16 16 14 14 16 16 15 13 15 15 17 17 18 19 18 18 22 25 28 27 28 26 26 25 27 29 32 37 39 40 40 41 42 41 48 46 45 48 50 50 49 54 50
13 13 11 10 11 11 11 11 11 11 13 15 16 17 20 20 20 21 24 27 29 30 31 34 37 36 38 40 41 40 40 41 42 45 45 46 44 45 46 51 50 52 50
10 10 9 10 11 11 11 10 8 11 13 14 15 17 19 21 23 23 25 28 31 33 32 32 35 36 37 39 40 40 42 44 43 43 43 44 43 41 43 53 55 57 48
13 13 13 12 10 10 11 12 13 14 16 17 18 18 20 21 22 23 25 28 30 32 34 33 33 34 38 42 43 44 43 45 45 45 43 47 47 45 43 42 42 43 47
13 12 12 13 14 14 16 17 18 19 19 20 21 21 22 22 23 25 27 29 31 34 37 39 41 42 43 43 42 44 45 48 50 49 50 49 51 52 49 49 48 48 48
16 15 15 17 18 19 20 21 23 24 26 27 29 28 27 27 26 26 27 28 30 33 36 38 41 45 49 52 52 52 50 49 48 51 54 52 52 52 55 50 49 46 46
18 20 21 21 23 24 26 28 29 30 32 32 32 31 31 32 33 34 36 36 37 37 37 40 43 44 46 49 53 57 58 58 56 52 51 52 55 55 54 55 58 57 53
19 21 23 25 27 29 30 30 31 33 34 35 34 35 35 36 38 39 41 42 44 44 44 45 46 46 47 48 45 50 57 58 57 57 56 53 51 51 55 58 59 57 59
23 24 26 27 29 31 31 32 33 34 35 37 37 37 38 39 40 41 42 45 46 48 49 46 48 47 46 47 44 40 38 46 48 50 51 51 50 49 49 51 52 58 61
26 28 29 31 33 35 36 37 39 41 43 45 46 46 46 47 46 45 46 47 47 49 48 47 47 45 44 43 40 40 40 40 43 43 44 47 48 48 48 49 50 52 53
32 34 36 37 38 39 41 43 44 46 47 47 48 48 49 49 50 51 52 51 47 45 46 46 46 44 42 40 41 42 42 41 40 42 40 38 41 44 44 44 46 48 48
37 38 40 41 43 44 46 46 46 47 49 50 50 49 49 49 50 50 51 51 49 44 43 46 45 43 40 39 39 40 38 38 38 38 37 38 35 36 38 38 38 40 42

GFSGL_500_spd_111.txt.gz
Wind_Speed
47 43 46 46 51 49 53 50 50 49 48 48 44 41 41 40 38 33 30 27 23 24 24 23 25 25 24 24 25 23 19 20 20 25 24 19 23 26 29 29 29 35 34
40 39 44 41 47 53 52 46 46 47 47 54 52 45 41 42 44 43 39 34 30 28 28 25 27 27 24 24 25 23 21 18 19 22 21 19 19 20 24 26 28 30 33
41 42 42 45 50 53 53 48 61 48 47 48 55 56 51 45 46 49 47 43 37 34 33 31 31 30 25 26 27 25 23 21 22 24 21 22 21 17 17 19 23 27 31
34 44 42 43 44 48 50 48 49 51 50 52 57 55 57 53 55 49 51 48 43 40 39 37 40 37 31 30 30 28 26 24 24 24 20 20 22 19 17 16 18 23 25
33 35 40 41 45 49 52 54 56 56 59 60 49 54 59 57 62 58 58 56 47 45 45 44 43 43 44 36 34 31 31 29 27 26 23 21 21 23 21 16 18 19 18
31 36 36 38 40 38 38 40 44 41 55 51 47 35 56 71 75 68 67 65 53 46 51 51 51 48 49 47 35 34 32 31 31 29 27 27 25 22 24 22 20 19 19
18 22 22 27 23 25 29 25 18 13 20 30 52 38 35 47 68 68 76 64 58 46 50 57 57 53 55 50 44 36 35 32 33 32 31 31 27 26 23 25 25 23 24
23 37 24 13 13 15 18 19 19 18 24 29 35 34 30 33 46 48 58 52 41 40 42 46 50 55 52 56 47 39 40 36 35 35 33 33 31 28 26 24 24 23 21
4 11 18 16 11 12 11 11 11 13 15 23 24 33 28 18 21 31 34 28 28 25 33 33 31 37 52 60 44 41 42 39 39 36 32 33 34 31 29 29 28 23 22
4 4 3 7 9 9 8 7 9 9 10 10 15 18 17 13 18 16 14 21 27 26 25 23 33 38 44 47 38 34 41 43 44 40 36 36 34 32 30 31 30 28 26
8 7 7 6 8 8 8 9 11 11 13 13 8 8 7 7 9 14 16 23 23 18 22 25 30 32 37 40 45 44 37 39 42 44 43 40 37 36 34 35 33 31 30
4 5 7 11 12 13 14 15 17 18 20 16 16 16 16 15 14 15 15 17 26 31 24 20 22 31 40 37 41 46 48 42 29 41 48 46 41 38 38 39 36 35 35
8 12 13 16 19 18 17 16 16 15 18 16 18 17 19 20 22 22 22 18 24 28 32 32 29 21 28 29 30 31 44 47 49 37 35 39 39 43 47 43 40 39 41
12 16 17 19 19 19 19 17 16 16 16 16 16 15 17 20 23 26 25 25 26 25 25 24 22 30 29 40 38 31 30 29 32 30 31 38 39 38 41 40 45 41 41
15 17 20 20 21 21 19 16 16 15 14 14 14 13 13 13 14 16 19 23 25 27 26 26 26 25 25 25 29 28 32 33 32 35 34 36 38 36 38 43 43 44 45
17 18 18 17 15 14 14 15 14 13 12 13 13 14 14 14 15 17 17 17 18 19 21 23 23 25 27 29 31 32 37 38 38 36 36 42 46 47 48 45 45 44 45
13 11 11 10 10 9 11 12 12 11 11 11 13 13 14 14 15 17 17 18 19 20 19 20 21 21 24 28 31 33 34 35 36 39 43 45 46 47 48 49 47 44 46
11 12 12 12 12 11 10 10 12 12 12 13 14 16 18 19 20 21 23 25 25 25 27 26 26 27 29 29 30 32 34 35 36 37 39 42 44 44 46 46 46 48 48
11 12 12 12 12 12 13 14 14 16 17 18 19 21 22 24 25 26 27 27 29 29 28 30 30 31 32 33 35 37 39 41 43 45 46 46 46 46 47 48 48 49 50
12 11 12 14 16 18 19 19 20 21 22 23 25 26 27 29 30 31 31 31 31 32 32 33 34 34 34 35 36 39 41 43 44 45 48 51 53 55 53 52 50 51 51
13 15 16 18 19 20 21 23 25 26 27 29 30 30 30 31 33 35 34 35 36 36 38 39 40 40 38 38 39 37 37 40 43 44 46 49 54 59 62 59 57 53 50
15 17 18 20 22 24 25 27 29 30 31 31 32 33 34 34 35 37 39 40 41 41 43 45 45 45 43 43 44 44 43 44 44 46 48 50 51 49 55 61 59 58 55
18 20 21 22 24 26 28 29 31 33 33 34 35 37 37 38 39 40 42 45 46 47 48 49 49 49 48 47 47 47 47 45 44 44 45 46 46 46 51 54 54 54 54
21 24 27 29 31 32 34 36 38 38 40 42 42 44 46 47 49 49 50 50 50 50 51 52 51 51 50 49 49 49 49 47 45 44 43 42 42 43 46 47 48 50 52
28 30 31 32 33 35 38 39 40 41 42 45 47 47 48 50 51 51 52 52 52 53 55 55 55 55 54 53 51 51 50 48 46 45 45 43 44 45 45 44 44 45 46
30 31 33 35 38 40 41 41 42 43 44 45 46 47 48 47 48 49 50 51 52 53 52 52 52 52 51 50 50 48 45 43 41 40 41 41 41 42 42 42 42 39 40

GFSGL_500_spd_114.txt.gz
Wind_Speed
51 51 55 51 54 57 44 49 50 48 49 54 43 42 38 36 34 32 29 29 28 25 26 26 28 28 24 21 22 22 23 21 22 24 26 23 22 25 26 27 28 27 27
48 46 49 48 53 44 52 46 51 53 51 49 43 41 40 40 39 38 37 35 33 33 32 33 32 32 31 25 22 23 23 23 21 23 25 22 22 24 24 23 24 24 22
47 49 48 47 51 49 54 54 55 57 53 54 50 48 42 42 37 39 41 42 41 38 40 37 39 39 37 36 28 25 22 21 22 25 27 25 25 24 24 23 22 20 22
38 46 47 52 51 55 50 47 44 51 53 51 53 50 48 43 39 37 40 42 42 41 40 42 41 43 43 42 39 32 26 23 26 27 28 27 26 25 25 23 22 23 21
36 36 41 45 50 57 52 49 50 50 53 54 57 52 53 48 49 46 43 47 47 47 46 45 48 47 46 50 45 40 35 32 28 29 31 29 29 27 28 25 25 24 25
34 38 38 41 43 50 52 53 54 54 57 62 59 60 54 57 56 52 55 54 56 54 53 47 48 52 53 54 54 46 46 39 33 30 33 32 34 30 30 29 28 27 26
32 36 35 38 36 41 49 52 54 57 58 58 61 62 62 61 57 54 61 64 60 62 62 61 59 58 60 60 50 52 47 50 44 33 33 34 36 35 33 30 28 27 28
22 24 23 24 29 32 38 44 49 53 56 61 62 62 63 66 63 68 66 65 63 58 64 61 62 62 63 63 61 48 48 51 53 40 35 35 38 36 34 33 32 29 28
14 16 24 19 22 24 32 26 38 42 40 33 34 32 40 43 53 58 48 42 40 47 60 60 58 61 67 50 49 38 49 45 55 48 37 39 39 37 34 34 35 32 30
9 12 32 37 24 17 16 10 9 12 14 16 17 13 18 26 41 39 36 33 31 29 34 39 46 52 50 51 52 40 37 40 49 46 42 43 43 41 37 36 37 37 34
9 12 16 12 10 9 9 12 14 16 18 19 19 16 14 15 20 25 25 19 17 20 24 26 34 32 34 33 34 37 35 34 42 44 44 48 48 47 43 41 41 38 35
10 6 7 6 8 6 8 12 17 19 22 23 22 22 22 22 21 18 15 15 18 23 24 29 23 24 28 27 30 34 38 34 34 39 42 45 44 44 50 47 45 37 37
10 10 10 12 11 12 11 10 11 14 18 17 18 21 22 22 23 23 21 19 19 21 21 23 28 27 31 26 27 21 29 29 34 37 40 37 35 36 37 34 38 44 44
11 10 10 10 12 13 13 13 15 14 16 14 14 16 19 20 22 23 25 26 27 26 29 26 21 24 20 25 35 31 29 28 29 29 25 37 48 49 46 44 43 45 47
13 13 14 11 13 15 16 17 17 16 15 14 12 13 13 12 13 14 15 19 24 26 28 28 27 25 22 22 26 25 26 25 26 34 37 37 35 28 27 28 31 35 43
12 15 15 13 15 17 18 18 19 19 17 16 16 16 15 15 15 15 15 16 17 18 20 20 21 22 23 25 26 26 25 26 28 29 31 31 32 34 35 36 35 35 37
11 13 12 13 14 14 14 13 13 15 15 14 13 12 11 12 13 13 14 15 16 17 18 19 19 20 20 21 22 23 24 27 29 30 30 31 33 35 36 38 41 41 42
10 11 11 11 10 11 12 12 14 14 15 14 13 14 15 16 16 17 18 19 20 22 24 24 25 25 24 24 24 25 27 28 30 32 32 32 33 34 36 36 37 38 40
13 13 13 12 12 13 15 16 16 16 17 17 18 19 21 22 23 24 25 26 27 29 30 31 32 32 32 31 31 31 32 33 32 32 33 34 36 36 36 37 38 40 43
11 12 12 13 13 14 16 17 18 19 21 22 23 25 26 27 28 29 30 32 34 34 36 36 36 36 36 37 37 38 39 38 37 37 39 39 40 41 41 41 42 44 44
12 12 13 14 16 18 20 22 23 24 25 26 28 28 29 31 32 32 33 33 34 35 37 38 39 39 40 41 42 42 42 42 43 45 43 43 43 44 46 45 45 44 46
14 14 15 16 17 19 21 23 25 26 28 30 31 33 33 34 34 35 35 36 36 37 38 39 40 41 42 43 44 45 46 47 48 48 48 49 49 48 48 48 46 44 44
16 17 18 18 19 20 22 24 25 27 29 31 33 35 36 37 39 40 41 42 43 44 45 46 47 49 50 50 50 51 52 53 54 55 54 51 50 51 52 52 50 49 47
19 20 21 23 24 26 28 30 32 33 34 36 38 39 40 42 43 44 45 47 48 48 49 49 50 50 51 52 53 55 56 56 54 54 54 54 53 52 51 51 50 49 48
21 24 25 26 27 28 30 32 34 36 38 41 42 44 44 44 46 48 49 50 51 50 50 51 52 54 55 55 55 55 56 56 55 54 54 54 52 51 50 47 45 44 45
26 26 27 29 31 32 32 33 33 35 38 40 43 45 47 49 51 52 53 54 55 55 55 55 55 55 55 55 53 51 49 48 47 47 47 45 45 45 46 44 42 42 43

GFSGL_500_spd_117.txt.gz
Wind_Speed
46 47 52 61 58 53 53 59 56 58 54 52 58 48 41 40 36 31 30 29 24 24 22 19 19 20 20 20 21 22 23 24 22 26 23 26 22 20 21 19 20 20 21
42 45 48 49 60 58 55 56 58 55 60 61 61 49 51 48 42 34 34 35 33 28 27 26 25 25 25 24 23 22 22 25 26 25 25 26 24 22 22 22 22 21 21
36 40 45 44 49 53 56 55 57 55 54 61 54 55 37 49 38 37 35 38 37 37 34 32 32 32 30 30 32 28 27 26 26 26 27 27 25 24 25 25 24 22 20
35 38 44 42 45 51 51 55 57 52 50 53 49 51 40 38 35 37 36 38 35 37 36 37 39 38 37 34 34 35 34 34 31 32 29 32 27 27 26 27 26 24 26
35 36 42 41 44 47 52 52 51 49 49 54 48 48 46 49 39 41 40 39 40 40 42 40 39 40 42 41 39 36 37 40 38 38 35 35 33 32 31 30 27 26 26
33 32 37 41 40 46 50 50 51 51 50 48 46 45 48 47 46 43 44 46 46 43 41 42 44 45 46 49 48 47 42 42 44 41 41 46 36 36 36 33 30 27 27
31 32 35 38 40 38 40 48 48 53 52 50 49 51 47 48 49 53 53 50 49 48 49 51 49 50 51 54 56 54 49 48 47 49 50 51 57 39 35 34 31 31 29
34 36 35 35 38 40 35 35 42 47 47 48 51 56 58 57 57 58 57 56 57 57 54 53 49 50 54 55 57 59 59 58 55 48 47 42 49 50 31 33 31 31 31
28 26 37 37 24 25 28 32 34 34 38 43 48 54 53 50 52 53 56 56 54 56 54 55 53 53 59 56 56 59 61 59 54 49 43 44 37 34 37 30 34 34 32
10 13 18 23 31 21 24 25 28 30 34 38 41 44 49 50 51 56 59 53 55 56 56 42 49 43 41 40 42 49 51 52 51 47 45 44 32 35 35 35 37 39 36
13 19 19 14 10 13 25 28 27 29 33 35 39 40 37 38 34 28 25 30 28 30 37 35 34 40 40 40 39 41 41 40 43 43 37 31 28 38 42 38 42 41 42
9 10 16 24 22 14 16 18 17 8 18 15 9 8 8 10 9 12 17 18 19 25 24 25 25 26 28 33 27 35 34 31 35 32 35 35 31 34 41 43 42 47 45
7 8 6 5 7 3 4 5 2 6 7 11 11 13 14 16 16 16 19 19 19 21 20 21 26 26 24 27 32 27 24 22 19 22 29 37 40 38 43 41 37 38 36
12 11 11 8 7 7 6 7 9 5 3 6 10 14 17 19 20 22 24 24 22 23 24 25 20 24 22 15 14 18 20 24 31 25 23 22 26 27 31 40 39 41 38
16 13 11 9 8 9 8 8 10 10 10 9 12 14 15 18 20 21 22 26 27 26 27 29 29 29 27 24 24 23 22 22 21 19 22 24 24 23 28 35 30 32 41
17 15 13 12 12 13 11 12 14 14 15 15 15 17 17 16 17 17 16 17 18 20 22 23 25 25 23 24 23 24 24 23 22 23 25 25 27 27 26 29 29 29 27
19 16 13 13 15 15 13 12 13 14 14 15 15 16 16 17 18 18 17 17 18 18 17 18 18 20 20 21 22 23 24 24 24 26 26 26 26 26 26 27 27 29 30
8 9 11 12 11 11 11 11 12 12 12 13 13 13 13 14 15 15 16 16 18 18 19 19 20 21 23 25 26 26 26 26 27 26 26 28 31 31 32 31 31 32 33
7 7 7 8 9 11 11 12 11 11 11 12 13 14 14 15 16 18 19 20 21 22 23 25 26 28 28 29 30 32 32 31 30 31 31 32 31 32 32 33 35 34 34
8 9 10 11 12 10 11 12 13 14 15 17 18 17 19 21 23 24 25 26 27 28 30 32 34 36 37 36 36 37 37 37 37 37 38 38 38 38 39 39 40 40 41
10 10 11 11 12 13 14 15 16 18 20 22 23 23 26 26 29 31 32 33 34 35 36 38 39 40 38 40 39 40 41 41 42 42 42 41 41 41 42 42 44 45 46
11 12 13 14 15 15 17 18 20 21 22 24 27 28 29 32 34 35 37 38 39 39 40 41 41 43 43 42 43 42 42 43 44 45 46 48 48 47 48 49 49 49 48
14 15 16 18 19 20 21 22 22 23 25 27 29 31 33 34 36 37 39 40 41 42 42 43 45 46 47 47 48 48 49 50 51 52 52 52 52 52 52 52 52 52 51
18 19 19 20 20 22 23 26 28 30 31 33 33 34 35 36 38 39 42 43 44 46 47 48 49 50 52 52 53 54 54 55 55 55 56 57 57 57 57 58 58 58 58
20 22 23 24 25 27 28 29 30 31 33 33 35 37 38 40 41 43 44 45 47 48 50 52 52 54 55 56 56 55 56 54 52 52 52 51 51 51 50 50 50 50 50
26 26 27 28 29 30 32 33 33 34 35 34 37 38 40 43 44 45 45 46 47 51 53 57 59 60 62 63 60 60 61 60 60 60 59 56 55 53 51 48 47 47 46